Time,TemperatureF,DewpointF,PressureIn,WindDirection,WindDirectionDegrees,WindSpeedMPH,WindSpeedGustMPH,Humidity,HourlyPrecipIn,Conditions,Clouds,dailyrainin,SoftwareType,DateUTC
2013-11-24 00:01:00,15.7,6.0,30.23,WNW,293,13.0,23.0,65,0.00,,SCT031,0.00,VWS V14.01,2013-11-24 05:01:00,
2013-11-24 00:02:00,15.6,5.9,30.23,WNW,299,16.0,27.0,65,0.00,,SCT031,0.00,VWS V14.01,2013-11-24 05:02:00,
2013-11-24 00:03:00,15.6,5.9,30.23,NW,304,15.0,27.0,65,0.00,,SCT031,0.00,VWS V14.01,2013-11-24 05:03:00,
2013-11-24 00:05:00,15.6,5.9,30.23,WNW,296,14.0,27.0,65,0.00,,SCT031,0.00,VWS V14.01,2013-11-24 05:05:00,
2013-11-24 00:07:00,15.7,6.0,30.23,WNW,287,13.0,27.0,65,0.00,,SCT031,0.00,VWS V14.01,2013-11-24 05:07:00,
2013-11-24 00:08:00,15.5,5.8,30.23,NW,304,16.0,27.0,65,0.00,,SCT031,0.00,VWS V14.01,2013-11-24 05:08:00,
2013-11-24 00:09:00,15.5,5.8,30.23,West,281,24.0,27.0,65,0.00,,SCT031,0.00,VWS V14.01,2013-11-24 05:09:00,
2013-11-24 00:11:00,15.5,5.8,30.23,NW,317,20.0,25.0,65,0.00,,SCT031,0.00,VWS V14.01,2013-11-24 05:11:00,
2013-11-24 00:12:00,15.6,5.9,30.23,NW,306,13.0,27.0,65,0.00,,SCT031,0.00,VWS V14.01,2013-11-24 05:12:00,
2013-11-24 00:13:00,15.5,5.8,30.23,NW,311,14.0,25.0,65,0.00,,SCT031,0.00,VWS V14.01,2013-11-24 05:13:00,
2013-11-24 00:16:00,15.5,5.8,30.23,West,275,20.0,28.0,65,0.00,,SCT031,0.00,VWS V14.01,2013-11-24 05:16:00,
2013-11-24 00:17:00,15.5,5.8,30.23,WNW,287,20.0,27.0,65,0.00,,SCT031,0.00,VWS V14.01,2013-11-24 05:17:00,
2013-11-24 00:20:00,15.4,6.1,30.23,WNW,300,17.0,22.0,66,0.00,,SCT031,0.00,VWS V14.01,2013-11-24 05:20:00,
2013-11-24 00:22:00,15.5,5.8,30.23,WNW,296,16.0,25.0,65,0.00,,SCT031,0.00,VWS V14.01,2013-11-24 05:22:00,
2013-11-24 00:23:00,15.3,6.0,30.23,WNW,290,18.0,26.0,66,0.00,,FEW033,0.00,VWS V14.01,2013-11-24 05:23:00,
2013-11-24 00:26:00,15.3,6.0,30.23,WNW,298,21.0,27.0,66,0.00,,FEW033,0.00,VWS V14.01,2013-11-24 05:26:00,
2013-11-24 00:27:00,15.4,5.8,30.23,NW,304,15.0,28.0,65,0.00,,SCT031,0.00,VWS V14.01,2013-11-24 05:27:00,
2013-11-24 00:29:00,15.3,6.3,30.22,WNW,296,15.0,27.0,67,0.00,,FEW033,0.00,VWS V14.01,2013-11-24 05:29:00,
2013-11-24 00:30:00,15.3,6.3,30.22,WNW,296,29.0,29.0,67,0.00,,FEW033,0.00,VWS V14.01,2013-11-24 05:30:00,
2013-11-24 00:31:00,15.3,6.3,30.22,WNW,295,18.0,29.0,67,0.00,,FEW033,0.00,VWS V14.01,2013-11-24 05:31:00,
2013-11-24 00:32:00,15.4,6.1,30.23,WNW,302,21.0,26.0,66,0.00,,SCT031,0.00,VWS V14.01,2013-11-24 05:32:00,
2013-11-24 00:33:00,15.3,6.3,30.22,WNW,302,10.0,29.0,67,0.00,,FEW033,0.00,VWS V14.01,2013-11-24 05:33:00,
2013-11-24 00:34:00,15.3,6.3,30.22,NW,317,11.0,29.0,67,0.00,,FEW033,0.00,VWS V14.01,2013-11-24 05:34:00,
2013-11-24 00:35:00,15.2,6.6,30.22,NW,314,19.0,29.0,68,0.00,,FEW033,0.00,VWS V14.01,2013-11-24 05:35:00,
2013-11-24 00:36:00,15.2,6.6,30.22,NW,310,16.0,29.0,68,0.00,,FEW033,0.00,VWS V14.01,2013-11-24 05:36:00,
2013-11-24 00:37:00,15.3,6.0,30.23,WNW,294,15.0,27.0,66,0.00,,FEW033,0.00,VWS V14.01,2013-11-24 05:37:00,
2013-11-24 00:38:00,15.3,6.7,30.22,NW,321,12.0,29.0,68,0.00,,FEW033,0.00,VWS V14.01,2013-11-24 05:38:00,
2013-11-24 00:39:00,15.3,6.7,30.22,NW,325,20.0,29.0,68,0.00,,FEW033,0.00,VWS V14.01,2013-11-24 05:39:00,
2013-11-24 00:41:00,15.3,6.7,30.22,West,281,24.0,30.0,68,0.00,,FEW033,0.00,VWS V14.01,2013-11-24 05:41:00,
2013-11-24 00:42:00,15.3,6.3,30.22,WNW,299,17.0,29.0,67,0.00,,FEW033,0.00,VWS V14.01,2013-11-24 05:42:00,
2013-11-24 00:44:00,15.3,6.7,30.22,NW,310,30.0,37.0,68,0.00,,FEW033,0.00,VWS V14.01,2013-11-24 05:44:00,
2013-11-24 00:45:00,15.3,7.0,30.22,WNW,302,15.0,37.0,69,0.00,,FEW033,0.00,VWS V14.01,2013-11-24 05:45:00,
2013-11-24 00:46:00,15.3,7.0,30.22,NW,314,18.0,37.0,69,0.00,,FEW033,0.00,VWS V14.01,2013-11-24 05:46:00,
2013-11-24 00:47:00,15.2,6.6,30.22,WNW,300,13.0,29.0,68,0.00,,FEW033,0.00,VWS V14.01,2013-11-24 05:47:00,
2013-11-24 00:48:00,15.2,6.9,30.22,WNW,300,18.0,37.0,69,0.00,,FEW033,0.00,VWS V14.01,2013-11-24 05:48:00,
2013-11-24 00:49:00,15.2,6.9,30.22,WNW,298,26.0,37.0,69,0.00,,FEW033,0.00,VWS V14.01,2013-11-24 05:49:00,
2013-11-24 00:50:00,15.2,6.9,30.22,NNW,336,20.0,33.0,69,0.00,,FEW033,0.00,VWS V14.01,2013-11-24 05:50:00,
2013-11-24 00:51:00,15.2,6.9,30.22,NW,318,19.0,33.0,69,0.00,,FEW033,0.00,VWS V14.01,2013-11-24 05:51:00,
2013-11-24 00:52:00,15.3,6.7,30.22,WNW,300,33.0,33.0,68,0.00,,FEW033,0.00,VWS V14.01,2013-11-24 05:52:00,
2013-11-24 00:53:00,15.2,7.2,30.22,NW,321,12.0,33.0,70,0.00,,FEW033,0.00,VWS V14.01,2013-11-24 05:53:00,
2013-11-24 00:54:00,15.1,7.1,30.22,NNW,329,21.0,36.0,70,0.00,,FEW033,0.00,VWS V14.01,2013-11-24 05:54:00,
2013-11-24 00:55:00,15.1,7.1,30.22,NNW,327,22.0,36.0,70,0.00,,FEW033,0.00,VWS V14.01,2013-11-24 05:55:00,
2013-11-24 00:57:00,15.2,6.9,30.22,WNW,298,12.0,37.0,69,0.00,,FEW033,0.00,VWS V14.01,2013-11-24 05:57:00,
2013-11-24 00:58:00,15.1,7.1,30.22,WNW,302,17.0,36.0,70,0.00,,FEW033,0.00,VWS V14.01,2013-11-24 05:58:00,
2013-11-24 00:59:00,15.1,7.1,30.24,NW,307,21.0,36.0,70,0.00,,FEW033,0.00,VWS V14.01,2013-11-24 05:59:00,
2013-11-24 01:00:00,15.1,7.1,30.24,NW,312,28.0,40.0,70,0.00,,FEW033,0.00,VWS V14.01,2013-11-24 06:00:00,
2013-11-24 01:02:00,15.2,7.2,30.22,NW,309,15.0,33.0,70,0.00,,FEW033,0.00,VWS V14.01,2013-11-24 06:02:00,
2013-11-24 01:03:00,15.0,7.0,30.24,NW,316,25.0,40.0,70,0.00,,FEW033,0.00,VWS V14.01,2013-11-24 06:03:00,
2013-11-24 01:04:00,15.0,7.0,30.24,WSW,253,25.0,40.0,70,0.00,,FEW033,0.00,VWS V14.01,2013-11-24 06:04:00,
2013-11-24 01:06:00,15.0,7.0,30.24,WNW,297,16.0,40.0,70,0.00,,FEW033,0.00,VWS V14.01,2013-11-24 06:06:00,
2013-11-24 01:07:00,15.1,7.1,30.22,NW,321,15.0,36.0,70,0.00,,FEW033,0.00,VWS V14.01,2013-11-24 06:07:00,
2013-11-24 01:08:00,15.0,7.3,30.24,West,278,24.0,40.0,71,0.00,,FEW033,0.00,VWS V14.01,2013-11-24 06:08:00,
2013-11-24 01:09:00,14.9,7.2,30.24,WNW,295,21.0,40.0,71,0.00,,FEW033,0.00,VWS V14.01,2013-11-24 06:09:00,
2013-11-24 01:11:00,14.9,7.2,30.24,NNW,340,15.0,23.0,71,0.00,,FEW033,0.00,VWS V14.01,2013-11-24 06:11:00,
2013-11-24 01:12:00,15.1,7.1,30.24,NW,317,17.0,40.0,70,0.00,,FEW033,0.00,VWS V14.01,2013-11-24 06:12:00,
2013-11-24 01:13:00,14.8,7.1,30.24,West,280,12.0,26.0,71,0.00,,FEW033,0.00,VWS V14.01,2013-11-24 06:13:00,
2013-11-24 01:15:00,14.8,7.1,30.23,WNW,286,16.0,26.0,71,0.00,,FEW033,0.00,VWS V14.01,2013-11-24 06:15:00,
2013-11-24 01:16:00,14.7,7.3,30.23,WNW,294,20.0,26.0,72,0.00,,FEW033,0.00,VWS V14.01,2013-11-24 06:16:00,
2013-11-24 01:17:00,15.0,7.0,30.24,NW,310,15.0,40.0,70,0.00,,FEW033,0.00,VWS V14.01,2013-11-24 06:17:00,
2013-11-24 01:18:00,14.7,7.3,30.23,NW,319,22.0,26.0,72,0.00,,FEW033,0.00,VWS V14.01,2013-11-24 06:18:00,
2013-11-24 01:20:00,14.7,7.3,30.23,WNW,282,18.0,27.0,72,0.00,,FEW033,0.00,VWS V14.01,2013-11-24 06:20:00,
2013-11-24 01:21:00,14.7,7.3,30.23,WNW,299,17.0,32.0,72,0.00,,FEW033,0.00,VWS V14.01,2013-11-24 06:21:00,
2013-11-24 01:22:00,14.8,7.1,30.24,WNW,288,19.0,26.0,71,0.00,,FEW033,0.00,VWS V14.01,2013-11-24 06:22:00,
2013-11-24 01:24:00,14.7,7.3,30.23,NW,304,16.0,32.0,72,0.00,,BKN043,0.00,VWS V14.01,2013-11-24 06:24:00,
2013-11-24 01:25:00,14.6,7.2,30.23,WNW,288,11.0,32.0,72,0.00,,BKN043,0.00,VWS V14.01,2013-11-24 06:25:00,
2013-11-24 01:26:00,14.6,7.2,30.23,WNW,298,12.0,32.0,72,0.00,,BKN043,0.00,VWS V14.01,2013-11-24 06:26:00,
2013-11-24 01:27:00,14.7,7.3,30.23,WNW,302,20.0,26.0,72,0.00,,FEW033,0.00,VWS V14.01,2013-11-24 06:27:00,
2013-11-24 01:29:00,14.5,7.1,30.23,WNW,294,19.0,32.0,72,0.00,,BKN043,0.00,VWS V14.01,2013-11-24 06:29:00,
2013-11-24 01:30:00,14.5,7.4,30.23,West,281,16.0,21.0,73,0.00,,BKN043,0.00,VWS V14.01,2013-11-24 06:30:00,
2013-11-24 01:31:00,14.5,7.4,30.23,West,261,27.0,27.0,73,0.00,,BKN043,0.00,VWS V14.01,2013-11-24 06:31:00,
2013-11-24 01:32:00,14.7,7.3,30.23,WNW,287,26.0,32.0,72,0.00,,BKN043,0.00,VWS V14.01,2013-11-24 06:32:00,
2013-11-24 01:33:00,14.5,7.1,30.23,West,278,14.0,27.0,72,0.00,,BKN043,0.00,VWS V14.01,2013-11-24 06:33:00,
2013-11-24 01:34:00,14.4,7.3,30.23,WNW,288,15.0,27.0,73,0.00,,BKN043,0.00,VWS V14.01,2013-11-24 06:34:00,
2013-11-24 01:36:00,14.4,7.0,30.23,NW,304,22.0,27.0,72,0.00,,BKN043,0.00,VWS V14.01,2013-11-24 06:36:00,
2013-11-24 01:37:00,14.5,7.1,30.23,WNW,296,17.0,32.0,72,0.00,,BKN043,0.00,VWS V14.01,2013-11-24 06:37:00,
2013-11-24 01:38:00,14.3,6.9,30.23,NW,312,11.0,27.0,72,0.00,,BKN043,0.00,VWS V14.01,2013-11-24 06:38:00,
2013-11-24 01:40:00,14.3,6.9,30.23,NW,304,14.0,24.0,72,0.00,,BKN043,0.00,VWS V14.01,2013-11-24 06:40:00,
2013-11-24 01:41:00,14.3,6.9,30.23,WNW,294,20.0,24.0,72,0.00,,BKN043,0.00,VWS V14.01,2013-11-24 06:41:00,
2013-11-24 01:42:00,14.5,7.1,30.23,NW,320,17.0,27.0,72,0.00,,BKN043,0.00,VWS V14.01,2013-11-24 06:42:00,
2013-11-24 01:43:00,14.4,7.0,30.23,WNW,282,22.0,27.0,72,0.00,,BKN043,0.00,VWS V14.01,2013-11-24 06:43:00,
2013-11-24 01:45:00,14.4,6.7,30.24,NNW,331,20.0,27.0,71,0.00,,BKN043,0.00,VWS V14.01,2013-11-24 06:45:00,
2013-11-24 01:46:00,14.4,6.7,30.24,NW,306,22.0,33.0,71,0.00,,BKN043,0.00,VWS V14.01,2013-11-24 06:46:00,
2013-11-24 01:47:00,14.4,7.0,30.23,NW,315,11.0,27.0,72,0.00,,BKN043,0.00,VWS V14.01,2013-11-24 06:47:00,
2013-11-24 01:48:00,14.3,6.6,30.24,WNW,300,16.0,33.0,71,0.00,,BKN043,0.00,VWS V14.01,2013-11-24 06:48:00,
2013-11-24 01:50:00,14.3,6.6,30.24,NW,317,21.0,23.0,71,0.00,,BKN043,0.00,VWS V14.01,2013-11-24 06:50:00,
2013-11-24 01:51:00,14.3,6.6,30.24,NW,304,17.0,23.0,71,0.00,,BKN043,0.00,VWS V14.01,2013-11-24 06:51:00,
2013-11-24 01:52:00,14.4,7.0,30.23,NW,306,12.0,25.0,72,0.00,,BKN043,0.00,VWS V14.01,2013-11-24 06:52:00,
2013-11-24 01:53:00,14.3,6.6,30.24,NW,306,23.0,30.0,71,0.00,,BKN029,0.00,VWS V14.01,2013-11-24 06:53:00,
2013-11-24 01:54:00,14.3,6.3,30.24,WNW,299,21.0,30.0,70,0.00,,BKN029,0.00,VWS V14.01,2013-11-24 06:54:00,
2013-11-24 01:55:00,14.3,6.3,30.24,West,281,25.0,30.0,70,0.00,,BKN029,0.00,VWS V14.01,2013-11-24 06:55:00,
2013-11-24 01:57:00,14.3,6.6,30.24,WNW,302,17.0,33.0,71,0.00,,BKN043,0.00,VWS V14.01,2013-11-24 06:57:00,
2013-11-24 01:58:00,14.3,6.3,30.24,NW,325,16.0,30.0,70,0.00,,BKN029,0.00,VWS V14.01,2013-11-24 06:58:00,
2013-11-24 01:59:00,14.2,6.2,30.24,WNW,287,19.0,30.0,70,0.00,,BKN029,0.00,VWS V14.01,2013-11-24 06:59:00,
2013-11-24 02:01:00,14.2,6.2,30.24,NW,306,13.0,29.0,70,0.00,,BKN029,0.00,VWS V14.01,2013-11-24 07:01:00,
2013-11-24 02:02:00,14.3,6.6,30.24,NNW,336,20.0,30.0,71,0.00,,BKN029,0.00,VWS V14.01,2013-11-24 07:02:00,
2013-11-24 02:03:00,14.2,6.2,30.24,NW,312,20.0,29.0,70,0.00,,BKN029,0.00,VWS V14.01,2013-11-24 07:03:00,
2013-11-24 02:04:00,14.2,6.2,30.24,WNW,298,16.0,29.0,70,0.00,,BKN029,0.00,VWS V14.01,2013-11-24 07:04:00,
2013-11-24 02:05:00,14.2,6.2,30.24,NW,323,25.0,29.0,70,0.00,,BKN029,0.00,VWS V14.01,2013-11-24 07:05:00,
2013-11-24 02:07:00,14.3,6.3,30.24,NW,318,15.0,30.0,70,0.00,,BKN029,0.00,VWS V14.01,2013-11-24 07:07:00,
2013-11-24 02:08:00,14.1,6.1,30.24,WNW,295,17.0,29.0,70,0.00,,BKN029,0.00,VWS V14.01,2013-11-24 07:08:00,
2013-11-24 02:09:00,14.0,6.0,30.24,WNW,289,15.0,29.0,70,0.00,,BKN029,0.00,VWS V14.01,2013-11-24 07:09:00,
2013-11-24 02:10:00,14.0,6.0,30.24,West,278,25.0,25.0,70,0.00,,BKN029,0.00,VWS V14.01,2013-11-24 07:10:00,
2013-11-24 02:12:00,14.2,6.2,30.24,WNW,301,21.0,29.0,70,0.00,,BKN029,0.00,VWS V14.01,2013-11-24 07:12:00,
2013-11-24 02:13:00,14.1,6.1,30.24,NW,315,13.0,33.0,70,0.00,,BKN029,0.00,VWS V14.01,2013-11-24 07:13:00,
2013-11-24 02:14:00,14.0,6.0,30.25,West,259,16.0,33.0,70,0.00,,BKN029,0.00,VWS V14.01,2013-11-24 07:14:00,
2013-11-24 02:15:00,14.0,6.0,30.25,West,275,15.0,33.0,70,0.00,,BKN029,0.00,VWS V14.01,2013-11-24 07:15:00,
2013-11-24 02:17:00,14.1,6.1,30.24,West,281,17.0,29.0,70,0.00,,BKN029,0.00,VWS V14.01,2013-11-24 07:17:00,
2013-11-24 02:18:00,14.0,6.0,30.25,WNW,296,19.0,33.0,70,0.00,,BKN029,0.00,VWS V14.01,2013-11-24 07:18:00,
2013-11-24 02:19:00,14.0,6.0,30.25,WNW,284,18.0,33.0,70,0.00,,BKN029,0.00,VWS V14.01,2013-11-24 07:19:00,
2013-11-24 02:21:00,14.0,6.0,30.25,NW,308,21.0,30.0,70,0.00,,BKN029,0.00,VWS V14.01,2013-11-24 07:21:00,
2013-11-24 02:22:00,14.1,6.1,30.24,WNW,302,14.0,33.0,70,0.00,,BKN029,0.00,VWS V14.01,2013-11-24 07:22:00,
2013-11-24 02:23:00,14.0,6.0,30.25,NW,314,18.0,30.0,70,0.00,,SCT027,0.00,VWS V14.01,2013-11-24 07:23:00,
2013-11-24 02:24:00,14.0,6.0,30.25,NW,307,18.0,30.0,70,0.00,,SCT027,0.00,VWS V14.01,2013-11-24 07:24:00,
2013-11-24 02:25:00,14.0,6.0,30.25,NW,305,14.0,30.0,70,0.00,,SCT027,0.00,VWS V14.01,2013-11-24 07:25:00,
2013-11-24 02:26:00,13.9,5.9,30.25,WNW,294,15.0,30.0,70,0.00,,SCT027,0.00,VWS V14.01,2013-11-24 07:26:00,
2013-11-24 02:27:00,14.0,6.0,30.25,West,276,14.0,33.0,70,0.00,,BKN029,0.00,VWS V14.01,2013-11-24 07:27:00,
2013-11-24 02:28:00,13.9,5.9,30.25,WNW,290,19.0,30.0,70,0.00,,SCT027,0.00,VWS V14.01,2013-11-24 07:28:00,
2013-11-24 02:30:00,13.9,5.9,30.25,NW,314,13.0,17.0,70,0.00,,SCT027,0.00,VWS V14.01,2013-11-24 07:30:00,
2013-11-24 02:32:00,14.0,6.0,30.25,WNW,282,16.0,30.0,70,0.00,,SCT027,0.00,VWS V14.01,2013-11-24 07:32:00,
2013-11-24 02:33:00,13.9,6.2,30.25,NNW,344,20.0,21.0,71,0.00,,SCT027,0.00,VWS V14.01,2013-11-24 07:33:00,
2013-11-24 02:34:00,13.9,6.2,30.25,NW,307,12.0,21.0,71,0.00,,SCT027,0.00,VWS V14.01,2013-11-24 07:34:00,
2013-11-24 02:36:00,13.8,6.2,30.25,WNW,296,19.0,21.0,71,0.00,,SCT027,0.00,VWS V14.01,2013-11-24 07:36:00,
2013-11-24 02:37:00,13.9,5.9,30.25,WNW,302,18.0,30.0,70,0.00,,SCT027,0.00,VWS V14.01,2013-11-24 07:37:00,
2013-11-24 02:38:00,13.9,6.2,30.25,NW,310,25.0,28.0,71,0.00,,SCT027,0.00,VWS V14.01,2013-11-24 07:38:00,
2013-11-24 02:39:00,14.0,6.3,30.25,NW,310,21.0,28.0,71,0.00,,SCT027,0.00,VWS V14.01,2013-11-24 07:39:00,
2013-11-24 02:40:00,14.0,6.3,30.25,NW,305,15.0,21.0,71,0.00,,SCT027,0.00,VWS V14.01,2013-11-24 07:40:00,
2013-11-24 02:42:00,13.8,6.2,30.25,WNW,290,16.0,21.0,71,0.00,,SCT027,0.00,VWS V14.01,2013-11-24 07:42:00,
2013-11-24 02:43:00,13.9,6.2,30.25,WNW,283,10.0,28.0,71,0.00,,SCT027,0.00,VWS V14.01,2013-11-24 07:43:00,
2013-11-24 02:44:00,13.9,6.2,30.26,WNW,299,20.0,29.0,71,0.00,,SCT027,0.00,VWS V14.01,2013-11-24 07:44:00,
2013-11-24 02:45:00,13.9,6.2,30.26,NNW,329,15.0,29.0,71,0.00,,SCT027,0.00,VWS V14.01,2013-11-24 07:45:00,
2013-11-24 02:47:00,13.9,6.2,30.25,NNW,331,25.0,28.0,71,0.00,,SCT027,0.00,VWS V14.01,2013-11-24 07:47:00,
2013-11-24 02:48:00,13.9,6.2,30.26,WNW,296,15.0,29.0,71,0.00,,SCT027,0.00,VWS V14.01,2013-11-24 07:48:00,
2013-11-24 02:49:00,13.8,6.2,30.26,NW,306,14.0,29.0,71,0.00,,SCT027,0.00,VWS V14.01,2013-11-24 07:49:00,
2013-11-24 02:50:00,13.8,6.2,30.26,West,279,10.0,17.0,71,0.00,,SCT027,0.00,VWS V14.01,2013-11-24 07:50:00,
2013-11-24 02:52:00,13.9,6.2,30.25,NW,305,12.0,28.0,71,0.00,,SCT027,0.00,VWS V14.01,2013-11-24 07:52:00,
2013-11-24 02:53:00,13.7,6.1,30.26,WNW,301,13.0,18.0,71,0.00,,BKN029,0.00,VWS V14.01,2013-11-24 07:53:00,
2013-11-24 02:54:00,13.7,6.1,30.26,NW,314,17.0,22.0,71,0.00,,BKN029,0.00,VWS V14.01,2013-11-24 07:54:00,
2013-11-24 02:56:00,13.7,6.1,30.26,WNW,297,25.0,26.0,71,0.00,,BKN029,0.00,VWS V14.01,2013-11-24 07:56:00,
2013-11-24 02:57:00,13.9,6.2,30.26,West,280,15.0,29.0,71,0.00,,SCT027,0.00,VWS V14.01,2013-11-24 07:57:00,
2013-11-24 02:58:00,13.8,6.2,30.26,NW,322,23.0,29.0,71,0.00,,BKN029,0.00,VWS V14.01,2013-11-24 07:58:00,
2013-11-24 03:01:00,13.8,6.2,30.26,NW,310,15.0,27.0,71,0.00,,BKN029,0.00,VWS V14.01,2013-11-24 08:01:00,
2013-11-24 03:02:00,13.7,6.1,30.26,NW,308,13.0,18.0,71,0.00,,BKN029,0.00,VWS V14.01,2013-11-24 08:02:00,
2013-11-24 03:03:00,13.8,6.2,30.26,WNW,296,20.0,27.0,71,0.00,,BKN029,0.00,VWS V14.01,2013-11-24 08:03:00,
2013-11-24 03:05:00,13.8,6.2,30.26,NW,319,13.0,27.0,71,0.00,,BKN029,0.00,VWS V14.01,2013-11-24 08:05:00,
2013-11-24 03:07:00,13.8,6.2,30.26,WNW,282,21.0,29.0,71,0.00,,BKN029,0.00,VWS V14.01,2013-11-24 08:07:00,
2013-11-24 03:08:00,13.7,6.1,30.26,NW,315,19.0,27.0,71,0.00,,BKN029,0.00,VWS V14.01,2013-11-24 08:08:00,
2013-11-24 03:10:00,13.7,6.4,30.26,NW,320,18.0,20.0,72,0.00,,BKN029,0.00,VWS V14.01,2013-11-24 08:10:00,
2013-11-24 03:12:00,13.8,6.2,30.26,WNW,303,21.0,27.0,71,0.00,,BKN029,0.00,VWS V14.01,2013-11-24 08:12:00,
2013-11-24 03:13:00,13.8,6.5,30.26,WNW,294,13.0,21.0,72,0.00,,BKN029,0.00,VWS V14.01,2013-11-24 08:13:00,
2013-11-24 03:14:00,13.7,6.4,30.27,WNW,299,12.0,21.0,72,0.00,,BKN029,0.00,VWS V14.01,2013-11-24 08:14:00,
2013-11-24 03:15:00,13.7,6.4,30.27,NW,321,23.0,23.0,72,0.00,,BKN029,0.00,VWS V14.01,2013-11-24 08:15:00,
2013-11-24 03:16:00,13.7,6.4,30.27,NW,321,21.0,25.0,72,0.00,,BKN029,0.00,VWS V14.01,2013-11-24 08:16:00,
2013-11-24 03:17:00,13.7,6.1,30.26,WNW,302,15.0,27.0,71,0.00,,BKN029,0.00,VWS V14.01,2013-11-24 08:17:00,
2013-11-24 03:18:00,13.7,6.7,30.27,NW,317,18.0,25.0,73,0.00,,BKN029,0.00,VWS V14.01,2013-11-24 08:18:00,
2013-11-24 03:19:00,13.7,6.7,30.27,West,277,14.0,25.0,73,0.00,,BKN029,0.00,VWS V14.01,2013-11-24 08:19:00,
2013-11-24 03:21:00,13.7,6.7,30.27,NW,311,12.0,17.0,73,0.00,,BKN029,0.00,VWS V14.01,2013-11-24 08:21:00,
2013-11-24 03:22:00,13.8,6.5,30.26,WNW,302,17.0,21.0,72,0.00,,BKN029,0.00,VWS V14.01,2013-11-24 08:22:00,
2013-11-24 03:23:00,13.6,6.6,30.27,WNW,284,12.0,17.0,73,0.00,,BKN031,0.00,VWS V14.01,2013-11-24 08:23:00,
2013-11-24 03:25:00,13.6,6.9,30.27,NW,310,17.0,22.0,74,0.00,,BKN031,0.00,VWS V14.01,2013-11-24 08:25:00,
2013-11-24 03:26:00,13.6,6.9,30.27,WNW,297,18.0,22.0,74,0.00,,BKN031,0.00,VWS V14.01,2013-11-24 08:26:00,
2013-11-24 03:27:00,13.7,6.4,30.27,WNW,303,19.0,25.0,72,0.00,,BKN029,0.00,VWS V14.01,2013-11-24 08:27:00,
2013-11-24 03:28:00,13.7,7.3,30.27,WNW,296,10.0,22.0,75,0.00,,BKN031,0.00,VWS V14.01,2013-11-24 08:28:00,
2013-11-24 03:29:00,13.6,9.1,30.26,West,275,13.0,22.0,82,0.00,,BKN031,0.00,VWS V14.01,2013-11-24 08:29:00,
2013-11-24 03:30:00,13.6,7.2,30.26,WNW,300,6.0,15.0,75,0.00,,BKN031,0.00,VWS V14.01,2013-11-24 08:30:00,
2013-11-24 03:31:00,13.6,7.2,30.26,WNW,298,19.0,19.0,75,0.00,,BKN031,0.00,VWS V14.01,2013-11-24 08:31:00,
2013-11-24 03:32:00,13.6,6.6,30.27,WNW,294,11.0,17.0,73,0.00,,BKN031,0.00,VWS V14.01,2013-11-24 08:32:00,
2013-11-24 03:33:00,13.6,7.5,30.26,West,277,12.0,19.0,76,0.00,,BKN031,0.00,VWS V14.01,2013-11-24 08:33:00,
2013-11-24 03:34:00,13.5,7.4,30.26,WNW,294,17.0,20.0,76,0.00,,BKN031,0.00,VWS V14.01,2013-11-24 08:34:00,
2013-11-24 03:35:00,13.5,7.4,30.26,WNW,284,12.0,22.0,76,0.00,,BKN031,0.00,VWS V14.01,2013-11-24 08:35:00,
2013-11-24 03:36:00,13.5,7.4,30.26,West,279,24.0,25.0,76,0.00,,BKN031,0.00,VWS V14.01,2013-11-24 08:36:00,
2013-11-24 03:37:00,13.7,7.3,30.27,WNW,291,10.0,22.0,75,0.00,,BKN031,0.00,VWS V14.01,2013-11-24 08:37:00,
2013-11-24 03:38:00,13.5,7.7,30.26,WNW,289,11.0,25.0,77,0.00,,BKN031,0.00,VWS V14.01,2013-11-24 08:38:00,
2013-11-24 03:39:00,13.5,7.7,30.26,West,278,14.0,25.0,77,0.00,,BKN031,0.00,VWS V14.01,2013-11-24 08:39:00,
2013-11-24 03:41:00,13.5,7.7,30.26,West,279,15.0,25.0,77,0.00,,BKN031,0.00,VWS V14.01,2013-11-24 08:41:00,
2013-11-24 03:42:00,13.5,7.4,30.26,West,261,12.0,19.0,76,0.00,,BKN031,0.00,VWS V14.01,2013-11-24 08:42:00,
2013-11-24 03:43:00,13.5,7.7,30.26,West,275,17.0,25.0,77,0.00,,BKN031,0.00,VWS V14.01,2013-11-24 08:43:00,
2013-11-24 03:44:00,13.4,7.8,30.26,WNW,286,16.0,25.0,78,0.00,,BKN031,0.00,VWS V14.01,2013-11-24 08:44:00,
2013-11-24 03:45:00,13.4,7.8,30.26,WSW,257,12.0,25.0,78,0.00,,BKN031,0.00,VWS V14.01,2013-11-24 08:45:00,
2013-11-24 03:47:00,13.5,7.7,30.26,West,276,14.0,25.0,77,0.00,,BKN031,0.00,VWS V14.01,2013-11-24 08:47:00,
2013-11-24 03:48:00,13.3,7.7,30.26,West,279,15.0,25.0,78,0.00,,BKN031,0.00,VWS V14.01,2013-11-24 08:48:00,
2013-11-24 03:49:00,13.3,7.7,30.26,WNW,291,15.0,25.0,78,0.00,,BKN031,0.00,VWS V14.01,2013-11-24 08:49:00,
2013-11-24 03:51:00,13.3,8.0,30.26,WNW,296,12.0,25.0,79,0.00,,BKN031,0.00,VWS V14.01,2013-11-24 08:51:00,
2013-11-24 03:52:00,13.5,7.7,30.26,WNW,286,20.0,25.0,77,0.00,,BKN031,0.00,VWS V14.01,2013-11-24 08:52:00,
2013-11-24 03:53:00,13.3,8.0,30.26,WNW,300,11.0,25.0,79,0.00,,OVC028,0.00,VWS V14.01,2013-11-24 08:53:00,
2013-11-24 03:55:00,13.2,7.9,30.26,WNW,302,12.0,25.0,79,0.00,,OVC028,0.00,VWS V14.01,2013-11-24 08:55:00,
2013-11-24 03:56:00,13.2,7.9,30.26,WNW,290,20.0,25.0,79,0.00,,OVC028,0.00,VWS V14.01,2013-11-24 08:56:00,
2013-11-24 03:57:00,13.3,7.7,30.26,WNW,288,13.0,25.0,78,0.00,,BKN031,0.00,VWS V14.01,2013-11-24 08:57:00,
2013-11-24 03:58:00,13.1,7.8,30.26,NW,309,20.0,25.0,79,0.00,,OVC028,0.00,VWS V14.01,2013-11-24 08:58:00,
2013-11-24 04:00:00,13.1,8.1,30.27,NW,308,12.0,15.0,80,0.00,,OVC028,0.00,VWS V14.01,2013-11-24 09:00:00,
2013-11-24 04:01:00,13.1,8.1,30.27,NW,306,14.0,16.0,80,0.00,,OVC028,0.00,VWS V14.01,2013-11-24 09:01:00,
2013-11-24 04:02:00,13.3,8.0,30.26,WNW,294,13.0,25.0,79,0.00,,OVC028,0.00,VWS V14.01,2013-11-24 09:02:00,
2013-11-24 04:04:00,13.1,8.1,30.27,WNW,301,14.0,22.0,80,0.00,,OVC028,0.00,VWS V14.01,2013-11-24 09:04:00,
2013-11-24 04:05:00,13.1,8.1,30.27,WNW,300,20.0,24.0,80,0.00,,OVC028,0.00,VWS V14.01,2013-11-24 09:05:00,
2013-11-24 04:06:00,13.0,8.0,30.27,West,280,13.0,24.0,80,0.00,,OVC028,0.00,VWS V14.01,2013-11-24 09:06:00,
2013-11-24 04:07:00,13.1,7.8,30.26,WNW,288,21.0,25.0,79,0.00,,OVC028,0.00,VWS V14.01,2013-11-24 09:07:00,
2013-11-24 04:08:00,13.0,8.0,30.27,NW,309,15.0,24.0,80,0.00,,OVC028,0.00,VWS V14.01,2013-11-24 09:08:00,
2013-11-24 04:09:00,13.0,8.0,30.27,West,279,21.0,26.0,80,0.00,,OVC028,0.00,VWS V14.01,2013-11-24 09:09:00,
2013-11-24 04:10:00,13.0,8.3,30.27,NW,324,16.0,20.0,81,0.00,,OVC028,0.00,VWS V14.01,2013-11-24 09:10:00,
2013-11-24 04:11:00,13.0,8.3,30.27,WNW,295,10.0,20.0,81,0.00,,OVC028,0.00,VWS V14.01,2013-11-24 09:11:00,
2013-11-24 04:13:00,13.1,8.1,30.27,WNW,292,19.0,20.0,80,0.00,,OVC028,0.00,VWS V14.01,2013-11-24 09:13:00,
2013-11-24 04:14:00,12.9,8.2,30.27,WNW,299,8.0,20.0,81,0.00,,OVC028,0.00,VWS V14.01,2013-11-24 09:14:00,
2013-11-24 04:15:00,12.9,8.2,30.27,WNW,296,12.0,20.0,81,0.00,,OVC028,0.00,VWS V14.01,2013-11-24 09:15:00,
2013-11-24 04:17:00,12.9,8.2,30.27,WSW,255,18.0,21.0,81,0.00,,OVC028,0.00,VWS V14.01,2013-11-24 09:17:00,
2013-11-24 04:18:00,13.0,8.0,30.27,WNW,298,16.0,24.0,80,0.00,,OVC028,0.00,VWS V14.01,2013-11-24 09:18:00,
2013-11-24 04:19:00,12.9,8.2,30.27,WNW,290,20.0,26.0,81,0.00,,OVC028,0.00,VWS V14.01,2013-11-24 09:19:00,
2013-11-24 04:20:00,13.0,8.3,30.27,WNW,296,13.0,27.0,81,0.00,,OVC028,0.00,VWS V14.01,2013-11-24 09:20:00,
2013-11-24 04:21:00,13.0,8.3,30.27,West,269,15.0,27.0,81,0.00,,OVC028,0.00,VWS V14.01,2013-11-24 09:21:00,
2013-11-24 04:22:00,13.0,8.3,30.27,WNW,296,14.0,27.0,81,0.00,,OVC028,0.00,VWS V14.01,2013-11-24 09:22:00,
2013-11-24 04:23:00,13.0,8.3,30.27,WNW,294,12.0,20.0,81,0.00,,OVC028,0.00,VWS V14.01,2013-11-24 09:23:00,
2013-11-24 04:24:00,13.0,8.3,30.27,West,281,26.0,27.0,81,0.00,,OVC027,0.00,VWS V14.01,2013-11-24 09:24:00,
2013-11-24 04:25:00,13.0,8.3,30.27,WSW,257,18.0,27.0,81,0.00,,OVC027,0.00,VWS V14.01,2013-11-24 09:25:00,
2013-11-24 04:26:00,13.0,8.3,30.27,NW,306,15.0,27.0,81,0.00,,OVC027,0.00,VWS V14.01,2013-11-24 09:26:00,
2013-11-24 04:27:00,13.0,8.3,30.27,West,281,17.0,27.0,81,0.00,,OVC027,0.00,VWS V14.01,2013-11-24 09:27:00,
2013-11-24 04:28:00,12.9,8.2,30.27,WNW,291,17.0,26.0,81,0.00,,OVC028,0.00,VWS V14.01,2013-11-24 09:28:00,
2013-11-24 04:30:00,13.0,8.3,30.29,WNW,284,13.0,23.0,81,0.00,,OVC027,0.00,VWS V14.01,2013-11-24 09:30:00,
2013-11-24 04:31:00,13.0,8.3,30.29,West,264,9.0,23.0,81,0.00,,OVC027,0.00,VWS V14.01,2013-11-24 09:31:00,
2013-11-24 04:32:00,13.0,8.3,30.29,WNW,296,16.0,23.0,81,0.00,,OVC027,0.00,VWS V14.01,2013-11-24 09:32:00,
2013-11-24 04:33:00,13.0,8.3,30.27,NW,304,21.0,27.0,81,0.00,,OVC027,0.00,VWS V14.01,2013-11-24 09:33:00,
2013-11-24 04:35:00,13.0,8.6,30.29,WNW,295,17.0,23.0,82,0.00,,OVC027,0.00,VWS V14.01,2013-11-24 09:35:00,
2013-11-24 04:36:00,13.0,8.6,30.29,West,281,19.0,23.0,82,0.00,,OVC027,0.00,VWS V14.01,2013-11-24 09:36:00,
2013-11-24 04:37:00,13.0,8.6,30.29,NW,315,17.0,25.0,82,0.00,,OVC027,0.00,VWS V14.01,2013-11-24 09:37:00,
2013-11-24 04:38:00,13.0,8.3,30.27,NW,321,12.0,27.0,81,0.00,,OVC027,0.00,VWS V14.01,2013-11-24 09:38:00,
2013-11-24 04:39:00,13.1,8.6,30.29,West,277,17.0,25.0,82,0.00,,OVC027,0.00,VWS V14.01,2013-11-24 09:39:00,
2013-11-24 04:40:00,13.1,8.6,30.29,WNW,298,16.0,17.0,82,0.00,,OVC027,0.00,VWS V14.01,2013-11-24 09:40:00,
2013-11-24 04:41:00,13.1,8.6,30.29,West,265,13.0,18.0,82,0.00,,OVC027,0.00,VWS V14.01,2013-11-24 09:41:00,
2013-11-24 04:43:00,13.0,8.6,30.29,NW,316,15.0,23.0,82,0.00,,OVC027,0.00,VWS V14.01,2013-11-24 09:43:00,
2013-11-24 04:44:00,13.0,8.6,30.29,NW,322,12.0,23.0,82,0.00,,OVC027,0.00,VWS V14.01,2013-11-24 09:44:00,
2013-11-24 04:45:00,13.1,8.6,30.29,NW,308,14.0,23.0,82,0.00,,OVC027,0.00,VWS V14.01,2013-11-24 09:45:00,
2013-11-24 04:46:00,13.0,8.6,30.29,WNW,286,10.0,23.0,82,0.00,,OVC027,0.00,VWS V14.01,2013-11-24 09:46:00,
2013-11-24 04:48:00,13.0,8.6,30.29,West,279,16.0,25.0,82,0.00,,OVC027,0.00,VWS V14.01,2013-11-24 09:48:00,
2013-11-24 04:49:00,13.0,8.6,30.29,West,269,13.0,23.0,82,0.00,,OVC027,0.00,VWS V14.01,2013-11-24 09:49:00,
2013-11-24 04:50:00,13.0,8.6,30.29,WNW,291,14.0,20.0,82,0.00,,OVC027,0.00,VWS V14.01,2013-11-24 09:50:00,
2013-11-24 04:51:00,13.0,8.6,30.29,WNW,292,16.0,20.0,82,0.00,,OVC027,0.00,VWS V14.01,2013-11-24 09:51:00,
2013-11-24 04:53:00,13.1,8.6,30.29,WNW,290,14.0,23.0,82,0.00,,OVC027,0.00,VWS V14.01,2013-11-24 09:53:00,
2013-11-24 04:54:00,13.0,8.6,30.29,NW,306,17.0,23.0,82,0.00,,OVC027,0.00,VWS V14.01,2013-11-24 09:54:00,
2013-11-24 04:55:00,13.0,8.6,30.29,West,281,11.0,23.0,82,0.00,,OVC027,0.00,VWS V14.01,2013-11-24 09:55:00,
2013-11-24 04:57:00,12.9,8.4,30.29,WNW,300,14.0,23.0,82,0.00,,OVC027,0.00,VWS V14.01,2013-11-24 09:57:00,
2013-11-24 04:58:00,13.0,8.6,30.29,NW,308,15.0,23.0,82,0.00,,OVC027,0.00,VWS V14.01,2013-11-24 09:58:00,
2013-11-24 04:59:00,12.9,8.4,30.29,NW,315,19.0,23.0,82,0.00,,OVC027,0.00,VWS V14.01,2013-11-24 09:59:00,
2013-11-24 05:02:00,12.8,8.4,30.29,NW,317,11.0,21.0,82,0.00,,OVC027,0.00,VWS V14.01,2013-11-24 10:02:00,
2013-11-24 05:03:00,13.0,8.6,30.29,West,262,14.0,23.0,82,0.00,,OVC027,0.00,VWS V14.01,2013-11-24 10:03:00,
2013-11-24 05:04:00,12.8,8.4,30.29,NW,306,10.0,24.0,82,0.00,,OVC027,0.00,VWS V14.01,2013-11-24 10:04:00,
2013-11-24 05:06:00,12.7,8.3,30.29,WNW,292,22.0,25.0,82,0.00,,OVC027,0.00,VWS V14.01,2013-11-24 10:06:00,
2013-11-24 05:07:00,12.8,8.4,30.29,WNW,295,15.0,25.0,82,0.00,,OVC027,0.00,VWS V14.01,2013-11-24 10:07:00,
2013-11-24 05:08:00,12.9,8.4,30.29,WNW,302,8.0,23.0,82,0.00,,OVC027,0.00,VWS V14.01,2013-11-24 10:08:00,
2013-11-24 05:09:00,12.7,8.3,30.29,WNW,292,10.0,25.0,82,0.00,,OVC027,0.00,VWS V14.01,2013-11-24 10:09:00,
2013-11-24 05:11:00,12.7,8.3,30.29,WNW,292,17.0,19.0,82,0.00,,OVC027,0.00,VWS V14.01,2013-11-24 10:11:00,
2013-11-24 05:12:00,12.7,8.3,30.29,WNW,285,17.0,24.0,82,0.00,,OVC027,0.00,VWS V14.01,2013-11-24 10:12:00,
2013-11-24 05:13:00,12.8,8.4,30.29,WNW,298,18.0,24.0,82,0.00,,OVC027,0.00,VWS V14.01,2013-11-24 10:13:00,
2013-11-24 05:15:00,12.6,8.2,30.31,WNW,299,17.0,24.0,82,0.00,,OVC027,0.00,VWS V14.01,2013-11-24 10:15:00,
2013-11-24 05:16:00,12.6,8.2,30.31,West,279,15.0,24.0,82,0.00,,OVC027,0.00,VWS V14.01,2013-11-24 10:16:00,
2013-11-24 05:17:00,12.6,8.2,30.31,WNW,295,16.0,24.0,82,0.00,,OVC027,0.00,VWS V14.01,2013-11-24 10:17:00,
2013-11-24 05:18:00,12.7,8.3,30.29,WNW,284,17.0,25.0,82,0.00,,OVC027,0.00,VWS V14.01,2013-11-24 10:18:00,
2013-11-24 05:19:00,12.6,8.2,30.31,WNW,298,14.0,24.0,82,0.00,,OVC027,0.00,VWS V14.01,2013-11-24 10:19:00,
2013-11-24 05:20:00,12.5,8.1,30.31,WNW,300,13.0,15.0,82,0.00,,OVC027,0.00,VWS V14.01,2013-11-24 10:20:00,
2013-11-24 05:21:00,12.5,8.1,30.31,WNW,294,20.0,20.0,82,0.00,,OVC027,0.00,VWS V14.01,2013-11-24 10:21:00,
2013-11-24 05:22:00,12.5,8.1,30.31,WNW,290,12.0,21.0,82,0.00,,OVC027,0.00,VWS V14.01,2013-11-24 10:22:00,
2013-11-24 05:23:00,12.7,8.3,30.31,WNW,289,15.0,24.0,82,0.00,,OVC027,0.00,VWS V14.01,2013-11-24 10:23:00,
2013-11-24 05:24:00,12.5,8.1,30.31,WNW,288,18.0,21.0,82,0.00,,OVC027,0.00,VWS V14.01,2013-11-24 10:24:00,
2013-11-24 05:26:00,12.5,8.1,30.31,West,277,9.0,22.0,82,0.00,,OVC027,0.00,VWS V14.01,2013-11-24 10:26:00,
2013-11-24 05:27:00,12.5,8.1,30.31,West,279,21.0,22.0,82,0.00,,OVC027,0.00,VWS V14.01,2013-11-24 10:27:00,
2013-11-24 05:28:00,12.6,8.2,30.31,NW,325,15.0,24.0,82,0.00,,OVC027,0.00,VWS V14.01,2013-11-24 10:28:00,
2013-11-24 05:29:00,12.5,8.1,30.31,WNW,299,16.0,23.0,82,0.00,,OVC027,0.00,VWS V14.01,2013-11-24 10:29:00,
2013-11-24 05:30:00,12.4,8.0,30.31,WNW,294,12.0,15.0,82,0.00,,OVC027,0.00,VWS V14.01,2013-11-24 10:30:00,
2013-11-24 05:31:00,12.4,8.0,30.31,West,275,20.0,20.0,82,0.00,,OVC027,0.00,VWS V14.01,2013-11-24 10:31:00,
2013-11-24 05:32:00,12.4,8.0,30.31,WNW,282,20.0,22.0,82,0.00,,OVC027,0.00,VWS V14.01,2013-11-24 10:32:00,
2013-11-24 05:33:00,12.5,8.1,30.31,NW,310,19.0,21.0,82,0.00,,OVC027,0.00,VWS V14.01,2013-11-24 10:33:00,
2013-11-24 05:34:00,12.5,8.1,30.31,NW,317,11.0,22.0,82,0.00,,OVC027,0.00,VWS V14.01,2013-11-24 10:34:00,
2013-11-24 05:35:00,12.4,8.0,30.31,WNW,298,18.0,23.0,82,0.00,,OVC027,0.00,VWS V14.01,2013-11-24 10:35:00,
2013-11-24 05:36:00,12.4,8.0,30.31,West,274,15.0,23.0,82,0.00,,OVC027,0.00,VWS V14.01,2013-11-24 10:36:00,
2013-11-24 05:38:00,12.5,8.1,30.31,NW,310,18.0,23.0,82,0.00,,OVC027,0.00,VWS V14.01,2013-11-24 10:38:00,
2013-11-24 05:39:00,12.4,8.0,30.31,WNW,289,11.0,23.0,82,0.00,,OVC027,0.00,VWS V14.01,2013-11-24 10:39:00,
2013-11-24 05:40:00,12.3,7.9,30.31,NW,318,19.0,19.0,82,0.00,,OVC027,0.00,VWS V14.01,2013-11-24 10:40:00,
2013-11-24 05:42:00,12.3,7.9,30.31,WSW,258,9.0,19.0,82,0.00,,OVC027,0.00,VWS V14.01,2013-11-24 10:42:00,
2013-11-24 05:43:00,12.5,8.1,30.31,WNW,291,14.0,22.0,82,0.00,,OVC027,0.00,VWS V14.01,2013-11-24 10:43:00,
2013-11-24 05:44:00,12.3,7.9,30.31,West,279,12.0,19.0,82,0.00,,OVC027,0.00,VWS V14.01,2013-11-24 10:44:00,
2013-11-24 05:45:00,12.3,7.9,30.31,West,276,17.0,19.0,82,0.00,,OVC027,0.00,VWS V14.01,2013-11-24 10:45:00,
2013-11-24 05:47:00,12.2,7.8,30.31,WNW,285,14.0,20.0,82,0.00,,OVC027,0.00,VWS V14.01,2013-11-24 10:47:00,
2013-11-24 05:48:00,12.4,8.0,30.31,West,275,11.0,23.0,82,0.00,,OVC027,0.00,VWS V14.01,2013-11-24 10:48:00,
2013-11-24 05:49:00,12.2,7.8,30.31,WSW,254,9.0,20.0,82,0.00,,OVC027,0.00,VWS V14.01,2013-11-24 10:49:00,
2013-11-24 05:50:00,12.2,7.8,30.31,WNW,288,18.0,23.0,82,0.00,,OVC027,0.00,VWS V14.01,2013-11-24 10:50:00,
2013-11-24 05:51:00,12.3,7.9,30.31,WNW,298,11.0,23.0,82,0.00,,OVC027,0.00,VWS V14.01,2013-11-24 10:51:00,
2013-11-24 05:52:00,12.3,7.9,30.31,West,275,15.0,23.0,82,0.00,,OVC027,0.00,VWS V14.01,2013-11-24 10:52:00,
2013-11-24 05:53:00,12.3,7.9,30.31,WNW,300,13.0,19.0,82,0.00,,OVC027,0.00,VWS V14.01,2013-11-24 10:53:00,
2013-11-24 05:54:00,12.3,7.9,30.31,West,272,15.0,25.0,82,0.00,,OVC027,0.00,VWS V14.01,2013-11-24 10:54:00,
2013-11-24 05:55:00,12.3,7.9,30.31,NW,311,15.0,25.0,82,0.00,,OVC027,0.00,VWS V14.01,2013-11-24 10:55:00,
2013-11-24 05:56:00,12.3,7.9,30.31,WNW,298,13.0,25.0,82,0.00,,OVC027,0.00,VWS V14.01,2013-11-24 10:56:00,
2013-11-24 05:57:00,12.3,7.9,30.31,West,275,22.0,25.0,82,0.00,,OVC027,0.00,VWS V14.01,2013-11-24 10:57:00,
2013-11-24 05:58:00,12.2,7.8,30.31,WNW,294,12.0,20.0,82,0.00,,OVC027,0.00,VWS V14.01,2013-11-24 10:58:00,
2013-11-24 05:59:00,12.2,7.8,30.32,WNW,286,12.0,25.0,82,0.00,,OVC027,0.00,VWS V14.01,2013-11-24 10:59:00,
2013-11-24 06:00:00,12.2,7.8,30.32,NW,307,16.0,16.0,82,0.00,,OVC027,0.00,VWS V14.01,2013-11-24 11:00:00,
2013-11-24 06:01:00,12.2,7.8,30.32,WNW,286,13.0,21.0,82,0.00,,OVC027,0.00,VWS V14.01,2013-11-24 11:01:00,
2013-11-24 06:02:00,12.2,7.8,30.32,WNW,301,15.0,21.0,82,0.00,,OVC027,0.00,VWS V14.01,2013-11-24 11:02:00,
2013-11-24 06:03:00,12.2,7.8,30.31,WNW,291,24.0,25.0,82,0.00,,OVC027,0.00,VWS V14.01,2013-11-24 11:03:00,
2013-11-24 06:05:00,12.2,7.8,30.32,West,265,12.0,21.0,82,0.00,,OVC027,0.00,VWS V14.01,2013-11-24 11:05:00,
2013-11-24 06:06:00,12.1,7.7,30.32,WNW,292,15.0,21.0,82,0.00,,OVC027,0.00,VWS V14.01,2013-11-24 11:06:00,
2013-11-24 06:07:00,12.1,7.7,30.32,WNW,295,15.0,21.0,82,0.00,,OVC027,0.00,VWS V14.01,2013-11-24 11:07:00,
2013-11-24 06:08:00,12.3,7.9,30.32,WNW,300,11.0,25.0,82,0.00,,OVC027,0.00,VWS V14.01,2013-11-24 11:08:00,
2013-11-24 06:09:00,12.1,7.7,30.32,WNW,296,12.0,21.0,82,0.00,,OVC027,0.00,VWS V14.01,2013-11-24 11:09:00,
2013-11-24 06:10:00,12.1,7.7,30.32,WNW,302,14.0,16.0,82,0.00,,OVC027,0.00,VWS V14.01,2013-11-24 11:10:00,
2013-11-24 06:11:00,12.0,7.6,30.32,WNW,296,13.0,22.0,82,0.00,,OVC027,0.00,VWS V14.01,2013-11-24 11:11:00,
2013-11-24 06:13:00,12.2,7.8,30.32,West,277,18.0,21.0,82,0.00,,OVC027,0.00,VWS V14.01,2013-11-24 11:13:00,
2013-11-24 06:14:00,12.1,7.7,30.33,West,269,19.0,22.0,82,0.00,,OVC027,0.00,VWS V14.01,2013-11-24 11:14:00,
2013-11-24 06:15:00,12.1,7.7,30.33,WNW,302,13.0,22.0,82,0.00,,OVC027,0.00,VWS V14.01,2013-11-24 11:15:00,
2013-11-24 06:16:00,12.1,7.7,30.33,WNW,293,11.0,22.0,82,0.00,,OVC027,0.00,VWS V14.01,2013-11-24 11:16:00,
2013-11-24 06:17:00,12.1,7.7,30.33,West,280,16.0,23.0,82,0.00,,OVC027,0.00,VWS V14.01,2013-11-24 11:17:00,
2013-11-24 06:18:00,12.2,7.8,30.32,West,276,11.0,21.0,82,0.00,,OVC027,0.00,VWS V14.01,2013-11-24 11:18:00,
2013-11-24 06:19:00,12.1,7.7,30.33,WNW,282,15.0,23.0,82,0.00,,OVC027,0.00,VWS V14.01,2013-11-24 11:19:00,
2013-11-24 06:20:00,12.1,7.7,30.33,WNW,283,12.0,15.0,82,0.00,,OVC027,0.00,VWS V14.01,2013-11-24 11:20:00,
2013-11-24 06:22:00,12.0,7.6,30.33,West,280,13.0,19.0,82,0.00,,OVC027,0.00,VWS V14.01,2013-11-24 11:22:00,
2013-11-24 06:23:00,12.1,7.7,30.33,WNW,297,12.0,22.0,82,0.00,,OVC027,0.00,VWS V14.01,2013-11-24 11:23:00,
2013-11-24 06:24:00,12.0,7.6,30.33,WNW,292,19.0,20.0,82,0.00,,OVC025,0.00,VWS V14.01,2013-11-24 11:24:00,
2013-11-24 06:25:00,12.1,7.7,30.33,West,281,16.0,20.0,82,0.00,,OVC025,0.00,VWS V14.01,2013-11-24 11:25:00,
2013-11-24 06:26:00,12.1,7.7,30.33,WNW,296,15.0,20.0,82,0.00,,OVC025,0.00,VWS V14.01,2013-11-24 11:26:00,
2013-11-24 06:27:00,12.1,7.7,30.33,WNW,294,14.0,20.0,82,0.00,,OVC025,0.00,VWS V14.01,2013-11-24 11:27:00,
2013-11-24 06:28:00,12.1,7.7,30.33,WNW,299,14.0,23.0,82,0.00,,OVC027,0.00,VWS V14.01,2013-11-24 11:28:00,
2013-11-24 06:31:00,12.0,7.6,30.34,WNW,284,13.0,15.0,82,0.00,,OVC025,0.00,VWS V14.01,2013-11-24 11:31:00,
2013-11-24 06:32:00,12.0,7.6,30.34,West,262,13.0,23.0,82,0.00,,OVC025,0.00,VWS V14.01,2013-11-24 11:32:00,
2013-11-24 06:33:00,12.0,7.6,30.33,NW,305,17.0,19.0,82,0.00,,OVC025,0.00,VWS V14.01,2013-11-24 11:33:00,
2013-11-24 06:34:00,11.9,7.5,30.34,WNW,286,21.0,23.0,82,0.00,,OVC025,0.00,VWS V14.01,2013-11-24 11:34:00,
2013-11-24 06:35:00,12.0,7.6,30.34,WNW,284,23.0,23.0,82,0.00,,OVC025,0.00,VWS V14.01,2013-11-24 11:35:00,
2013-11-24 06:36:00,12.1,7.7,30.34,WNW,287,16.0,23.0,82,0.00,,OVC025,0.00,VWS V14.01,2013-11-24 11:36:00,
2013-11-24 06:37:00,12.1,7.7,30.34,WNW,294,14.0,23.0,82,0.00,,OVC025,0.00,VWS V14.01,2013-11-24 11:37:00,
2013-11-24 06:38:00,12.0,7.6,30.34,WNW,294,13.0,20.0,82,0.00,,OVC025,0.00,VWS V14.01,2013-11-24 11:38:00,
2013-11-24 06:39:00,12.0,7.6,30.34,WNW,284,10.0,23.0,82,0.00,,OVC025,0.00,VWS V14.01,2013-11-24 11:39:00,
2013-11-24 06:40:00,12.0,7.6,30.34,WNW,294,14.0,16.0,82,0.00,,OVC025,0.00,VWS V14.01,2013-11-24 11:40:00,
2013-11-24 06:41:00,11.9,7.5,30.34,West,276,15.0,17.0,82,0.00,,OVC025,0.00,VWS V14.01,2013-11-24 11:41:00,
2013-11-24 06:43:00,12.0,7.6,30.34,West,276,14.0,23.0,82,0.00,,OVC025,0.00,VWS V14.01,2013-11-24 11:43:00,
2013-11-24 06:44:00,11.9,7.5,30.35,WNW,298,13.0,20.0,82,0.00,,OVC025,0.00,VWS V14.01,2013-11-24 11:44:00,
2013-11-24 06:45:00,11.9,7.5,30.35,West,277,13.0,20.0,82,0.00,,OVC025,0.00,VWS V14.01,2013-11-24 11:45:00,
2013-11-24 06:46:00,11.9,7.5,30.35,WNW,300,13.0,20.0,82,0.00,,OVC025,0.00,VWS V14.01,2013-11-24 11:46:00,
2013-11-24 06:47:00,11.9,7.5,30.35,West,279,13.0,20.0,82,0.00,,OVC025,0.00,VWS V14.01,2013-11-24 11:47:00,
2013-11-24 06:48:00,12.0,7.6,30.34,WNW,291,11.0,23.0,82,0.00,,OVC025,0.00,VWS V14.01,2013-11-24 11:48:00,
2013-11-24 06:49:00,11.8,7.4,30.35,WNW,286,22.0,24.0,82,0.00,,OVC025,0.00,VWS V14.01,2013-11-24 11:49:00,
2013-11-24 06:51:00,11.9,7.5,30.35,West,259,14.0,21.0,82,0.00,,OVC025,0.00,VWS V14.01,2013-11-24 11:51:00,
2013-11-24 06:52:00,11.9,7.5,30.35,WNW,287,20.0,21.0,82,0.00,,OVC025,0.00,VWS V14.01,2013-11-24 11:52:00,
2013-11-24 06:53:00,12.0,7.6,30.35,NW,319,14.0,20.0,82,0.00,,OVC025,0.00,VWS V14.01,2013-11-24 11:53:00,
2013-11-24 06:54:00,11.9,7.5,30.35,WNW,286,13.0,21.0,82,0.00,,OVC025,0.00,VWS V14.01,2013-11-24 11:54:00,
2013-11-24 06:55:00,11.9,7.5,30.35,WNW,298,16.0,21.0,82,0.00,,OVC025,0.00,VWS V14.01,2013-11-24 11:55:00,
2013-11-24 06:56:00,11.8,7.4,30.35,WNW,287,16.0,21.0,82,0.00,,OVC025,0.00,VWS V14.01,2013-11-24 11:56:00,
2013-11-24 06:57:00,11.8,7.4,30.35,WNW,296,15.0,21.0,82,0.00,,OVC025,0.00,VWS V14.01,2013-11-24 11:57:00,
2013-11-24 06:58:00,11.8,7.4,30.35,West,272,12.0,20.0,82,0.00,,OVC025,0.00,VWS V14.01,2013-11-24 11:58:00,
2013-11-24 06:59:00,11.8,7.4,30.36,WNW,292,12.0,21.0,82,0.00,,OVC025,0.00,VWS V14.01,2013-11-24 11:59:00,
2013-11-24 07:00:00,11.8,7.4,30.36,WNW,290,17.0,18.0,82,0.00,,OVC025,0.00,VWS V14.01,2013-11-24 12:00:00,
2013-11-24 07:01:00,11.8,7.4,30.36,WNW,292,12.0,18.0,82,0.00,,OVC025,0.00,VWS V14.01,2013-11-24 12:01:00,
2013-11-24 07:02:00,11.8,7.4,30.36,NW,311,16.0,19.0,82,0.00,,OVC025,0.00,VWS V14.01,2013-11-24 12:02:00,
2013-11-24 07:03:00,11.9,7.5,30.35,West,279,11.0,21.0,82,0.00,,OVC025,0.00,VWS V14.01,2013-11-24 12:03:00,
2013-11-24 07:05:00,11.8,7.4,30.36,WNW,294,15.0,24.0,82,0.00,,OVC025,0.00,VWS V14.01,2013-11-24 12:05:00,
2013-11-24 07:06:00,11.8,7.4,30.36,WNW,303,18.0,24.0,82,0.00,,OVC025,0.00,VWS V14.01,2013-11-24 12:06:00,
2013-11-24 07:07:00,11.8,7.4,30.36,WNW,303,14.0,24.0,82,0.00,,OVC025,0.00,VWS V14.01,2013-11-24 12:07:00,
2013-11-24 07:08:00,11.9,7.5,30.36,West,268,15.0,21.0,82,0.00,,OVC025,0.00,VWS V14.01,2013-11-24 12:08:00,
2013-11-24 07:09:00,11.8,7.4,30.36,West,279,16.0,24.0,82,0.00,,OVC025,0.00,VWS V14.01,2013-11-24 12:09:00,
2013-11-24 07:10:00,11.8,7.4,30.36,West,281,19.0,21.0,82,0.00,,OVC025,0.00,VWS V14.01,2013-11-24 12:10:00,
2013-11-24 07:11:00,11.8,7.4,30.36,WNW,296,25.0,25.0,82,0.00,,OVC025,0.00,VWS V14.01,2013-11-24 12:11:00,
2013-11-24 07:12:00,11.9,7.5,30.36,WNW,295,10.0,25.0,82,0.00,,OVC025,0.00,VWS V14.01,2013-11-24 12:12:00,
2013-11-24 07:13:00,11.8,7.4,30.36,WNW,297,12.0,19.0,82,0.00,,OVC025,0.00,VWS V14.01,2013-11-24 12:13:00,
2013-11-24 07:14:00,11.9,7.5,30.36,WNW,298,17.0,25.0,82,0.00,,OVC025,0.00,VWS V14.01,2013-11-24 12:14:00,
2013-11-24 07:15:00,12.0,7.6,30.36,WNW,301,16.0,25.0,82,0.00,,OVC025,0.00,VWS V14.01,2013-11-24 12:15:00,
2013-11-24 07:16:00,11.9,7.5,30.36,NW,305,17.0,25.0,82,0.00,,OVC025,0.00,VWS V14.01,2013-11-24 12:16:00,
2013-11-24 07:17:00,12.0,7.6,30.36,WNW,287,13.0,25.0,82,0.00,,OVC025,0.00,VWS V14.01,2013-11-24 12:17:00,
2013-11-24 07:18:00,11.9,7.5,30.36,WNW,299,9.0,24.0,82,0.00,,OVC025,0.00,VWS V14.01,2013-11-24 12:18:00,
2013-11-24 07:19:00,11.9,7.5,30.36,WNW,290,8.0,25.0,82,0.00,,OVC025,0.00,VWS V14.01,2013-11-24 12:19:00,
2013-11-24 07:20:00,11.9,7.5,30.36,West,261,23.0,23.0,82,0.00,,OVC025,0.00,VWS V14.01,2013-11-24 12:20:00,
2013-11-24 07:21:00,11.9,7.5,30.36,WNW,301,20.0,23.0,82,0.00,,OVC025,0.00,VWS V14.01,2013-11-24 12:21:00,
2013-11-24 07:22:00,12.0,7.6,30.36,NW,323,20.0,24.0,82,0.00,,OVC025,0.00,VWS V14.01,2013-11-24 12:22:00,
2013-11-24 07:23:00,11.9,7.5,30.36,WNW,282,19.0,25.0,82,0.00,,OVC025,0.00,VWS V14.01,2013-11-24 12:23:00,
2013-11-24 07:24:00,12.0,7.3,30.36,NNW,332,16.0,24.0,81,0.00,,,0.00,VWS V14.01,2013-11-24 12:24:00,
2013-11-24 07:25:00,12.0,7.6,30.36,NW,306,13.0,24.0,82,0.00,,,0.00,VWS V14.01,2013-11-24 12:25:00,
2013-11-24 07:26:00,12.0,7.3,30.36,WNW,288,16.0,24.0,81,0.00,,,0.00,VWS V14.01,2013-11-24 12:26:00,
2013-11-24 07:27:00,12.1,7.4,30.36,WNW,291,15.0,24.0,81,0.00,,,0.00,VWS V14.01,2013-11-24 12:27:00,
2013-11-24 07:28:00,11.9,7.5,30.36,NW,314,15.0,25.0,82,0.00,,OVC025,0.00,VWS V14.01,2013-11-24 12:28:00,
2013-11-24 07:29:00,12.1,7.4,30.37,WNW,292,11.0,24.0,81,0.00,,,0.00,VWS V14.01,2013-11-24 12:29:00,
2013-11-24 07:30:00,12.1,7.4,30.37,West,262,14.0,19.0,81,0.00,,,0.00,VWS V14.01,2013-11-24 12:30:00,
2013-11-24 07:31:00,12.1,7.4,30.37,WSW,247,16.0,19.0,81,0.00,,,0.00,VWS V14.01,2013-11-24 12:31:00,
2013-11-24 07:33:00,12.0,7.3,30.36,West,277,22.0,24.0,81,0.00,,,0.00,VWS V14.01,2013-11-24 12:33:00,
2013-11-24 07:34:00,12.1,7.4,30.37,WNW,289,14.0,24.0,81,0.00,,,0.00,VWS V14.01,2013-11-24 12:34:00,
2013-11-24 07:35:00,12.1,7.4,30.37,NW,309,16.0,24.0,81,0.00,,,0.00,VWS V14.01,2013-11-24 12:35:00,
2013-11-24 07:37:00,12.1,7.4,30.37,West,271,17.0,24.0,81,0.00,,,0.00,VWS V14.01,2013-11-24 12:37:00,
2013-11-24 07:38:00,12.1,7.4,30.37,West,269,15.0,24.0,81,0.00,,,0.00,VWS V14.01,2013-11-24 12:38:00,
2013-11-24 07:39:00,12.1,7.4,30.37,WNW,286,15.0,24.0,81,0.00,,,0.00,VWS V14.01,2013-11-24 12:39:00,
2013-11-24 07:41:00,12.1,7.4,30.37,West,276,15.0,24.0,81,0.00,,,0.00,VWS V14.01,2013-11-24 12:41:00,
2013-11-24 07:42:00,12.2,7.5,30.37,NW,307,21.0,24.0,81,0.00,,,0.00,VWS V14.01,2013-11-24 12:42:00,
2013-11-24 07:43:00,12.1,7.4,30.37,WSW,244,11.0,24.0,81,0.00,,,0.00,VWS V14.01,2013-11-24 12:43:00,
2013-11-24 07:44:00,12.2,7.5,30.38,WNW,302,23.0,27.0,81,0.00,,,0.00,VWS V14.01,2013-11-24 12:44:00,
2013-11-24 07:45:00,12.2,7.5,30.38,WNW,285,15.0,28.0,81,0.00,,,0.00,VWS V14.01,2013-11-24 12:45:00,
2013-11-24 07:46:00,12.2,7.5,30.38,NW,307,14.0,28.0,81,0.00,,,0.00,VWS V14.01,2013-11-24 12:46:00,
2013-11-24 07:47:00,12.2,7.5,30.38,NW,311,16.0,28.0,81,0.00,,,0.00,VWS V14.01,2013-11-24 12:47:00,
2013-11-24 07:48:00,12.1,7.4,30.37,WNW,286,9.0,24.0,81,0.00,,,0.00,VWS V14.01,2013-11-24 12:48:00,
2013-11-24 07:49:00,12.2,7.5,30.38,West,269,18.0,28.0,81,0.00,,,0.00,VWS V14.01,2013-11-24 12:49:00,
2013-11-24 07:51:00,12.3,7.6,30.38,NW,313,19.0,25.0,81,0.00,,,0.00,VWS V14.01,2013-11-24 12:51:00,
2013-11-24 07:52:00,12.3,7.6,30.38,WNW,292,19.0,25.0,81,0.00,,,0.00,VWS V14.01,2013-11-24 12:52:00,
2013-11-24 07:53:00,12.2,7.5,30.38,WNW,284,23.0,24.0,81,0.00,,,0.00,VWS V14.01,2013-11-24 12:53:00,
2013-11-24 07:54:00,12.3,7.6,30.38,West,274,7.0,25.0,81,0.00,,,0.00,VWS V14.01,2013-11-24 12:54:00,
2013-11-24 07:55:00,12.3,7.6,30.38,West,275,13.0,25.0,81,0.00,,,0.00,VWS V14.01,2013-11-24 12:55:00,
2013-11-24 07:56:00,12.3,7.6,30.38,West,279,12.0,25.0,81,0.00,,,0.00,VWS V14.01,2013-11-24 12:56:00,
2013-11-24 07:57:00,12.3,7.6,30.38,WNW,296,23.0,25.0,81,0.00,,,0.00,VWS V14.01,2013-11-24 12:57:00,
2013-11-24 07:58:00,12.2,7.5,30.38,WNW,293,17.0,28.0,81,0.00,,,0.00,VWS V14.01,2013-11-24 12:58:00,
2013-11-24 07:59:00,12.4,7.7,30.38,WNW,302,19.0,29.0,81,0.00,,,0.00,VWS V14.01,2013-11-24 12:59:00,
2013-11-24 08:00:00,12.5,7.8,30.38,West,276,19.0,19.0,81,0.00,,,0.00,VWS V14.01,2013-11-24 13:00:00,
2013-11-24 08:01:00,12.5,7.8,30.38,West,276,13.0,21.0,81,0.00,,,0.00,VWS V14.01,2013-11-24 13:01:00,
2013-11-24 08:02:00,12.5,7.8,30.38,WNW,283,16.0,24.0,81,0.00,,,0.00,VWS V14.01,2013-11-24 13:02:00,
2013-11-24 08:03:00,12.3,7.6,30.38,West,271,13.0,25.0,81,0.00,,,0.00,VWS V14.01,2013-11-24 13:03:00,
2013-11-24 08:04:00,12.6,7.9,30.38,WNW,284,20.0,27.0,81,0.00,,,0.00,VWS V14.01,2013-11-24 13:04:00,
2013-11-24 08:05:00,12.6,7.9,30.38,WNW,295,15.0,27.0,81,0.00,,,0.00,VWS V14.01,2013-11-24 13:05:00,
2013-11-24 08:06:00,12.7,8.0,30.38,NW,310,15.0,27.0,81,0.00,,,0.00,VWS V14.01,2013-11-24 13:06:00,
2013-11-24 08:08:00,12.4,7.7,30.38,WNW,296,21.0,29.0,81,0.00,,,0.00,VWS V14.01,2013-11-24 13:08:00,
2013-11-24 08:09:00,12.8,8.1,30.38,WNW,289,20.0,27.0,81,0.00,,,0.00,VWS V14.01,2013-11-24 13:09:00,
2013-11-24 08:10:00,12.7,8.0,30.38,West,263,11.0,23.0,81,0.00,,,0.00,VWS V14.01,2013-11-24 13:10:00,
2013-11-24 08:11:00,12.7,8.0,30.38,WNW,295,13.0,23.0,81,0.00,,,0.00,VWS V14.01,2013-11-24 13:11:00,
2013-11-24 08:12:00,12.7,8.0,30.38,West,277,7.0,23.0,81,0.00,,,0.00,VWS V14.01,2013-11-24 13:12:00,
2013-11-24 08:13:00,12.6,7.9,30.38,NW,306,21.0,27.0,81,0.00,,,0.00,VWS V14.01,2013-11-24 13:13:00,
2013-11-24 08:14:00,12.7,8.0,30.39,West,267,17.0,23.0,81,0.00,,,0.00,VWS V14.01,2013-11-24 13:14:00,
2013-11-24 08:15:00,12.7,8.0,30.39,WNW,284,15.0,23.0,81,0.00,,,0.00,VWS V14.01,2013-11-24 13:15:00,
2013-11-24 08:16:00,12.8,8.1,30.39,NW,306,18.0,23.0,81,0.00,,,0.00,VWS V14.01,2013-11-24 13:16:00,
2013-11-24 08:17:00,12.8,8.1,30.39,WNW,289,18.0,33.0,81,0.01,,,0.01,VWS V14.01,2013-11-24 13:17:00,
2013-11-24 08:18:00,12.7,8.0,30.38,WNW,296,16.0,27.0,81,0.00,,,0.00,VWS V14.01,2013-11-24 13:18:00,
2013-11-24 08:19:00,12.9,8.2,30.39,West,268,19.0,33.0,81,0.01,,,0.01,VWS V14.01,2013-11-24 13:19:00,
2013-11-24 08:20:00,12.9,8.2,30.39,WSW,254,13.0,20.0,81,0.01,,,0.01,VWS V14.01,2013-11-24 13:20:00,
2013-11-24 08:21:00,12.8,8.1,30.39,WNW,292,11.0,20.0,81,0.01,,,0.01,VWS V14.01,2013-11-24 13:21:00,
2013-11-24 08:22:00,12.9,8.2,30.39,West,267,11.0,20.0,81,0.01,,,0.01,VWS V14.01,2013-11-24 13:22:00,
2013-11-24 08:23:00,12.7,8.0,30.39,WNW,285,15.0,23.0,81,0.00,,,0.00,VWS V14.01,2013-11-24 13:23:00,
2013-11-24 08:24:00,13.1,8.4,30.39,WNW,296,13.0,21.0,81,0.01,,,0.01,VWS V14.01,2013-11-24 13:24:00,
2013-11-24 08:25:00,13.3,8.6,30.39,WNW,303,21.0,21.0,81,0.01,,,0.01,VWS V14.01,2013-11-24 13:25:00,
2013-11-24 08:26:00,13.3,8.6,30.39,WNW,295,17.0,22.0,81,0.01,,,0.01,VWS V14.01,2013-11-24 13:26:00,
2013-11-24 08:27:00,13.3,8.6,30.39,WNW,287,14.0,22.0,81,0.01,,,0.01,VWS V14.01,2013-11-24 13:27:00,
2013-11-24 08:28:00,12.9,8.2,30.39,West,274,16.0,33.0,81,0.01,,,0.01,VWS V14.01,2013-11-24 13:28:00,
2013-11-24 08:29:00,13.2,8.5,30.39,WNW,299,11.0,22.0,81,0.01,,,0.01,VWS V14.01,2013-11-24 13:29:00,
2013-11-24 08:30:00,13.2,8.5,30.39,WNW,288,17.0,17.0,81,0.01,,,0.01,VWS V14.01,2013-11-24 13:30:00,
2013-11-24 08:31:00,13.1,8.4,30.39,NW,305,17.0,25.0,81,0.01,,,0.01,VWS V14.01,2013-11-24 13:31:00,
2013-11-24 08:32:00,13.1,8.4,30.39,WNW,300,17.0,25.0,81,0.01,,,0.01,VWS V14.01,2013-11-24 13:32:00,
2013-11-24 08:33:00,13.1,8.4,30.39,West,280,14.0,21.0,81,0.01,,,0.01,VWS V14.01,2013-11-24 13:33:00,
2013-11-24 08:34:00,13.0,8.3,30.39,West,267,11.0,25.0,81,0.01,,,0.01,VWS V14.01,2013-11-24 13:34:00,
2013-11-24 08:35:00,13.0,8.3,30.39,NW,306,15.0,25.0,81,0.01,,,0.01,VWS V14.01,2013-11-24 13:35:00,
2013-11-24 08:36:00,13.0,8.3,30.39,WSW,254,14.0,25.0,81,0.01,,,0.01,VWS V14.01,2013-11-24 13:36:00,
2013-11-24 08:37:00,13.1,8.4,30.39,WSW,248,20.0,25.0,81,0.01,,,0.01,VWS V14.01,2013-11-24 13:37:00,
2013-11-24 08:38:00,13.2,8.5,30.39,WNW,292,12.0,22.0,81,0.01,,,0.01,VWS V14.01,2013-11-24 13:38:00,
2013-11-24 08:39:00,13.3,8.6,30.39,WNW,296,21.0,25.0,81,0.01,,,0.01,VWS V14.01,2013-11-24 13:39:00,
2013-11-24 08:40:00,13.4,8.7,30.39,NW,325,16.0,19.0,81,0.01,,,0.01,VWS V14.01,2013-11-24 13:40:00,
2013-11-24 08:41:00,13.5,8.8,30.39,NW,309,15.0,19.0,81,0.01,,,0.01,VWS V14.01,2013-11-24 13:41:00,
2013-11-24 08:42:00,13.6,8.9,30.39,NW,310,12.0,22.0,81,0.01,,,0.01,VWS V14.01,2013-11-24 13:42:00,
2013-11-24 08:43:00,13.0,8.3,30.39,West,277,12.0,25.0,81,0.01,,,0.01,VWS V14.01,2013-11-24 13:43:00,
2013-11-24 08:44:00,13.6,8.9,30.40,WNW,298,9.0,22.0,81,0.01,,,0.01,VWS V14.01,2013-11-24 13:44:00,
2013-11-24 08:45:00,13.5,8.8,30.40,West,281,19.0,22.0,81,0.01,,,0.01,VWS V14.01,2013-11-24 13:45:00,
2013-11-24 08:47:00,13.2,8.5,30.40,WNW,296,18.0,22.0,81,0.01,,,0.01,VWS V14.01,2013-11-24 13:47:00,
2013-11-24 08:48:00,13.2,8.5,30.39,WNW,300,21.0,25.0,81,0.01,,,0.01,VWS V14.01,2013-11-24 13:48:00,
2013-11-24 08:49:00,13.4,8.7,30.40,WSW,257,17.0,27.0,81,0.01,,,0.01,VWS V14.01,2013-11-24 13:49:00,
2013-11-24 08:50:00,13.4,8.7,30.40,NW,315,14.0,26.0,81,0.01,,,0.01,VWS V14.01,2013-11-24 13:50:00,
2013-11-24 08:51:00,13.4,8.7,30.40,West,277,20.0,26.0,81,0.01,,,0.01,VWS V14.01,2013-11-24 13:51:00,
2013-11-24 08:52:00,13.5,8.8,30.40,NW,308,21.0,26.0,81,0.01,,,0.01,VWS V14.01,2013-11-24 13:52:00,
2013-11-24 08:53:00,13.6,8.9,30.40,WNW,298,15.0,22.0,81,0.01,,,0.01,VWS V14.01,2013-11-24 13:53:00,
2013-11-24 08:54:00,13.7,9.0,30.40,West,275,12.0,26.0,81,0.01,,,0.01,VWS V14.01,2013-11-24 13:54:00,
2013-11-24 08:55:00,13.8,9.1,30.40,WNW,294,16.0,26.0,81,0.01,,,0.01,VWS V14.01,2013-11-24 13:55:00,
2013-11-24 08:56:00,13.9,9.2,30.40,WNW,291,17.0,27.0,81,0.01,,,0.01,VWS V14.01,2013-11-24 13:56:00,
2013-11-24 08:57:00,13.9,8.9,30.40,West,280,18.0,27.0,80,0.01,,,0.01,VWS V14.01,2013-11-24 13:57:00,
2013-11-24 08:58:00,13.3,8.6,30.40,West,280,14.0,27.0,81,0.01,,,0.01,VWS V14.01,2013-11-24 13:58:00,
2013-11-24 08:59:00,13.9,8.9,30.41,West,281,21.0,27.0,80,0.01,,,0.01,VWS V14.01,2013-11-24 13:59:00,
2013-11-24 09:00:00,13.9,8.9,30.41,West,273,24.0,24.0,80,0.01,,,0.01,VWS V14.01,2013-11-24 14:00:00,
2013-11-24 09:01:00,13.8,8.8,30.41,NW,309,19.0,24.0,80,0.01,,,0.01,VWS V14.01,2013-11-24 14:01:00,
2013-11-24 09:02:00,13.7,8.7,30.41,NW,311,15.0,24.0,80,0.01,,,0.01,VWS V14.01,2013-11-24 14:02:00,
2013-11-24 09:03:00,13.6,8.9,30.40,WNW,283,16.0,26.0,81,0.01,,,0.01,VWS V14.01,2013-11-24 14:03:00,
2013-11-24 09:04:00,13.9,8.9,30.41,WNW,288,24.0,26.0,80,0.01,,,0.01,VWS V14.01,2013-11-24 14:04:00,
2013-11-24 09:06:00,13.7,8.7,30.41,West,277,22.0,31.0,80,0.01,,,0.01,VWS V14.01,2013-11-24 14:06:00,
2013-11-24 09:07:00,13.7,8.7,30.41,NW,311,23.0,31.0,80,0.01,,,0.01,VWS V14.01,2013-11-24 14:07:00,
2013-11-24 09:08:00,13.9,8.9,30.41,NW,308,24.0,27.0,80,0.01,,,0.01,VWS V14.01,2013-11-24 14:08:00,
2013-11-24 09:09:00,14.0,9.0,30.41,West,261,17.0,31.0,80,0.01,,,0.01,VWS V14.01,2013-11-24 14:09:00,
2013-11-24 09:13:00,13.9,8.9,30.41,NW,318,19.0,25.0,80,0.01,,,0.01,VWS V14.01,2013-11-24 14:13:00,
2013-11-24 09:18:00,14.0,9.0,30.41,WNW,293,22.0,31.0,80,0.01,,,0.01,VWS V14.01,2013-11-24 14:18:00,
2013-11-24 09:22:00,14.4,9.1,30.42,WNW,302,22.0,26.0,79,0.01,,,0.01,VWS V14.01,2013-11-24 14:22:00,
2013-11-24 09:23:00,14.3,9.0,30.42,WNW,296,16.0,26.0,79,0.01,,,0.01,VWS V14.01,2013-11-24 14:23:00,
2013-11-24 09:24:00,14.3,9.0,30.42,WNW,291,19.0,26.0,79,0.01,,,0.01,VWS V14.01,2013-11-24 14:24:00,
2013-11-24 09:25:00,14.3,9.0,30.42,NW,319,16.0,30.0,79,0.01,,,0.01,VWS V14.01,2013-11-24 14:25:00,
2013-11-24 09:26:00,14.4,8.8,30.42,WNW,291,17.0,30.0,78,0.01,,,0.01,VWS V14.01,2013-11-24 14:26:00,
2013-11-24 09:27:00,14.5,8.9,30.42,West,269,13.0,30.0,78,0.01,,,0.01,VWS V14.01,2013-11-24 14:27:00,
2013-11-24 09:28:00,14.6,9.0,30.42,West,274,14.0,30.0,78,0.01,,,0.01,VWS V14.01,2013-11-24 14:28:00,
2013-11-24 09:29:00,14.5,8.9,30.42,West,269,12.0,30.0,78,0.01,,,0.01,VWS V14.01,2013-11-24 14:29:00,
2013-11-24 09:30:00,14.6,9.0,30.42,West,281,19.0,21.0,78,0.00,,,0.01,VWS V14.01,2013-11-24 14:30:00,
2013-11-24 09:31:00,14.4,9.1,30.42,NW,311,20.0,20.0,79,0.00,,,0.01,VWS V14.01,2013-11-24 14:31:00,
2013-11-24 09:32:00,14.5,8.9,30.42,West,271,17.0,21.0,78,0.00,,,0.01,VWS V14.01,2013-11-24 14:32:00,
2013-11-24 09:33:00,14.6,9.0,30.42,WNW,283,14.0,21.0,78,0.00,,,0.01,VWS V14.01,2013-11-24 14:33:00,
2013-11-24 09:34:00,14.6,9.0,30.42,WNW,287,12.0,21.0,78,0.00,,,0.01,VWS V14.01,2013-11-24 14:34:00,
2013-11-24 09:36:00,14.4,8.8,30.42,NW,313,12.0,30.0,78,0.01,,,0.01,VWS V14.01,2013-11-24 14:36:00,
2013-11-24 09:37:00,14.6,9.0,30.42,WNW,288,26.0,27.0,78,0.00,,,0.01,VWS V14.01,2013-11-24 14:37:00,
2013-11-24 09:39:00,14.4,8.8,30.42,WNW,303,18.0,32.0,78,0.00,,,0.01,VWS V14.01,2013-11-24 14:39:00,
2013-11-24 09:40:00,14.5,8.9,30.42,WNW,298,13.0,19.0,78,0.00,,,0.01,VWS V14.01,2013-11-24 14:40:00,
2013-11-24 09:41:00,14.5,8.9,30.42,West,259,12.0,21.0,78,0.00,,,0.01,VWS V14.01,2013-11-24 14:41:00,
2013-11-24 09:43:00,14.5,8.9,30.42,West,276,17.0,25.0,78,0.00,,,0.01,VWS V14.01,2013-11-24 14:43:00,
2013-11-24 09:44:00,14.5,8.9,30.42,NW,310,11.0,25.0,78,0.00,,,0.01,VWS V14.01,2013-11-24 14:44:00,
2013-11-24 09:46:00,14.7,9.1,30.42,NW,322,17.0,25.0,78,0.00,,,0.01,VWS V14.01,2013-11-24 14:46:00,
2013-11-24 09:47:00,14.7,9.1,30.42,West,278,16.0,25.0,78,0.00,,,0.01,VWS V14.01,2013-11-24 14:47:00,
2013-11-24 09:48:00,14.6,9.0,30.42,West,271,13.0,25.0,78,0.00,,,0.01,VWS V14.01,2013-11-24 14:48:00,
2013-11-24 09:49:00,14.6,9.0,30.42,WNW,292,20.0,25.0,78,0.00,,,0.01,VWS V14.01,2013-11-24 14:49:00,
2013-11-24 09:50:00,14.6,9.0,30.42,NW,309,19.0,22.0,78,0.00,,,0.01,VWS V14.01,2013-11-24 14:50:00,
2013-11-24 09:51:00,14.5,8.9,30.42,West,277,22.0,24.0,78,0.00,,,0.01,VWS V14.01,2013-11-24 14:51:00,
2013-11-24 09:52:00,14.8,9.2,30.42,NW,313,20.0,22.0,78,0.00,,,0.01,VWS V14.01,2013-11-24 14:52:00,
2013-11-24 09:53:00,14.9,9.6,30.42,NW,312,18.0,22.0,79,0.00,,,0.01,VWS V14.01,2013-11-24 14:53:00,
2013-11-24 09:54:00,14.9,9.6,30.42,NNW,342,16.0,22.0,79,0.00,,,0.01,VWS V14.01,2013-11-24 14:54:00,
2013-11-24 09:55:00,14.9,9.6,30.42,WNW,296,11.0,22.0,79,0.00,,,0.01,VWS V14.01,2013-11-24 14:55:00,
2013-11-24 09:56:00,14.6,9.0,30.42,WNW,295,15.0,25.0,78,0.00,,,0.01,VWS V14.01,2013-11-24 14:56:00,
2013-11-24 09:57:00,15.0,9.4,30.42,WNW,286,14.0,22.0,78,0.00,,,0.01,VWS V14.01,2013-11-24 14:57:00,
2013-11-24 09:58:00,14.9,9.3,30.42,NW,312,16.0,22.0,78,0.00,,,0.01,VWS V14.01,2013-11-24 14:58:00,
2013-11-24 09:59:00,14.9,9.3,30.43,WNW,293,19.0,22.0,78,0.00,,,0.01,VWS V14.01,2013-11-24 14:59:00,
2013-11-24 10:00:00,14.8,9.2,30.43,WNW,300,13.0,20.0,78,0.00,,,0.01,VWS V14.01,2013-11-24 15:00:00,
2013-11-24 10:01:00,14.7,9.1,30.42,WNW,289,15.0,22.0,78,0.00,,,0.01,VWS V14.01,2013-11-24 15:01:00,
2013-11-24 10:03:00,14.8,9.2,30.43,NW,313,12.0,25.0,78,0.00,,,0.01,VWS V14.01,2013-11-24 15:03:00,
2013-11-24 10:04:00,14.8,9.2,30.43,WNW,294,17.0,25.0,78,0.00,,,0.01,VWS V14.01,2013-11-24 15:04:00,
2013-11-24 10:05:00,14.8,9.2,30.43,NW,307,14.0,25.0,78,0.00,,,0.01,VWS V14.01,2013-11-24 15:05:00,
2013-11-24 10:06:00,15.0,9.7,30.42,NW,315,11.0,22.0,79,0.00,,,0.01,VWS V14.01,2013-11-24 15:06:00,
2013-11-24 10:07:00,14.8,9.2,30.43,NW,313,11.0,25.0,78,0.00,,,0.01,VWS V14.01,2013-11-24 15:07:00,
2013-11-24 10:10:00,14.8,9.2,30.43,WNW,292,17.0,25.0,78,0.00,,,0.01,VWS V14.01,2013-11-24 15:10:00,
2013-11-24 10:11:00,14.9,9.3,30.43,NW,305,17.0,25.0,78,0.00,,,0.01,VWS V14.01,2013-11-24 15:11:00,
2013-11-24 10:16:00,14.8,9.2,30.43,NW,318,16.0,25.0,78,0.00,,,0.01,VWS V14.01,2013-11-24 15:16:00,
2013-11-24 10:20:00,14.5,9.2,30.43,WNW,292,14.0,26.0,79,0.00,,,0.01,VWS V14.01,2013-11-24 15:20:00,
2013-11-24 10:30:00,14.5,9.5,30.44,WNW,292,13.0,23.0,80,0.00,,,0.01,VWS V14.01,2013-11-24 15:30:00,
2013-11-24 10:40:00,14.8,9.8,30.44,WNW,292,11.0,18.0,80,0.00,,,0.01,VWS V14.01,2013-11-24 15:40:00,
2013-11-24 10:50:00,15.0,10.0,30.43,WNW,292,13.0,23.0,80,0.00,,,0.01,VWS V14.01,2013-11-24 15:50:00,
2013-11-24 11:00:00,14.8,10.3,30.43,WNW,292,14.0,22.0,82,0.00,,,0.01,VWS V14.01,2013-11-24 16:00:00,
2013-11-24 11:10:00,15.2,11.0,30.43,WNW,292,14.0,21.0,83,0.00,,,0.01,VWS V14.01,2013-11-24 16:10:00,
2013-11-24 11:20:00,15.4,10.9,30.43,WNW,292,14.0,21.0,82,0.00,,,0.01,VWS V14.01,2013-11-24 16:20:00,
2013-11-24 11:30:00,15.5,11.3,30.42,WNW,292,13.0,22.0,83,0.00,,,0.01,VWS V14.01,2013-11-24 16:30:00,
2013-11-24 11:40:00,16.2,12.0,30.42,WNW,292,12.0,21.0,83,0.00,,,0.01,VWS V14.01,2013-11-24 16:40:00,
2013-11-24 11:50:00,15.7,11.5,30.41,WNW,292,14.0,23.0,83,0.00,,,0.01,VWS V14.01,2013-11-24 16:50:00,
2013-11-24 12:00:00,15.7,11.5,30.41,WNW,292,14.0,24.0,83,0.00,,,0.01,VWS V14.01,2013-11-24 17:00:00,
2013-11-24 12:10:00,15.8,11.8,30.41,WNW,292,14.0,26.0,84,0.00,,,0.01,VWS V14.01,2013-11-24 17:10:00,
2013-11-24 12:20:00,15.6,11.9,30.42,WNW,292,12.0,24.0,85,0.00,,,0.01,VWS V14.01,2013-11-24 17:20:00,
2013-11-24 12:30:00,16.3,12.1,30.42,WNW,292,15.0,25.0,83,0.00,,,0.01,VWS V14.01,2013-11-24 17:30:00,
2013-11-24 12:40:00,15.8,13.9,30.42,WNW,292,13.0,25.0,92,0.00,,,0.01,VWS V14.01,2013-11-24 17:40:00,
2013-11-24 12:50:00,16.0,12.6,30.42,WNW,292,9.0,19.0,86,0.00,,,0.01,VWS V14.01,2013-11-24 17:50:00,
2013-11-24 13:00:00,16.1,12.7,30.42,WNW,292,10.0,16.0,86,0.00,,,0.01,VWS V14.01,2013-11-24 18:00:00,
2013-11-24 13:10:00,15.4,12.0,30.42,WNW,292,13.0,23.0,86,0.00,,,0.01,VWS V14.01,2013-11-24 18:10:00,
2013-11-24 13:20:00,15.6,12.2,30.42,WNW,292,12.0,20.0,86,0.00,,,0.01,VWS V14.01,2013-11-24 18:20:00,
2013-11-24 13:30:00,15.3,11.9,30.42,WNW,292,14.0,23.0,86,0.00,,,0.01,VWS V14.01,2013-11-24 18:30:00,
2013-11-24 13:40:00,15.9,12.5,30.42,WNW,292,12.0,20.0,86,0.00,,,0.01,VWS V14.01,2013-11-24 18:40:00,
2013-11-24 13:55:00,15.8,12.4,30.41,WNW,295,12.0,20.0,86,0.00,,,0.01,VWS V14.01,2013-11-24 18:55:00,
2013-11-24 13:56:00,15.8,12.4,30.41,WNW,302,14.0,20.0,86,0.00,,,0.01,VWS V14.01,2013-11-24 18:56:00,
2013-11-24 13:57:00,15.8,12.4,30.41,NW,315,9.0,20.0,86,0.00,,,0.01,VWS V14.01,2013-11-24 18:57:00,
2013-11-24 13:58:00,15.8,12.4,30.41,NW,307,11.0,20.0,86,0.00,,,0.01,VWS V14.01,2013-11-24 18:58:00,
2013-11-24 13:59:00,15.9,12.5,30.41,WNW,303,13.0,20.0,86,0.00,,,0.01,VWS V14.01,2013-11-24 18:59:00,
2013-11-24 14:00:00,15.9,12.5,30.41,NW,304,9.0,16.0,86,0.00,,,0.01,VWS V14.01,2013-11-24 19:00:00,
2013-11-24 14:01:00,15.9,12.5,30.41,WNW,291,11.0,16.0,86,0.00,,,0.01,VWS V14.01,2013-11-24 19:01:00,
2013-11-24 14:02:00,15.9,12.5,30.41,WNW,287,11.0,16.0,86,0.00,,,0.01,VWS V14.01,2013-11-24 19:02:00,
2013-11-24 14:03:00,16.0,12.6,30.41,NW,315,11.0,16.0,86,0.00,,,0.01,VWS V14.01,2013-11-24 19:03:00,
2013-11-24 14:04:00,15.8,12.4,30.41,WNW,286,16.0,16.0,86,0.00,,,0.01,VWS V14.01,2013-11-24 19:04:00,
2013-11-24 14:05:00,16.0,12.6,30.41,West,263,9.0,16.0,86,0.00,,,0.01,VWS V14.01,2013-11-24 19:05:00,
2013-11-24 14:06:00,16.0,12.6,30.41,NW,309,14.0,16.0,86,0.00,,,0.01,VWS V14.01,2013-11-24 19:06:00,
2013-11-24 14:07:00,16.1,12.7,30.41,West,280,8.0,16.0,86,0.00,,,0.01,VWS V14.01,2013-11-24 19:07:00,
2013-11-24 14:08:00,16.1,12.7,30.41,West,279,16.0,17.0,86,0.00,,,0.01,VWS V14.01,2013-11-24 19:08:00,
2013-11-24 14:09:00,15.9,12.5,30.41,WNW,295,16.0,16.0,86,0.00,,,0.01,VWS V14.01,2013-11-24 19:09:00,
2013-11-24 14:10:00,16.1,12.7,30.41,NNW,337,16.0,19.0,86,0.00,,,0.01,VWS V14.01,2013-11-24 19:10:00,
2013-11-24 14:11:00,16.1,12.7,30.41,WNW,288,14.0,20.0,86,0.00,,,0.01,VWS V14.01,2013-11-24 19:11:00,
2013-11-24 14:12:00,16.1,12.7,30.41,NW,311,11.0,20.0,86,0.00,,,0.01,VWS V14.01,2013-11-24 19:12:00,
2013-11-24 14:13:00,16.2,12.8,30.41,WNW,286,12.0,20.0,86,0.00,,,0.01,VWS V14.01,2013-11-24 19:13:00,
2013-11-24 14:14:00,15.9,12.5,30.41,WNW,297,10.0,16.0,86,0.00,,,0.01,VWS V14.01,2013-11-24 19:14:00,
2013-11-24 14:15:00,16.4,12.9,30.41,WNW,292,5.0,20.0,86,0.00,,,0.01,VWS V14.01,2013-11-24 19:15:00,
2013-11-24 14:16:00,16.4,12.9,30.41,WNW,295,11.0,20.0,86,0.00,,,0.01,VWS V14.01,2013-11-24 19:16:00,
2013-11-24 14:17:00,16.4,12.7,30.41,WNW,284,9.0,20.0,85,0.00,,,0.01,VWS V14.01,2013-11-24 19:17:00,
2013-11-24 14:18:00,16.5,13.1,30.41,WNW,290,13.0,20.0,86,0.00,,,0.01,VWS V14.01,2013-11-24 19:18:00,
2013-11-24 14:19:00,16.1,12.7,30.41,WNW,287,9.0,14.0,86,0.00,,,0.01,VWS V14.01,2013-11-24 19:19:00,
2013-11-24 14:20:00,16.4,12.7,30.41,West,271,10.0,16.0,85,0.00,,,0.01,VWS V14.01,2013-11-24 19:20:00,
2013-11-24 14:21:00,16.4,12.7,30.41,NW,315,6.0,16.0,85,0.00,,,0.01,VWS V14.01,2013-11-24 19:21:00,
2013-11-24 14:22:00,16.4,12.7,30.41,West,263,8.0,16.0,85,0.00,,,0.01,VWS V14.01,2013-11-24 19:22:00,
2013-11-24 14:23:00,16.4,12.7,30.41,West,272,10.0,16.0,85,0.00,,,0.01,VWS V14.01,2013-11-24 19:23:00,
2013-11-24 14:24:00,16.4,12.9,30.41,WNW,298,6.0,20.0,86,0.00,,,0.01,VWS V14.01,2013-11-24 19:24:00,
2013-11-24 14:25:00,16.4,12.7,30.41,WNW,288,13.0,16.0,85,0.00,,,0.01,VWS V14.01,2013-11-24 19:25:00,
2013-11-24 14:26:00,16.4,12.7,30.41,West,276,15.0,16.0,85,0.00,,,0.01,VWS V14.01,2013-11-24 19:26:00,
2013-11-24 14:27:00,16.4,12.4,30.41,West,273,15.0,19.0,84,0.00,,,0.01,VWS V14.01,2013-11-24 19:27:00,
2013-11-24 14:28:00,16.3,12.3,30.41,WNW,283,14.0,19.0,84,0.00,,,0.01,VWS V14.01,2013-11-24 19:28:00,
2013-11-24 14:29:00,16.4,12.7,30.41,NW,311,12.0,16.0,85,0.00,,,0.01,VWS V14.01,2013-11-24 19:29:00,
2013-11-24 14:30:00,16.4,12.4,30.42,West,276,12.0,14.0,84,0.00,,,0.01,VWS V14.01,2013-11-24 19:30:00,
2013-11-24 14:31:00,16.5,12.5,30.42,WNW,287,15.0,15.0,84,0.00,,,0.01,VWS V14.01,2013-11-24 19:31:00,
2013-11-24 14:32:00,16.6,12.6,30.42,West,260,6.0,15.0,84,0.00,,,0.01,VWS V14.01,2013-11-24 19:32:00,
2013-11-24 14:33:00,16.6,12.6,30.42,West,277,13.0,19.0,84,0.00,,,0.01,VWS V14.01,2013-11-24 19:33:00,
2013-11-24 14:34:00,16.4,12.7,30.41,WNW,288,10.0,16.0,85,0.00,,,0.01,VWS V14.01,2013-11-24 19:34:00,
2013-11-24 14:36:00,16.7,12.7,30.42,West,269,11.0,19.0,84,0.00,,,0.01,VWS V14.01,2013-11-24 19:36:00,
2013-11-24 14:37:00,16.7,12.7,30.42,NW,307,9.0,19.0,84,0.00,,,0.01,VWS V14.01,2013-11-24 19:37:00,
2013-11-24 14:38:00,16.7,12.4,30.42,West,281,12.0,19.0,83,0.00,,,0.01,VWS V14.01,2013-11-24 19:38:00,
2013-11-24 14:39:00,16.4,12.4,30.42,West,273,11.0,12.0,84,0.00,,,0.01,VWS V14.01,2013-11-24 19:39:00,
2013-11-24 14:40:00,16.7,12.4,30.42,WNW,294,22.0,24.0,83,0.00,,,0.01,VWS V14.01,2013-11-24 19:40:00,
2013-11-24 14:41:00,16.6,12.4,30.42,WNW,286,19.0,24.0,83,0.00,,,0.01,VWS V14.01,2013-11-24 19:41:00,
2013-11-24 14:42:00,16.6,12.4,30.42,WNW,288,11.0,24.0,83,0.00,,,0.01,VWS V14.01,2013-11-24 19:42:00,
2013-11-24 14:43:00,16.6,12.4,30.42,West,276,15.0,24.0,83,0.00,,,0.01,VWS V14.01,2013-11-24 19:43:00,
2013-11-24 14:44:00,16.6,12.6,30.42,West,259,10.0,19.0,84,0.00,,,0.01,VWS V14.01,2013-11-24 19:44:00,
2013-11-24 14:45:00,16.6,12.4,30.42,West,273,3.0,24.0,83,0.00,,,0.01,VWS V14.01,2013-11-24 19:45:00,
2013-11-24 14:46:00,16.6,12.4,30.42,WNW,286,10.0,24.0,83,0.00,,,0.01,VWS V14.01,2013-11-24 19:46:00,
2013-11-24 14:47:00,16.6,12.4,30.42,NW,307,12.0,24.0,83,0.00,,,0.01,VWS V14.01,2013-11-24 19:47:00,
2013-11-24 14:48:00,16.7,12.4,30.42,WNW,282,8.0,24.0,83,0.00,,,0.01,VWS V14.01,2013-11-24 19:48:00,
2013-11-24 14:49:00,16.7,12.4,30.42,WNW,297,16.0,24.0,83,0.00,,,0.01,VWS V14.01,2013-11-24 19:49:00,
2013-11-24 14:50:00,16.7,12.7,30.42,West,272,7.0,13.0,84,0.00,,,0.01,VWS V14.01,2013-11-24 19:50:00,
2013-11-24 14:51:00,16.7,12.4,30.42,WNW,298,11.0,13.0,83,0.00,,,0.01,VWS V14.01,2013-11-24 19:51:00,
2013-11-24 14:52:00,16.7,12.7,30.42,WNW,284,5.0,13.0,84,0.00,,,0.01,VWS V14.01,2013-11-24 19:52:00,
2013-11-24 14:53:00,16.7,12.7,30.42,WNW,286,6.0,13.0,84,0.00,,,0.01,VWS V14.01,2013-11-24 19:53:00,
2013-11-24 14:54:00,16.6,12.4,30.42,WNW,295,5.0,24.0,83,0.00,,,0.01,VWS V14.01,2013-11-24 19:54:00,
2013-11-24 14:55:00,16.7,12.7,30.42,WNW,302,17.0,19.0,84,0.00,,,0.01,VWS V14.01,2013-11-24 19:55:00,
2013-11-24 14:56:00,16.5,12.5,30.42,WSW,245,13.0,20.0,84,0.00,,,0.01,VWS V14.01,2013-11-24 19:56:00,
2013-11-24 14:57:00,16.4,12.4,30.42,WNW,282,10.0,20.0,84,0.00,,,0.01,VWS V14.01,2013-11-24 19:57:00,
2013-11-24 14:58:00,16.4,12.4,30.42,West,261,14.0,20.0,84,0.00,,,0.01,VWS V14.01,2013-11-24 19:58:00,
2013-11-24 14:59:00,16.7,12.4,30.42,WNW,283,13.0,13.0,83,0.00,,,0.01,VWS V14.01,2013-11-24 19:59:00,
2013-11-24 15:00:00,16.4,12.4,30.42,WNW,282,13.0,14.0,84,0.00,,,0.01,VWS V14.01,2013-11-24 20:00:00,
2013-11-24 15:01:00,16.4,12.4,30.42,NW,309,8.0,14.0,84,0.00,,,0.01,VWS V14.01,2013-11-24 20:01:00,
2013-11-24 15:02:00,16.5,12.5,30.42,WNW,285,8.0,14.0,84,0.00,,,0.01,VWS V14.01,2013-11-24 20:02:00,
2013-11-24 15:03:00,16.5,12.5,30.42,WNW,287,7.0,14.0,84,0.00,,,0.01,VWS V14.01,2013-11-24 20:03:00,
2013-11-24 15:04:00,16.7,12.7,30.42,WNW,283,10.0,19.0,84,0.00,,,0.01,VWS V14.01,2013-11-24 20:04:00,
2013-11-24 15:05:00,16.4,12.4,30.42,West,265,8.0,14.0,84,0.00,,,0.01,VWS V14.01,2013-11-24 20:05:00,
2013-11-24 15:06:00,16.4,12.4,30.42,West,281,13.0,14.0,84,0.00,,,0.01,VWS V14.01,2013-11-24 20:06:00,
2013-11-24 15:07:00,16.3,12.3,30.42,WNW,289,14.0,15.0,84,0.00,,,0.01,VWS V14.01,2013-11-24 20:07:00,
2013-11-24 15:08:00,16.2,12.2,30.42,NW,312,14.0,18.0,84,0.00,,,0.01,VWS V14.01,2013-11-24 20:08:00,
2013-11-24 15:09:00,16.4,12.4,30.42,WNW,284,7.0,12.0,84,0.00,,,0.01,VWS V14.01,2013-11-24 20:09:00,
2013-11-24 15:10:00,16.2,12.0,30.42,West,280,17.0,24.0,83,0.00,,,0.01,VWS V14.01,2013-11-24 20:10:00,
2013-11-24 15:11:00,16.2,12.0,30.42,West,281,12.0,24.0,83,0.00,,,0.01,VWS V14.01,2013-11-24 20:11:00,
2013-11-24 15:12:00,16.3,12.1,30.42,WNW,291,16.0,24.0,83,0.00,,,0.01,VWS V14.01,2013-11-24 20:12:00,
2013-11-24 15:13:00,16.3,11.8,30.42,NW,309,13.0,24.0,82,0.00,,,0.01,VWS V14.01,2013-11-24 20:13:00,
2013-11-24 15:14:00,16.4,12.4,30.42,West,264,9.0,14.0,84,0.00,,,0.01,VWS V14.01,2013-11-24 20:14:00,
2013-11-24 15:15:00,16.4,11.9,30.43,WNW,294,13.0,24.0,82,0.00,,,0.01,VWS V14.01,2013-11-24 20:15:00,
2013-11-24 15:16:00,16.3,11.8,30.43,West,274,9.0,24.0,82,0.00,,,0.01,VWS V14.01,2013-11-24 20:16:00,
2013-11-24 15:17:00,16.3,11.8,30.43,WNW,282,11.0,24.0,82,0.00,,,0.01,VWS V14.01,2013-11-24 20:17:00,
2013-11-24 15:18:00,16.3,11.8,30.43,WNW,286,15.0,24.0,82,0.00,,,0.01,VWS V14.01,2013-11-24 20:18:00,
2013-11-24 15:19:00,16.2,12.0,30.42,West,281,14.0,24.0,83,0.00,,,0.01,VWS V14.01,2013-11-24 20:19:00,
2013-11-24 15:20:00,16.3,11.8,30.43,NW,323,16.0,19.0,82,0.00,,,0.01,VWS V14.01,2013-11-24 20:20:00,
2013-11-24 15:21:00,16.3,11.8,30.43,WNW,286,11.0,22.0,82,0.00,,,0.01,VWS V14.01,2013-11-24 20:21:00,
2013-11-24 15:22:00,16.3,11.8,30.43,WNW,297,9.0,22.0,82,0.00,,,0.01,VWS V14.01,2013-11-24 20:22:00,
2013-11-24 15:23:00,16.3,12.1,30.43,WNW,296,9.0,22.0,83,0.00,,,0.01,VWS V14.01,2013-11-24 20:23:00,
2013-11-24 15:24:00,16.3,11.8,30.43,WNW,302,10.0,24.0,82,0.00,,,0.01,VWS V14.01,2013-11-24 20:24:00,
2013-11-24 15:25:00,16.2,12.0,30.43,NW,305,11.0,22.0,83,0.00,,,0.01,VWS V14.01,2013-11-24 20:25:00,
2013-11-24 15:26:00,16.3,12.1,30.43,WNW,288,12.0,22.0,83,0.00,,,0.01,VWS V14.01,2013-11-24 20:26:00,
2013-11-24 15:27:00,16.3,12.1,30.43,WNW,286,15.0,22.0,83,0.00,,,0.01,VWS V14.01,2013-11-24 20:27:00,
2013-11-24 15:28:00,16.3,12.1,30.43,West,278,10.0,22.0,83,0.00,,,0.01,VWS V14.01,2013-11-24 20:28:00,
2013-11-24 15:29:00,16.3,11.8,30.43,NNW,327,15.0,15.0,82,0.00,,,0.01,VWS V14.01,2013-11-24 20:29:00,
2013-11-24 15:30:00,16.4,12.1,30.44,NW,306,6.0,15.0,83,0.00,,,0.01,VWS V14.01,2013-11-24 20:30:00,
2013-11-24 15:31:00,16.4,11.9,30.44,NW,311,11.0,15.0,82,0.00,,,0.01,VWS V14.01,2013-11-24 20:31:00,
2013-11-24 15:32:00,16.4,11.9,30.44,NW,311,9.0,15.0,82,0.00,,,0.01,VWS V14.01,2013-11-24 20:32:00,
2013-11-24 15:33:00,16.4,12.1,30.44,West,273,8.0,15.0,83,0.00,,,0.01,VWS V14.01,2013-11-24 20:33:00,
2013-11-24 15:34:00,16.3,12.1,30.43,NW,314,13.0,22.0,83,0.00,,,0.01,VWS V14.01,2013-11-24 20:34:00,
2013-11-24 15:35:00,16.3,12.1,30.44,WNW,297,15.0,20.0,83,0.00,,,0.01,VWS V14.01,2013-11-24 20:35:00,
2013-11-24 15:36:00,16.2,12.0,30.44,WSW,245,11.0,20.0,83,0.00,,,0.01,VWS V14.01,2013-11-24 20:36:00,
2013-11-24 15:37:00,16.1,11.9,30.44,West,271,13.0,20.0,83,0.00,,,0.01,VWS V14.01,2013-11-24 20:37:00,
2013-11-24 15:38:00,16.1,11.9,30.44,West,272,11.0,20.0,83,0.00,,,0.01,VWS V14.01,2013-11-24 20:38:00,
2013-11-24 15:39:00,16.3,12.1,30.44,WNW,302,6.0,15.0,83,0.00,,,0.01,VWS V14.01,2013-11-24 20:39:00,
2013-11-24 15:40:00,16.1,11.9,30.44,WNW,282,16.0,16.0,83,0.00,,,0.01,VWS V14.01,2013-11-24 20:40:00,
2013-11-24 15:41:00,16.1,12.1,30.44,WNW,284,7.0,17.0,84,0.00,,,0.01,VWS V14.01,2013-11-24 20:41:00,
2013-11-24 15:42:00,16.1,12.1,30.44,WNW,284,13.0,18.0,84,0.00,,,0.01,VWS V14.01,2013-11-24 20:42:00,
2013-11-24 15:43:00,16.1,12.1,30.44,NW,305,7.0,18.0,84,0.00,,,0.01,VWS V14.01,2013-11-24 20:43:00,
2013-11-24 15:44:00,16.3,12.1,30.44,West,276,18.0,20.0,83,0.00,,,0.01,VWS V14.01,2013-11-24 20:44:00,
2013-11-24 15:45:00,16.1,11.9,30.44,West,275,19.0,22.0,83,0.00,,,0.01,VWS V14.01,2013-11-24 20:45:00,
2013-11-24 15:46:00,16.2,12.0,30.44,NW,304,14.0,22.0,83,0.00,,,0.01,VWS V14.01,2013-11-24 20:46:00,
2013-11-24 15:47:00,16.2,12.0,30.44,West,278,11.0,22.0,83,0.00,,,0.01,VWS V14.01,2013-11-24 20:47:00,
2013-11-24 15:48:00,16.3,12.1,30.44,NNW,341,10.0,22.0,83,0.00,,,0.01,VWS V14.01,2013-11-24 20:48:00,
2013-11-24 15:49:00,16.1,11.9,30.44,West,277,15.0,16.0,83,0.00,,,0.01,VWS V14.01,2013-11-24 20:49:00,
2013-11-24 15:50:00,16.3,11.8,30.44,WNW,293,4.0,7.0,82,0.00,,,0.01,VWS V14.01,2013-11-24 20:50:00,
2013-11-24 15:51:00,16.4,11.9,30.44,WNW,292,10.0,12.0,82,0.00,,,0.01,VWS V14.01,2013-11-24 20:51:00,
2013-11-24 15:52:00,16.4,11.9,30.44,WNW,295,10.0,17.0,82,0.00,,,0.01,VWS V14.01,2013-11-24 20:52:00,
2013-11-24 15:53:00,16.4,11.9,30.44,WNW,298,13.0,17.0,82,0.00,,,0.01,VWS V14.01,2013-11-24 20:53:00,
2013-11-24 15:54:00,16.1,11.9,30.44,WNW,292,20.0,22.0,83,0.00,,,0.01,VWS V14.01,2013-11-24 20:54:00,
2013-11-24 15:55:00,16.5,11.7,30.44,NW,313,11.0,17.0,81,0.00,,,0.01,VWS V14.01,2013-11-24 20:55:00,
2013-11-24 15:56:00,16.6,11.8,30.44,WNW,286,6.0,17.0,81,0.00,,,0.01,VWS V14.01,2013-11-24 20:56:00,
2013-11-24 15:57:00,16.6,11.8,30.44,NW,317,9.0,17.0,81,0.00,,,0.01,VWS V14.01,2013-11-24 20:57:00,
2013-11-24 15:58:00,16.6,11.8,30.44,WSW,254,9.0,17.0,81,0.00,,,0.01,VWS V14.01,2013-11-24 20:58:00,
2013-11-24 15:59:00,16.3,11.8,30.44,WNW,292,5.0,7.0,82,0.00,,,0.01,VWS V14.01,2013-11-24 20:59:00,
2013-11-24 16:00:00,16.6,11.8,30.45,NW,310,7.0,10.0,81,0.00,,,0.01,VWS V14.01,2013-11-24 21:00:00,
2013-11-24 16:01:00,16.6,11.5,30.45,NW,307,5.0,10.0,80,0.00,,,0.01,VWS V14.01,2013-11-24 21:01:00,
2013-11-24 16:02:00,16.5,11.4,30.45,NW,307,3.0,10.0,80,0.00,,,0.01,VWS V14.01,2013-11-24 21:02:00,
2013-11-24 16:03:00,16.5,11.4,30.45,WNW,299,12.0,15.0,80,0.00,,,0.01,VWS V14.01,2013-11-24 21:03:00,
2013-11-24 16:04:00,16.6,11.5,30.45,WNW,290,5.0,20.0,80,0.00,,,0.01,VWS V14.01,2013-11-24 21:04:00,
2013-11-24 16:05:00,16.5,11.7,30.44,NW,317,11.0,17.0,81,0.00,,,0.01,VWS V14.01,2013-11-24 21:05:00,
2013-11-24 16:06:00,16.2,11.1,30.45,NW,317,15.0,23.0,80,0.00,,,0.01,VWS V14.01,2013-11-24 21:06:00,
2013-11-24 16:07:00,16.1,11.3,30.45,WNW,303,11.0,23.0,81,0.00,,,0.01,VWS V14.01,2013-11-24 21:07:00,
2013-11-24 16:08:00,16.0,11.2,30.45,NW,320,14.0,23.0,81,0.00,,,0.01,VWS V14.01,2013-11-24 21:08:00,
2013-11-24 16:09:00,15.9,11.4,30.45,NW,313,11.0,23.0,82,0.00,,,0.01,VWS V14.01,2013-11-24 21:09:00,
2013-11-24 16:10:00,16.6,11.8,30.45,WNW,294,8.0,10.0,81,0.00,,,0.01,VWS V14.01,2013-11-24 21:10:00,
2013-11-24 16:11:00,15.8,11.3,30.45,WNW,299,13.0,15.0,82,0.00,,,0.01,VWS V14.01,2013-11-24 21:11:00,
2013-11-24 16:12:00,15.8,11.6,30.45,NW,307,13.0,16.0,83,0.00,,,0.01,VWS V14.01,2013-11-24 21:12:00,
2013-11-24 16:13:00,15.7,11.5,30.45,WNW,288,8.0,16.0,83,0.00,,,0.01,VWS V14.01,2013-11-24 21:13:00,
2013-11-24 16:14:00,15.7,11.5,30.45,NW,311,11.0,16.0,83,0.00,,,0.01,VWS V14.01,2013-11-24 21:14:00,
2013-11-24 16:15:00,16.4,11.3,30.45,WNW,287,17.0,23.0,80,0.00,,,0.01,VWS V14.01,2013-11-24 21:15:00,
2013-11-24 16:16:00,15.7,11.5,30.45,NNW,336,13.0,16.0,83,0.00,,,0.01,VWS V14.01,2013-11-24 21:16:00,
2013-11-24 16:17:00,15.7,11.7,30.45,NW,306,9.0,17.0,84,0.00,,,0.01,VWS V14.01,2013-11-24 21:17:00,
2013-11-24 16:18:00,15.7,11.7,30.45,West,276,11.0,17.0,84,0.00,,,0.01,VWS V14.01,2013-11-24 21:18:00,
2013-11-24 16:19:00,15.7,11.7,30.45,WNW,287,14.0,17.0,84,0.00,,,0.01,VWS V14.01,2013-11-24 21:19:00,
2013-11-24 16:20:00,15.8,11.3,30.45,West,281,8.0,15.0,82,0.00,,,0.01,VWS V14.01,2013-11-24 21:20:00,
2013-11-24 16:21:00,15.7,11.7,30.45,NW,322,15.0,17.0,84,0.00,,,0.01,VWS V14.01,2013-11-24 21:21:00,
2013-11-24 16:22:00,15.7,11.7,30.45,WNW,300,7.0,17.0,84,0.00,,,0.01,VWS V14.01,2013-11-24 21:22:00,
2013-11-24 16:23:00,15.7,11.7,30.45,WSW,257,8.0,17.0,84,0.00,,,0.01,VWS V14.01,2013-11-24 21:23:00,
2013-11-24 16:24:00,15.8,11.8,30.45,WNW,286,8.0,17.0,84,0.00,,,0.01,VWS V14.01,2013-11-24 21:24:00,
2013-11-24 16:25:00,15.7,11.5,30.45,NW,304,11.0,16.0,83,0.00,,,0.01,VWS V14.01,2013-11-24 21:25:00,
2013-11-24 16:26:00,15.8,11.8,30.45,NW,313,2.0,17.0,84,0.00,,,0.01,VWS V14.01,2013-11-24 21:26:00,
2013-11-24 16:27:00,15.8,11.6,30.45,NW,316,2.0,17.0,83,0.00,,,0.01,VWS V14.01,2013-11-24 21:27:00,
2013-11-24 16:28:00,15.7,11.5,30.45,WNW,295,1.0,17.0,83,0.00,,,0.01,VWS V14.01,2013-11-24 21:28:00,
2013-11-24 16:29:00,15.8,11.6,30.45,WSW,244,7.0,17.0,83,0.00,,,0.01,VWS V14.01,2013-11-24 21:29:00,
2013-11-24 16:30:00,15.7,11.7,30.45,WNW,288,13.0,14.0,84,0.00,,,0.01,VWS V14.01,2013-11-24 21:30:00,
2013-11-24 16:31:00,15.8,11.6,30.45,WNW,288,5.0,13.0,83,0.00,,,0.01,VWS V14.01,2013-11-24 21:31:00,
2013-11-24 16:32:00,15.8,11.6,30.45,WNW,298,10.0,13.0,83,0.00,,,0.01,VWS V14.01,2013-11-24 21:32:00,
2013-11-24 16:33:00,15.9,11.7,30.45,WNW,292,12.0,13.0,83,0.00,,,0.01,VWS V14.01,2013-11-24 21:33:00,
2013-11-24 16:34:00,15.9,11.7,30.45,West,271,7.0,13.0,83,0.00,,,0.01,VWS V14.01,2013-11-24 21:34:00,
2013-11-24 16:35:00,15.7,11.7,30.45,WNW,296,9.0,17.0,84,0.00,,,0.01,VWS V14.01,2013-11-24 21:35:00,
2013-11-24 16:36:00,15.9,11.4,30.45,West,262,11.0,13.0,82,0.00,,,0.01,VWS V14.01,2013-11-24 21:36:00,
2013-11-24 16:37:00,15.9,11.4,30.45,WNW,286,8.0,13.0,82,0.00,,,0.01,VWS V14.01,2013-11-24 21:37:00,
2013-11-24 16:38:00,16.0,11.5,30.45,West,280,7.0,13.0,82,0.00,,,0.01,VWS V14.01,2013-11-24 21:38:00,
2013-11-24 16:39:00,16.0,11.5,30.45,WNW,292,17.0,19.0,82,0.00,,,0.01,VWS V14.01,2013-11-24 21:39:00,
2013-11-24 16:40:00,15.8,11.6,30.45,WNW,289,9.0,13.0,83,0.00,,,0.01,VWS V14.01,2013-11-24 21:40:00,
2013-11-24 16:41:00,16.1,11.3,30.45,WNW,299,14.0,16.0,81,0.00,,,0.01,VWS V14.01,2013-11-24 21:41:00,
2013-11-24 16:42:00,16.0,11.2,30.45,WNW,292,6.0,16.0,81,0.00,,,0.01,VWS V14.01,2013-11-24 21:42:00,
2013-11-24 16:43:00,16.0,11.2,30.45,West,269,10.0,16.0,81,0.00,,,0.01,VWS V14.01,2013-11-24 21:43:00,
2013-11-24 16:44:00,16.0,10.9,30.45,West,279,10.0,17.0,80,0.00,,,0.01,VWS V14.01,2013-11-24 21:44:00,
2013-11-24 16:45:00,15.9,11.7,30.45,West,264,7.0,13.0,83,0.00,,,0.01,VWS V14.01,2013-11-24 21:45:00,
2013-11-24 16:46:00,15.9,10.8,30.45,West,265,11.0,17.0,80,0.00,,,0.01,VWS V14.01,2013-11-24 21:46:00,
2013-11-24 16:47:00,15.8,10.7,30.45,WNW,299,17.0,17.0,80,0.00,,,0.01,VWS V14.01,2013-11-24 21:47:00,
2013-11-24 16:48:00,15.8,10.7,30.45,West,267,16.0,18.0,80,0.00,,,0.01,VWS V14.01,2013-11-24 21:48:00,
2013-11-24 16:49:00,15.7,10.6,30.45,WNW,283,11.0,18.0,80,0.00,,,0.01,VWS V14.01,2013-11-24 21:49:00,
2013-11-24 16:50:00,16.1,11.3,30.45,West,276,7.0,16.0,81,0.00,,,0.01,VWS V14.01,2013-11-24 21:50:00,
2013-11-24 16:51:00,15.6,10.8,30.45,WNW,292,15.0,17.0,81,0.00,,,0.01,VWS V14.01,2013-11-24 21:51:00,
2013-11-24 16:52:00,15.5,10.7,30.45,West,266,8.0,17.0,81,0.00,,,0.01,VWS V14.01,2013-11-24 21:52:00,
2013-11-24 16:53:00,15.5,10.7,30.45,West,277,12.0,17.0,81,0.00,,,0.01,VWS V14.01,2013-11-24 21:53:00,
2013-11-24 16:54:00,15.4,10.9,30.45,WNW,284,9.0,17.0,82,0.00,,,0.01,VWS V14.01,2013-11-24 21:54:00,
2013-11-24 16:55:00,15.9,10.8,30.45,West,279,6.0,17.0,80,0.00,,,0.01,VWS V14.01,2013-11-24 21:55:00,
2013-11-24 16:56:00,15.3,10.8,30.45,WNW,291,11.0,17.0,82,0.00,,,0.01,VWS V14.01,2013-11-24 21:56:00,
2013-11-24 16:57:00,15.3,11.1,30.45,West,261,4.0,17.0,83,0.00,,,0.01,VWS V14.01,2013-11-24 21:57:00,
2013-11-24 16:58:00,15.3,11.1,30.45,West,265,10.0,17.0,83,0.00,,,0.01,VWS V14.01,2013-11-24 21:58:00,
2013-11-24 16:59:00,15.2,11.0,30.46,WNW,290,11.0,17.0,83,0.00,,,0.01,VWS V14.01,2013-11-24 21:59:00,
2013-11-24 17:00:00,15.6,10.8,30.45,WSW,250,7.0,12.0,81,0.00,,,0.01,VWS V14.01,2013-11-24 22:00:00,
2013-11-24 17:01:00,15.2,11.0,30.46,West,260,9.0,12.0,83,0.00,,,0.01,VWS V14.01,2013-11-24 22:01:00,
2013-11-24 17:02:00,15.2,11.0,30.46,WSW,256,7.0,12.0,83,0.00,,,0.01,VWS V14.01,2013-11-24 22:02:00,
2013-11-24 17:03:00,15.2,11.2,30.46,WSW,246,7.0,12.0,84,0.00,,,0.01,VWS V14.01,2013-11-24 22:03:00,
2013-11-24 17:04:00,15.2,11.2,30.46,NW,304,7.0,12.0,84,0.00,,,0.01,VWS V14.01,2013-11-24 22:04:00,
2013-11-24 17:05:00,15.3,10.8,30.45,West,275,11.0,17.0,82,0.00,,,0.01,VWS V14.01,2013-11-24 22:05:00,
2013-11-24 17:06:00,15.2,11.2,30.46,West,268,6.0,12.0,84,0.00,,,0.01,VWS V14.01,2013-11-24 22:06:00,
2013-11-24 17:07:00,15.3,11.3,30.46,NW,316,5.0,12.0,84,0.00,,,0.01,VWS V14.01,2013-11-24 22:07:00,
2013-11-24 17:08:00,15.3,11.3,30.46,WNW,298,18.0,18.0,84,0.00,,,0.01,VWS V14.01,2013-11-24 22:08:00,
2013-11-24 17:09:00,15.3,11.3,30.46,WNW,288,11.0,18.0,84,0.00,,,0.01,VWS V14.01,2013-11-24 22:09:00,
2013-11-24 17:10:00,15.2,11.0,30.46,West,263,10.0,12.0,83,0.00,,,0.01,VWS V14.01,2013-11-24 22:10:00,
2013-11-24 17:11:00,15.3,11.3,30.46,WNW,286,7.0,9.0,84,0.00,,,0.01,VWS V14.01,2013-11-24 22:11:00,
2013-11-24 17:12:00,15.3,11.3,30.46,WNW,294,6.0,9.0,84,0.00,,,0.01,VWS V14.01,2013-11-24 22:12:00,
2013-11-24 17:13:00,15.3,11.3,30.46,West,272,6.0,10.0,84,0.00,,,0.01,VWS V14.01,2013-11-24 22:13:00,
2013-11-24 17:14:00,15.3,11.3,30.47,WNW,296,3.0,10.0,84,0.00,,,0.01,VWS V14.01,2013-11-24 22:14:00,
2013-11-24 17:15:00,15.2,11.2,30.46,West,273,6.0,12.0,84,0.00,,,0.01,VWS V14.01,2013-11-24 22:15:00,
2013-11-24 17:16:00,15.3,11.3,30.47,West,267,7.0,13.0,84,0.00,,,0.01,VWS V14.01,2013-11-24 22:16:00,
2013-11-24 17:17:00,15.4,11.4,30.47,WNW,299,5.0,13.0,84,0.00,,,0.01,VWS V14.01,2013-11-24 22:17:00,
2013-11-24 17:18:00,15.4,11.4,30.47,NW,305,5.0,13.0,84,0.00,,,0.01,VWS V14.01,2013-11-24 22:18:00,
2013-11-24 17:19:00,15.4,11.4,30.47,NW,320,2.0,13.0,84,0.00,,,0.01,VWS V14.01,2013-11-24 22:19:00,
2013-11-24 17:20:00,15.3,11.3,30.46,West,276,9.0,9.0,84,0.00,,,0.01,VWS V14.01,2013-11-24 22:20:00,
2013-11-24 17:21:00,15.4,11.4,30.47,WNW,288,3.0,5.0,84,0.00,,,0.01,VWS V14.01,2013-11-24 22:21:00,
2013-11-24 17:22:00,15.4,11.4,30.47,WNW,288,1.0,5.0,84,0.00,,,0.01,VWS V14.01,2013-11-24 22:22:00,
2013-11-24 17:23:00,15.4,11.4,30.47,WNW,284,2.0,5.0,84,0.00,,,0.01,VWS V14.01,2013-11-24 22:23:00,
2013-11-24 17:24:00,15.4,11.4,30.47,WSW,247,4.0,5.0,84,0.00,,,0.01,VWS V14.01,2013-11-24 22:24:00,
2013-11-24 17:25:00,15.3,11.3,30.47,WSW,258,8.0,13.0,84,0.00,,,0.01,VWS V14.01,2013-11-24 22:25:00,
2013-11-24 17:26:00,15.3,11.3,30.47,WNW,283,6.0,11.0,84,0.00,,,0.01,VWS V14.01,2013-11-24 22:26:00,
2013-11-24 17:27:00,15.3,11.3,30.47,NW,307,4.0,11.0,84,0.00,,,0.01,VWS V14.01,2013-11-24 22:27:00,
2013-11-24 17:28:00,15.3,11.3,30.47,WNW,300,2.0,11.0,84,0.00,,,0.01,VWS V14.01,2013-11-24 22:28:00,
2013-11-24 17:29:00,15.3,11.6,30.48,WNW,282,0.0,11.0,85,0.00,,,0.01,VWS V14.01,2013-11-24 22:29:00,
2013-11-24 17:30:00,15.4,11.4,30.47,West,280,4.0,5.0,84,0.00,,,0.01,VWS V14.01,2013-11-24 22:30:00,
2013-11-24 17:32:00,15.2,11.5,30.48,West,281,2.0,5.0,85,0.00,,,0.01,VWS V14.01,2013-11-24 22:32:00,
2013-11-24 17:33:00,15.2,11.5,30.48,WSW,240,5.0,7.0,85,0.00,,,0.01,VWS V14.01,2013-11-24 22:33:00,
2013-11-24 17:34:00,15.2,11.5,30.48,WNW,286,7.0,7.0,85,0.00,,,0.01,VWS V14.01,2013-11-24 22:34:00,
2013-11-24 17:35:00,15.3,11.3,30.47,WNW,294,10.0,10.0,84,0.00,,,0.01,VWS V14.01,2013-11-24 22:35:00,
2013-11-24 17:36:00,15.2,11.5,30.48,WSW,254,8.0,18.0,85,0.00,,,0.01,VWS V14.01,2013-11-24 22:36:00,
2013-11-24 17:37:00,15.2,11.5,30.48,WNW,288,1.0,18.0,85,0.00,,,0.01,VWS V14.01,2013-11-24 22:37:00,
2013-11-24 17:38:00,15.2,11.5,30.48,WNW,288,6.0,18.0,85,0.00,,,0.01,VWS V14.01,2013-11-24 22:38:00,
2013-11-24 17:39:00,15.2,11.5,30.48,West,278,10.0,18.0,85,0.00,,,0.01,VWS V14.01,2013-11-24 22:39:00,
2013-11-24 17:40:00,15.3,11.6,30.48,WNW,286,3.0,3.0,85,0.00,,,0.01,VWS V14.01,2013-11-24 22:40:00,
2013-11-24 17:41:00,15.2,11.5,30.48,WSW,240,3.0,11.0,85,0.00,,,0.01,VWS V14.01,2013-11-24 22:41:00,
2013-11-24 17:42:00,15.2,11.5,30.48,WNW,288,5.0,11.0,85,0.00,,,0.01,VWS V14.01,2013-11-24 22:42:00,
2013-11-24 17:43:00,15.2,11.5,30.48,NNW,334,7.0,11.0,85,0.00,,,0.01,VWS V14.01,2013-11-24 22:43:00,
2013-11-24 17:44:00,15.2,11.5,30.48,WNW,290,3.0,11.0,85,0.00,,,0.01,VWS V14.01,2013-11-24 22:44:00,
2013-11-24 17:45:00,15.2,11.5,30.48,WSW,250,15.0,18.0,85,0.00,,,0.01,VWS V14.01,2013-11-24 22:45:00,
2013-11-24 17:46:00,15.2,11.5,30.48,NW,306,3.0,11.0,85,0.00,,,0.01,VWS V14.01,2013-11-24 22:46:00,
2013-11-24 17:47:00,15.2,11.5,30.48,SW,235,10.0,11.0,85,0.00,,,0.01,VWS V14.01,2013-11-24 22:47:00,
2013-11-24 17:48:00,15.2,11.5,30.48,West,261,9.0,12.0,85,0.00,,,0.01,VWS V14.01,2013-11-24 22:48:00,
2013-11-24 17:49:00,15.3,11.6,30.48,West,265,5.0,12.0,85,0.00,,,0.01,VWS V14.01,2013-11-24 22:49:00,
2013-11-24 17:50:00,15.2,11.5,30.48,West,262,3.0,11.0,85,0.00,,,0.01,VWS V14.01,2013-11-24 22:50:00,
2013-11-24 17:51:00,15.3,11.3,30.48,West,279,5.0,8.0,84,0.00,,,0.01,VWS V14.01,2013-11-24 22:51:00,
2013-11-24 17:52:00,15.3,11.3,30.48,WNW,284,6.0,8.0,84,0.00,,,0.01,VWS V14.01,2013-11-24 22:52:00,
2013-11-24 17:53:00,15.3,11.3,30.48,WNW,293,7.0,11.0,84,0.00,,BKN033,0.01,VWS V14.01,2013-11-24 22:53:00,
2013-11-24 17:54:00,15.4,11.4,30.48,West,281,11.0,15.0,84,0.00,,BKN033,0.01,VWS V14.01,2013-11-24 22:54:00,
2013-11-24 17:55:00,15.2,11.5,30.48,West,273,6.0,11.0,85,0.00,,,0.01,VWS V14.01,2013-11-24 22:55:00,
2013-11-24 17:56:00,15.4,11.2,30.48,WNW,294,9.0,15.0,83,0.00,,BKN033,0.01,VWS V14.01,2013-11-24 22:56:00,
2013-11-24 17:57:00,15.4,11.2,30.48,WSW,247,7.0,15.0,83,0.00,,BKN033,0.01,VWS V14.01,2013-11-24 22:57:00,
2013-11-24 17:58:00,15.4,11.2,30.48,West,279,12.0,15.0,83,0.00,,BKN033,0.01,VWS V14.01,2013-11-24 22:58:00,
2013-11-24 17:59:00,15.4,11.2,30.48,NW,304,10.0,15.0,83,0.00,,BKN033,0.01,VWS V14.01,2013-11-24 22:59:00,
2013-11-24 18:00:00,15.3,11.3,30.48,WNW,292,5.0,8.0,84,0.00,,,0.01,VWS V14.01,2013-11-24 23:00:00,
2013-11-24 18:01:00,15.3,11.1,30.48,WNW,297,3.0,10.0,83,0.00,,BKN033,0.01,VWS V14.01,2013-11-24 23:01:00,
2013-11-24 18:02:00,15.3,11.1,30.48,WNW,286,9.0,12.0,83,0.00,,BKN033,0.01,VWS V14.01,2013-11-24 23:02:00,
2013-11-24 18:03:00,15.3,11.1,30.48,NW,313,10.0,13.0,83,0.00,,BKN033,0.01,VWS V14.01,2013-11-24 23:03:00,
2013-11-24 18:04:00,15.3,10.8,30.48,West,277,10.0,13.0,82,0.00,,BKN033,0.01,VWS V14.01,2013-11-24 23:04:00,
2013-11-24 18:05:00,15.4,11.2,30.48,WNW,286,9.0,15.0,83,0.00,,BKN033,0.01,VWS V14.01,2013-11-24 23:05:00,
2013-11-24 18:06:00,15.3,10.8,30.48,WNW,294,10.0,13.0,82,0.00,,BKN033,0.01,VWS V14.01,2013-11-24 23:06:00,
2013-11-24 18:07:00,15.3,10.8,30.48,West,275,12.0,14.0,82,0.00,,BKN033,0.01,VWS V14.01,2013-11-24 23:07:00,
2013-11-24 18:08:00,15.3,10.8,30.48,West,264,5.0,14.0,82,0.00,,BKN033,0.01,VWS V14.01,2013-11-24 23:08:00,
2013-11-24 18:09:00,15.3,10.8,30.48,WNW,287,17.0,18.0,82,0.00,,BKN033,0.01,VWS V14.01,2013-11-24 23:09:00,
2013-11-24 18:10:00,15.4,11.2,30.48,NW,309,9.0,10.0,83,0.00,,BKN033,0.01,VWS V14.01,2013-11-24 23:10:00,
2013-11-24 18:11:00,15.4,10.6,30.48,West,274,15.0,21.0,81,0.00,,BKN033,0.01,VWS V14.01,2013-11-24 23:11:00,
2013-11-24 18:12:00,15.4,10.6,30.48,West,270,14.0,21.0,81,0.00,,BKN033,0.01,VWS V14.01,2013-11-24 23:12:00,
2013-11-24 18:13:00,15.4,10.6,30.48,WNW,286,13.0,21.0,81,0.00,,BKN033,0.01,VWS V14.01,2013-11-24 23:13:00,
2013-11-24 18:14:00,15.4,10.4,30.49,WNW,284,13.0,21.0,80,0.00,,BKN033,0.01,VWS V14.01,2013-11-24 23:14:00,
2013-11-24 18:15:00,15.3,10.8,30.48,NW,309,5.0,13.0,82,0.00,,BKN033,0.01,VWS V14.01,2013-11-24 23:15:00,
2013-11-24 18:16:00,15.4,10.4,30.49,West,279,16.0,21.0,80,0.00,,BKN033,0.01,VWS V14.01,2013-11-24 23:16:00,
2013-11-24 18:17:00,15.4,10.4,30.49,West,265,9.0,21.0,80,0.00,,BKN033,0.01,VWS V14.01,2013-11-24 23:17:00,
2013-11-24 18:18:00,15.4,10.4,30.49,WNW,301,11.0,21.0,80,0.00,,BKN033,0.01,VWS V14.01,2013-11-24 23:18:00,
2013-11-24 18:19:00,15.3,10.2,30.49,NW,305,14.0,21.0,80,0.00,,BKN033,0.01,VWS V14.01,2013-11-24 23:19:00,
2013-11-24 18:20:00,15.4,10.6,30.48,WNW,289,11.0,21.0,81,0.00,,BKN033,0.01,VWS V14.01,2013-11-24 23:20:00,
2013-11-24 18:21:00,15.3,10.2,30.49,West,276,6.0,17.0,80,0.00,,BKN033,0.01,VWS V14.01,2013-11-24 23:21:00,
2013-11-24 18:22:00,15.2,10.1,30.49,WNW,284,15.0,17.0,80,0.00,,BKN033,0.01,VWS V14.01,2013-11-24 23:22:00,
2013-11-24 18:23:00,15.2,9.9,30.49,WNW,294,10.0,17.0,79,0.00,,OVC043,0.01,VWS V14.01,2013-11-24 23:23:00,
2013-11-24 18:24:00,15.1,9.8,30.49,NW,318,6.0,17.0,79,0.00,,OVC043,0.01,VWS V14.01,2013-11-24 23:24:00,
2013-11-24 18:25:00,15.4,10.4,30.49,WNW,291,13.0,21.0,80,0.00,,BKN033,0.01,VWS V14.01,2013-11-24 23:25:00,
2013-11-24 18:26:00,15.0,9.7,30.49,WNW,283,9.0,17.0,79,0.00,,OVC043,0.01,VWS V14.01,2013-11-24 23:26:00,
2013-11-24 18:27:00,15.0,9.7,30.49,WSW,251,7.0,17.0,79,0.00,,OVC043,0.01,VWS V14.01,2013-11-24 23:27:00,
2013-11-24 18:28:00,14.9,9.6,30.49,West,271,10.0,17.0,79,0.00,,OVC043,0.01,VWS V14.01,2013-11-24 23:28:00,
2013-11-24 18:29:00,14.8,9.5,30.49,NW,304,14.0,17.0,79,0.00,,OVC043,0.01,VWS V14.01,2013-11-24 23:29:00,
2013-11-24 18:30:00,15.2,10.1,30.49,WSW,248,5.0,17.0,80,0.00,,BKN033,0.01,VWS V14.01,2013-11-24 23:30:00,
2013-11-24 18:31:00,14.8,9.5,30.49,West,272,15.0,15.0,79,0.00,,OVC043,0.01,VWS V14.01,2013-11-24 23:31:00,
2013-11-24 18:32:00,14.8,9.8,30.49,WNW,283,18.0,19.0,80,0.00,,OVC043,0.01,VWS V14.01,2013-11-24 23:32:00,
2013-11-24 18:33:00,14.8,9.8,30.49,WNW,298,18.0,19.0,80,0.00,,OVC043,0.01,VWS V14.01,2013-11-24 23:33:00,
2013-11-24 18:34:00,14.9,9.9,30.49,WNW,296,17.0,19.0,80,0.00,,OVC043,0.01,VWS V14.01,2013-11-24 23:34:00,
2013-11-24 18:35:00,15.0,9.7,30.49,West,273,7.0,17.0,79,0.00,,OVC043,0.01,VWS V14.01,2013-11-24 23:35:00,
2013-11-24 18:36:00,14.8,9.8,30.49,West,279,9.0,19.0,80,0.00,,OVC043,0.01,VWS V14.01,2013-11-24 23:36:00,
2013-11-24 18:37:00,14.8,9.8,30.49,WNW,298,12.0,19.0,80,0.00,,OVC043,0.01,VWS V14.01,2013-11-24 23:37:00,
2013-11-24 18:38:00,14.8,9.8,30.49,West,267,15.0,19.0,80,0.00,,OVC043,0.01,VWS V14.01,2013-11-24 23:38:00,
2013-11-24 18:39:00,14.8,9.8,30.49,WNW,297,8.0,19.0,80,0.00,,OVC043,0.01,VWS V14.01,2013-11-24 23:39:00,
2013-11-24 18:40:00,14.8,9.5,30.49,West,270,11.0,15.0,79,0.00,,OVC043,0.01,VWS V14.01,2013-11-24 23:40:00,
2013-11-24 18:41:00,14.7,9.7,30.49,WNW,296,14.0,14.0,80,0.00,,OVC043,0.01,VWS V14.01,2013-11-24 23:41:00,
2013-11-24 18:42:00,14.7,9.7,30.49,NW,307,9.0,14.0,80,0.00,,OVC043,0.01,VWS V14.01,2013-11-24 23:42:00,
2013-11-24 18:43:00,14.6,9.6,30.49,West,268,10.0,14.0,80,0.00,,OVC043,0.01,VWS V14.01,2013-11-24 23:43:00,
2013-11-24 18:44:00,14.6,9.6,30.49,NW,309,3.0,14.0,80,0.00,,OVC043,0.01,VWS V14.01,2013-11-24 23:44:00,
2013-11-24 18:45:00,14.8,9.8,30.49,WSW,243,11.0,19.0,80,0.00,,OVC043,0.01,VWS V14.01,2013-11-24 23:45:00,
2013-11-24 18:46:00,14.5,9.5,30.49,WNW,294,5.0,14.0,80,0.00,,OVC043,0.01,VWS V14.01,2013-11-24 23:46:00,
2013-11-24 18:47:00,14.4,9.4,30.49,WNW,288,5.0,14.0,80,0.00,,OVC043,0.01,VWS V14.01,2013-11-24 23:47:00,
2013-11-24 18:48:00,14.4,9.6,30.49,WNW,287,5.0,14.0,81,0.00,,OVC043,0.01,VWS V14.01,2013-11-24 23:48:00,
2013-11-24 18:49:00,14.4,9.4,30.49,WNW,288,10.0,14.0,80,0.00,,OVC043,0.01,VWS V14.01,2013-11-24 23:49:00,
2013-11-24 18:50:00,14.7,9.7,30.49,West,279,9.0,13.0,80,0.00,,OVC043,0.01,VWS V14.01,2013-11-24 23:50:00,
2013-11-24 18:51:00,14.4,9.6,30.49,WNW,298,5.0,11.0,81,0.00,,OVC043,0.01,VWS V14.01,2013-11-24 23:51:00,
2013-11-24 18:52:00,14.3,9.6,30.49,WNW,302,6.0,11.0,81,0.00,,OVC043,0.01,VWS V14.01,2013-11-24 23:52:00,
2013-11-24 18:53:00,14.3,9.6,30.49,WNW,292,13.0,13.0,81,0.00,,OVC043,0.01,VWS V14.01,2013-11-24 23:53:00,
2013-11-24 18:54:00,14.3,9.6,30.49,WSW,257,11.0,13.0,81,0.00,,OVC043,0.01,VWS V14.01,2013-11-24 23:54:00,
2013-11-24 18:55:00,14.5,9.5,30.49,WNW,292,12.0,14.0,80,0.00,,OVC043,0.01,VWS V14.01,2013-11-24 23:55:00,
2013-11-24 18:56:00,14.4,9.6,30.49,WNW,284,6.0,16.0,81,0.00,,OVC043,0.01,VWS V14.01,2013-11-24 23:56:00,
2013-11-24 18:57:00,14.4,9.6,30.49,West,277,7.0,16.0,81,0.00,,OVC043,0.01,VWS V14.01,2013-11-24 23:57:00,
2013-11-24 18:58:00,14.3,9.6,30.49,WNW,284,7.0,16.0,81,0.00,,OVC043,0.01,VWS V14.01,2013-11-24 23:58:00,
2013-11-24 18:59:00,14.2,9.4,30.50,WNW,284,5.0,16.0,81,0.00,,OVC043,0.01,VWS V14.01,2013-11-24 23:59:00,
2013-11-24 19:00:00,14.4,9.6,30.49,WNW,301,3.0,11.0,81,0.00,,OVC043,0.01,VWS V14.01,2013-11-25 00:00:00,
2013-11-24 19:01:00,14.1,9.4,30.50,WNW,287,4.0,11.0,81,0.00,,OVC043,0.01,VWS V14.01,2013-11-25 00:01:00,
2013-11-24 19:02:00,14.1,9.4,30.50,WNW,290,8.0,11.0,81,0.00,,OVC043,0.01,VWS V14.01,2013-11-25 00:02:00,
2013-11-24 19:03:00,14.1,9.4,30.50,West,268,7.0,13.0,81,0.00,,OVC043,0.01,VWS V14.01,2013-11-25 00:03:00,
2013-11-24 19:04:00,14.2,9.4,30.50,West,265,6.0,13.0,81,0.00,,OVC043,0.01,VWS V14.01,2013-11-25 00:04:00,
2013-11-24 19:05:00,14.4,9.6,30.49,West,273,6.0,16.0,81,0.00,,OVC043,0.01,VWS V14.01,2013-11-25 00:05:00,
2013-11-24 19:06:00,14.2,9.4,30.50,NW,305,4.0,13.0,81,0.00,,OVC043,0.01,VWS V14.01,2013-11-25 00:06:00,
2013-11-24 19:07:00,14.1,9.4,30.50,West,269,4.0,13.0,81,0.00,,OVC043,0.01,VWS V14.01,2013-11-25 00:07:00,
2013-11-24 19:08:00,14.1,9.4,30.50,NNW,337,4.0,13.0,81,0.00,,OVC043,0.01,VWS V14.01,2013-11-25 00:08:00,
2013-11-24 19:09:00,14.1,9.1,30.50,WSW,242,10.0,15.0,80,0.00,,OVC043,0.01,VWS V14.01,2013-11-25 00:09:00,
2013-11-24 19:10:00,14.1,9.4,30.50,WNW,288,5.0,11.0,81,0.00,,OVC043,0.01,VWS V14.01,2013-11-25 00:10:00,
2013-11-24 19:11:00,14.1,9.1,30.50,West,266,7.0,12.0,80,0.00,,OVC043,0.01,VWS V14.01,2013-11-25 00:11:00,
2013-11-24 19:12:00,14.1,9.1,30.50,West,279,5.0,12.0,80,0.00,,OVC043,0.01,VWS V14.01,2013-11-25 00:12:00,
2013-11-24 19:13:00,14.1,9.1,30.50,West,275,5.0,12.0,80,0.00,,OVC043,0.01,VWS V14.01,2013-11-25 00:13:00,
2013-11-24 19:14:00,14.1,9.1,30.50,WNW,284,4.0,12.0,80,0.00,,OVC043,0.01,VWS V14.01,2013-11-25 00:14:00,
2013-11-24 19:15:00,14.2,9.4,30.50,NW,312,3.0,13.0,81,0.00,,OVC043,0.01,VWS V14.01,2013-11-25 00:15:00,
2013-11-24 19:16:00,14.1,9.1,30.50,WNW,302,2.0,12.0,80,0.00,,OVC043,0.01,VWS V14.01,2013-11-25 00:16:00,
2013-11-24 19:17:00,14.1,9.1,30.50,SW,221,5.0,12.0,80,0.00,,OVC043,0.01,VWS V14.01,2013-11-25 00:17:00,
2013-11-24 19:18:00,14.1,9.1,30.50,WSW,241,4.0,12.0,80,0.00,,OVC043,0.01,VWS V14.01,2013-11-25 00:18:00,
2013-11-24 19:19:00,14.0,9.0,30.50,WNW,296,9.0,13.0,80,0.00,,OVC043,0.01,VWS V14.01,2013-11-25 00:19:00,
2013-11-24 19:20:00,14.1,9.1,30.50,West,269,6.0,12.0,80,0.00,,OVC043,0.01,VWS V14.01,2013-11-25 00:20:00,
2013-11-24 19:21:00,14.1,9.1,30.50,NW,304,12.0,16.0,80,0.00,,OVC043,0.01,VWS V14.01,2013-11-25 00:21:00,
2013-11-24 19:22:00,14.2,9.2,30.50,WNW,303,6.0,16.0,80,0.00,,OVC043,0.01,VWS V14.01,2013-11-25 00:22:00,
2013-11-24 19:23:00,14.2,9.2,30.50,WNW,299,2.0,16.0,80,0.00,,FEW047,0.01,VWS V14.01,2013-11-25 00:23:00,
2013-11-24 19:24:00,14.0,9.0,30.50,WSW,254,12.0,16.0,80,0.00,,FEW047,0.01,VWS V14.01,2013-11-25 00:24:00,
2013-11-24 19:25:00,14.1,9.1,30.50,WNW,302,3.0,12.0,80,0.00,,OVC043,0.01,VWS V14.01,2013-11-25 00:25:00,
2013-11-24 19:26:00,14.0,9.0,30.50,West,269,9.0,16.0,80,0.00,,FEW047,0.01,VWS V14.01,2013-11-25 00:26:00,
2013-11-24 19:27:00,14.0,9.0,30.50,West,263,6.0,16.0,80,0.00,,FEW047,0.01,VWS V14.01,2013-11-25 00:27:00,
2013-11-24 19:28:00,14.0,9.0,30.50,WSW,252,3.0,16.0,80,0.00,,FEW047,0.01,VWS V14.01,2013-11-25 00:28:00,
2013-11-24 19:29:00,14.0,9.3,30.50,West,271,5.0,16.0,81,0.00,,FEW047,0.01,VWS V14.01,2013-11-25 00:29:00,
2013-11-24 19:30:00,14.1,9.1,30.50,NW,311,15.0,15.0,80,0.00,,OVC043,0.01,VWS V14.01,2013-11-25 00:30:00,
2013-11-24 19:31:00,13.9,9.2,30.50,West,265,7.0,11.0,81,0.00,,FEW047,0.01,VWS V14.01,2013-11-25 00:31:00,
2013-11-24 19:32:00,13.8,9.1,30.50,WNW,302,0.0,11.0,81,0.00,,FEW047,0.01,VWS V14.01,2013-11-25 00:32:00,
2013-11-24 19:33:00,13.7,9.0,30.50,West,265,3.0,11.0,81,0.00,,FEW047,0.01,VWS V14.01,2013-11-25 00:33:00,
2013-11-24 19:34:00,13.7,9.0,30.50,NW,306,11.0,16.0,81,0.00,,FEW047,0.01,VWS V14.01,2013-11-25 00:34:00,
2013-11-24 19:35:00,14.0,9.0,30.50,West,264,7.0,16.0,80,0.00,,FEW047,0.01,VWS V14.01,2013-11-25 00:35:00,
2013-11-24 19:36:00,13.7,9.0,30.50,West,274,6.0,16.0,81,0.00,,FEW047,0.01,VWS V14.01,2013-11-25 00:36:00,
2013-11-24 19:37:00,13.8,9.1,30.50,West,259,12.0,16.0,81,0.00,,FEW047,0.01,VWS V14.01,2013-11-25 00:37:00,
2013-11-24 19:38:00,13.7,9.0,30.50,WNW,292,9.0,16.0,81,0.00,,FEW047,0.01,VWS V14.01,2013-11-25 00:38:00,
2013-11-24 19:39:00,13.8,9.1,30.50,WSW,252,9.0,16.0,81,0.00,,FEW047,0.01,VWS V14.01,2013-11-25 00:39:00,
2013-11-24 19:40:00,13.9,8.9,30.50,West,277,6.0,11.0,80,0.00,,FEW047,0.01,VWS V14.01,2013-11-25 00:40:00,
2013-11-24 19:41:00,13.9,9.2,30.50,WSW,253,6.0,11.0,81,0.00,,FEW047,0.01,VWS V14.01,2013-11-25 00:41:00,
2013-11-24 19:42:00,13.9,9.2,30.50,WSW,257,2.0,11.0,81,0.00,,FEW047,0.01,VWS V14.01,2013-11-25 00:42:00,
2013-11-24 19:43:00,13.8,9.1,30.50,WSW,248,5.0,11.0,81,0.00,,FEW047,0.01,VWS V14.01,2013-11-25 00:43:00,
2013-11-24 19:44:00,13.7,9.0,30.50,SW,230,7.0,11.0,81,0.00,,FEW047,0.01,VWS V14.01,2013-11-25 00:44:00,
2013-11-24 19:45:00,13.7,9.0,30.50,West,272,7.0,16.0,81,0.00,,FEW047,0.01,VWS V14.01,2013-11-25 00:45:00,
2013-11-24 19:46:00,13.7,9.0,30.50,WSW,238,1.0,11.0,81,0.00,,FEW047,0.01,VWS V14.01,2013-11-25 00:46:00,
2013-11-24 19:47:00,13.6,8.9,30.50,SSW,207,2.0,11.0,81,0.00,,FEW047,0.01,VWS V14.01,2013-11-25 00:47:00,
2013-11-24 19:48:00,13.5,8.8,30.50,SW,236,4.0,11.0,81,0.00,,FEW047,0.01,VWS V14.01,2013-11-25 00:48:00,
2013-11-24 19:49:00,13.5,8.8,30.50,West,279,6.0,11.0,81,0.00,,FEW047,0.01,VWS V14.01,2013-11-25 00:49:00,
2013-11-24 19:50:00,13.9,9.2,30.50,WSW,244,5.0,11.0,81,0.00,,FEW047,0.01,VWS V14.01,2013-11-25 00:50:00,
2013-11-24 19:51:00,13.6,9.1,30.50,West,269,5.0,12.0,82,0.00,,FEW047,0.01,VWS V14.01,2013-11-25 00:51:00,
2013-11-24 19:52:00,13.6,9.1,30.50,SW,216,2.0,12.0,82,0.00,,FEW047,0.01,VWS V14.01,2013-11-25 00:52:00,
2013-11-24 19:53:00,13.6,9.1,30.50,SSW,206,0.0,12.0,82,0.00,,FEW047,0.01,VWS V14.01,2013-11-25 00:53:00,
2013-11-24 19:54:00,13.5,9.0,30.50,WNW,294,5.0,12.0,82,0.00,,FEW047,0.01,VWS V14.01,2013-11-25 00:54:00,
2013-11-24 19:55:00,13.5,9.0,30.50,NE,42,1.0,12.0,82,0.00,,FEW047,0.01,VWS V14.01,2013-11-25 00:55:00,
2013-11-24 19:56:00,13.7,9.0,30.50,SW,235,1.0,11.0,81,0.00,,FEW047,0.01,VWS V14.01,2013-11-25 00:56:00,
2013-11-24 19:57:00,13.5,9.0,30.50,WSW,252,8.0,12.0,82,0.00,,FEW047,0.01,VWS V14.01,2013-11-25 00:57:00,
2013-11-24 19:58:00,13.4,8.9,30.50,West,261,6.0,12.0,82,0.00,,FEW047,0.01,VWS V14.01,2013-11-25 00:58:00,
2013-11-24 19:59:00,13.5,9.0,30.49,WSW,242,4.0,12.0,82,0.00,,FEW047,0.01,VWS V14.01,2013-11-25 00:59:00,
2013-11-24 20:00:00,13.5,9.0,30.49,WSW,238,2.0,12.0,82,0.00,,FEW047,0.01,VWS V14.01,2013-11-25 01:00:00,
2013-11-24 20:01:00,13.6,9.1,30.50,WSW,243,6.0,12.0,82,0.00,,FEW047,0.01,VWS V14.01,2013-11-25 01:01:00,
2013-11-24 20:02:00,13.5,9.0,30.49,West,267,5.0,5.0,82,0.00,,FEW047,0.01,VWS V14.01,2013-11-25 01:02:00,
2013-11-24 20:03:00,13.5,9.0,30.49,WSW,246,2.0,5.0,82,0.00,,FEW047,0.01,VWS V14.01,2013-11-25 01:03:00,
2013-11-24 20:04:00,13.5,9.0,30.49,SW,225,2.0,6.0,82,0.00,,FEW047,0.01,VWS V14.01,2013-11-25 01:04:00,
2013-11-24 20:05:00,13.5,9.0,30.49,West,277,5.0,7.0,82,0.00,,FEW047,0.01,VWS V14.01,2013-11-25 01:05:00,
2013-11-24 20:06:00,13.5,9.0,30.50,SW,234,2.0,12.0,82,0.00,,FEW047,0.01,VWS V14.01,2013-11-25 01:06:00,
2013-11-24 20:07:00,13.3,8.8,30.49,SW,230,2.0,7.0,82,0.00,,FEW047,0.01,VWS V14.01,2013-11-25 01:07:00,
2013-11-24 20:08:00,13.2,8.8,30.49,West,265,3.0,7.0,82,0.00,,FEW047,0.01,VWS V14.01,2013-11-25 01:08:00,
2013-11-24 20:09:00,13.2,8.8,30.49,West,265,3.0,7.0,82,0.00,,FEW047,0.01,VWS V14.01,2013-11-25 01:09:00,
2013-11-24 20:10:00,13.1,8.6,30.49,West,265,0.0,3.0,82,0.00,,FEW047,0.01,VWS V14.01,2013-11-25 01:10:00,
2013-11-24 20:11:00,13.2,8.8,30.49,SSW,211,1.0,3.0,82,0.00,,FEW047,0.01,VWS V14.01,2013-11-25 01:11:00,
2013-11-24 20:12:00,13.5,9.0,30.49,West,265,5.0,5.0,82,0.00,,FEW047,0.01,VWS V14.01,2013-11-25 01:12:00,
2013-11-24 20:13:00,13.3,8.8,30.49,WSW,237,0.0,6.0,82,0.00,,FEW047,0.01,VWS V14.01,2013-11-25 01:13:00,
2013-11-24 20:14:00,13.2,8.8,30.50,West,263,9.0,11.0,82,0.00,,FEW047,0.01,VWS V14.01,2013-11-25 01:14:00,
2013-11-24 20:15:00,13.2,8.8,30.50,SW,231,4.0,11.0,82,0.00,,FEW047,0.01,VWS V14.01,2013-11-25 01:15:00,
2013-11-24 20:16:00,13.2,8.8,30.50,SW,236,4.0,11.0,82,0.00,,FEW047,0.01,VWS V14.01,2013-11-25 01:16:00,
2013-11-24 20:17:00,13.3,8.8,30.49,SW,230,2.0,7.0,82,0.00,,FEW047,0.01,VWS V14.01,2013-11-25 01:17:00,
2013-11-24 20:18:00,13.3,8.8,30.50,WNW,289,2.0,11.0,82,0.00,,FEW047,0.01,VWS V14.01,2013-11-25 01:18:00,
2013-11-24 20:19:00,13.3,8.8,30.50,WNW,286,2.0,11.0,82,0.00,,FEW047,0.01,VWS V14.01,2013-11-25 01:19:00,
2013-11-24 20:20:00,13.2,8.8,30.50,West,279,2.0,3.0,82,0.00,,FEW047,0.01,VWS V14.01,2013-11-25 01:20:00,
2013-11-24 20:21:00,13.2,8.8,30.50,West,275,3.0,3.0,82,0.00,,FEW047,0.01,VWS V14.01,2013-11-25 01:21:00,
2013-11-24 20:22:00,13.2,8.8,30.49,South,184,3.0,6.0,82,0.00,,FEW047,0.01,VWS V14.01,2013-11-25 01:22:00,
2013-11-24 20:23:00,13.2,8.8,30.50,South,171,1.0,5.0,82,0.00,,OVC039,0.01,VWS V14.01,2013-11-25 01:23:00,
2013-11-24 20:24:00,13.3,8.8,30.50,WSW,250,2.0,5.0,82,0.00,,OVC039,0.01,VWS V14.01,2013-11-25 01:24:00,
2013-11-24 20:25:00,13.3,8.8,30.50,WSW,254,4.0,5.0,82,0.00,,OVC039,0.01,VWS V14.01,2013-11-25 01:25:00,
2013-11-24 20:26:00,13.3,8.8,30.50,NW,311,3.0,9.0,82,0.00,,OVC039,0.01,VWS V14.01,2013-11-25 01:26:00,
2013-11-24 20:27:00,13.2,8.8,30.50,WNW,288,2.0,11.0,82,0.00,,FEW047,0.01,VWS V14.01,2013-11-25 01:27:00,
2013-11-24 20:28:00,13.3,8.8,30.50,WSW,248,4.0,9.0,82,0.00,,OVC039,0.01,VWS V14.01,2013-11-25 01:28:00,
2013-11-24 20:29:00,13.3,8.8,30.50,WSW,254,2.0,9.0,82,0.00,,OVC039,0.01,VWS V14.01,2013-11-25 01:29:00,
2013-11-24 20:30:00,13.3,8.8,30.50,SW,234,5.0,8.0,82,0.00,,OVC039,0.01,VWS V14.01,2013-11-25 01:30:00,
2013-11-24 20:31:00,13.2,8.8,30.50,West,279,3.0,8.0,82,0.00,,OVC039,0.01,VWS V14.01,2013-11-25 01:31:00,
2013-11-24 20:32:00,13.2,8.8,30.50,SSW,203,0.0,5.0,82,0.00,,FEW047,0.01,VWS V14.01,2013-11-25 01:32:00,
2013-11-24 20:33:00,13.2,8.8,30.50,WNW,286,1.0,8.0,82,0.00,,OVC039,0.01,VWS V14.01,2013-11-25 01:33:00,
2013-11-24 20:34:00,13.1,8.6,30.50,WNW,286,0.0,8.0,82,0.00,,OVC039,0.01,VWS V14.01,2013-11-25 01:34:00,
2013-11-24 20:35:00,13.1,8.6,30.50,WNW,286,1.0,8.0,82,0.00,,OVC039,0.01,VWS V14.01,2013-11-25 01:35:00,
2013-11-24 20:36:00,13.0,8.6,30.50,WSW,257,10.0,11.0,82,0.00,,OVC039,0.01,VWS V14.01,2013-11-25 01:36:00,
2013-11-24 20:37:00,13.3,8.8,30.50,WSW,243,4.0,9.0,82,0.00,,OVC039,0.01,VWS V14.01,2013-11-25 01:37:00,
2013-11-24 20:38:00,13.2,8.8,30.50,West,262,4.0,11.0,82,0.00,,OVC039,0.01,VWS V14.01,2013-11-25 01:38:00,
2013-11-24 20:39:00,13.2,8.8,30.50,SW,228,3.0,11.0,82,0.00,,OVC039,0.01,VWS V14.01,2013-11-25 01:39:00,
2013-11-24 20:40:00,13.2,8.8,30.50,WSW,256,4.0,4.0,82,0.00,,OVC039,0.01,VWS V14.01,2013-11-25 01:40:00,
2013-11-24 20:41:00,13.2,8.8,30.50,WNW,286,3.0,6.0,82,0.00,,OVC039,0.01,VWS V14.01,2013-11-25 01:41:00,
2013-11-24 20:42:00,13.2,8.8,30.50,West,277,4.0,8.0,82,0.00,,OVC039,0.01,VWS V14.01,2013-11-25 01:42:00,
2013-11-24 20:43:00,13.1,8.6,30.50,NW,314,0.0,6.0,82,0.00,,OVC039,0.01,VWS V14.01,2013-11-25 01:43:00,
2013-11-24 20:44:00,13.0,8.6,30.50,SW,235,4.0,6.0,82,0.00,,OVC039,0.01,VWS V14.01,2013-11-25 01:44:00,
2013-11-24 20:45:00,12.9,8.4,30.50,WSW,250,2.0,6.0,82,0.00,,OVC039,0.01,VWS V14.01,2013-11-25 01:45:00,
2013-11-24 20:46:00,12.8,8.4,30.50,WSW,249,0.0,6.0,82,0.00,,OVC039,0.01,VWS V14.01,2013-11-25 01:46:00,
2013-11-24 20:47:00,13.1,8.6,30.50,West,269,9.0,11.0,82,0.00,,OVC039,0.01,VWS V14.01,2013-11-25 01:47:00,
2013-11-24 20:48:00,12.7,8.3,30.50,WSW,244,4.0,7.0,82,0.00,,OVC039,0.01,VWS V14.01,2013-11-25 01:48:00,
2013-11-24 20:49:00,12.8,8.4,30.50,WSW,244,3.0,7.0,82,0.00,,OVC039,0.01,VWS V14.01,2013-11-25 01:49:00,
2013-11-24 20:50:00,12.8,8.4,30.50,West,261,3.0,4.0,82,0.00,,OVC039,0.01,VWS V14.01,2013-11-25 01:50:00,
2013-11-24 20:51:00,12.9,8.4,30.50,West,273,2.0,4.0,82,0.00,,OVC039,0.01,VWS V14.01,2013-11-25 01:51:00,
2013-11-24 20:52:00,13.1,8.6,30.50,NW,315,1.0,6.0,82,0.00,,OVC039,0.01,VWS V14.01,2013-11-25 01:52:00,
2013-11-24 20:53:00,12.9,8.4,30.50,SW,219,3.0,5.0,82,0.00,,OVC039,0.01,VWS V14.01,2013-11-25 01:53:00,
2013-11-24 20:54:00,12.9,8.4,30.50,West,272,2.0,7.0,82,0.00,,OVC039,0.01,VWS V14.01,2013-11-25 01:54:00,
2013-11-24 20:55:00,13.0,8.6,30.50,WSW,248,2.0,7.0,82,0.00,,OVC039,0.01,VWS V14.01,2013-11-25 01:55:00,
2013-11-24 20:56:00,12.9,8.4,30.50,West,259,2.0,7.0,82,0.00,,OVC039,0.01,VWS V14.01,2013-11-25 01:56:00,
2013-11-24 20:57:00,12.7,8.3,30.50,West,263,4.0,6.0,82,0.00,,OVC039,0.01,VWS V14.01,2013-11-25 01:57:00,
2013-11-24 20:58:00,12.9,8.4,30.50,West,274,1.0,7.0,82,0.00,,OVC039,0.01,VWS V14.01,2013-11-25 01:58:00,
2013-11-24 20:59:00,13.0,8.6,30.50,West,277,3.0,7.0,82,0.00,,OVC039,0.01,VWS V14.01,2013-11-25 01:59:00,
2013-11-24 21:00:00,13.0,8.6,30.50,West,269,2.0,2.0,82,0.00,,OVC039,0.01,VWS V14.01,2013-11-25 02:00:00,
2013-11-24 21:01:00,13.0,8.6,30.50,West,269,5.0,5.0,82,0.00,,OVC039,0.01,VWS V14.01,2013-11-25 02:01:00,
2013-11-24 21:02:00,12.8,8.4,30.50,WSW,253,3.0,4.0,82,0.00,,OVC039,0.01,VWS V14.01,2013-11-25 02:02:00,
2013-11-24 21:03:00,13.0,8.6,30.50,WSW,251,6.0,8.0,82,0.00,,OVC039,0.01,VWS V14.01,2013-11-25 02:03:00,
2013-11-24 21:04:00,12.9,8.4,30.50,WNW,288,6.0,8.0,82,0.00,,OVC039,0.01,VWS V14.01,2013-11-25 02:04:00,
2013-11-24 21:05:00,12.9,8.4,30.50,West,281,4.0,8.0,82,0.00,,OVC039,0.01,VWS V14.01,2013-11-25 02:05:00,
2013-11-24 21:06:00,12.9,8.4,30.50,West,260,2.0,8.0,82,0.00,,OVC039,0.01,VWS V14.01,2013-11-25 02:06:00,
2013-11-24 21:07:00,12.9,8.4,30.50,West,273,6.0,7.0,82,0.00,,OVC039,0.01,VWS V14.01,2013-11-25 02:07:00,
2013-11-24 21:08:00,12.9,8.4,30.50,West,261,2.0,8.0,82,0.00,,OVC039,0.01,VWS V14.01,2013-11-25 02:08:00,
2013-11-24 21:09:00,12.9,8.4,30.50,West,261,0.0,8.0,82,0.00,,OVC039,0.01,VWS V14.01,2013-11-25 02:09:00,
2013-11-24 21:10:00,12.8,8.4,30.50,WSW,240,3.0,4.0,82,0.00,,OVC039,0.01,VWS V14.01,2013-11-25 02:10:00,
2013-11-24 21:11:00,12.8,8.4,30.50,WSW,256,3.0,4.0,82,0.00,,OVC039,0.01,VWS V14.01,2013-11-25 02:11:00,
2013-11-24 21:12:00,13.0,8.6,30.50,West,259,6.0,8.0,82,0.00,,OVC039,0.01,VWS V14.01,2013-11-25 02:12:00,
2013-11-24 21:13:00,12.8,8.4,30.50,West,261,4.0,8.0,82,0.00,,OVC039,0.01,VWS V14.01,2013-11-25 02:13:00,
2013-11-24 21:14:00,12.8,8.4,30.49,West,265,4.0,8.0,82,0.00,,OVC039,0.01,VWS V14.01,2013-11-25 02:14:00,
2013-11-24 21:15:00,12.8,8.4,30.49,West,270,7.0,9.0,82,0.00,,OVC039,0.01,VWS V14.01,2013-11-25 02:15:00,
2013-11-24 21:16:00,12.8,8.4,30.49,West,262,5.0,9.0,82,0.00,,OVC039,0.01,VWS V14.01,2013-11-25 02:16:00,
2013-11-24 21:17:00,12.9,8.4,30.50,West,261,2.0,8.0,82,0.00,,OVC039,0.01,VWS V14.01,2013-11-25 02:17:00,
2013-11-24 21:18:00,12.9,8.4,30.49,WNW,285,4.0,9.0,82,0.00,,OVC039,0.01,VWS V14.01,2013-11-25 02:18:00,
2013-11-24 21:19:00,12.8,8.4,30.49,West,263,6.0,9.0,82,0.00,,OVC039,0.01,VWS V14.01,2013-11-25 02:19:00,
2013-11-24 21:20:00,12.8,8.4,30.49,West,263,9.0,10.0,82,0.00,,OVC039,0.01,VWS V14.01,2013-11-25 02:20:00,
2013-11-24 21:21:00,13.0,8.6,30.49,West,279,3.0,10.0,82,0.00,,OVC039,0.01,VWS V14.01,2013-11-25 02:21:00,
2013-11-24 21:22:00,12.8,8.4,30.50,West,276,4.0,5.0,82,0.00,,OVC039,0.01,VWS V14.01,2013-11-25 02:22:00,
2013-11-24 21:23:00,13.0,8.6,30.49,WSW,254,8.0,10.0,82,0.00,,OVC039,0.01,VWS V14.01,2013-11-25 02:23:00,
2013-11-24 21:24:00,13.1,8.6,30.49,WSW,253,3.0,10.0,82,0.00,,OVC039,0.01,VWS V14.01,2013-11-25 02:24:00,
2013-11-24 21:25:00,13.1,8.6,30.49,West,275,3.0,10.0,82,0.00,,OVC039,0.01,VWS V14.01,2013-11-25 02:25:00,
2013-11-24 21:26:00,13.0,8.6,30.49,West,267,3.0,10.0,82,0.00,,OVC039,0.01,VWS V14.01,2013-11-25 02:26:00,
2013-11-24 21:27:00,12.9,8.4,30.49,West,268,3.0,9.0,82,0.00,,OVC039,0.01,VWS V14.01,2013-11-25 02:27:00,
2013-11-24 21:28:00,12.7,8.3,30.49,West,260,2.0,10.0,82,0.00,,OVC039,0.01,VWS V14.01,2013-11-25 02:28:00,
2013-11-24 21:29:00,12.6,7.9,30.49,SW,232,1.0,10.0,81,0.00,,OVC039,0.01,VWS V14.01,2013-11-25 02:29:00,
2013-11-24 21:30:00,12.6,8.2,30.49,SW,233,2.0,2.0,82,0.00,,OVC039,0.01,VWS V14.01,2013-11-25 02:30:00,
2013-11-24 21:31:00,12.6,8.2,30.49,WSW,254,2.0,4.0,82,0.00,,OVC039,0.01,VWS V14.01,2013-11-25 02:31:00,
2013-11-24 21:32:00,13.1,8.6,30.49,WSW,258,2.0,10.0,82,0.00,,OVC039,0.01,VWS V14.01,2013-11-25 02:32:00,
2013-11-24 21:33:00,12.6,8.2,30.49,WSW,254,1.0,5.0,82,0.00,,OVC039,0.01,VWS V14.01,2013-11-25 02:33:00,
2013-11-24 21:34:00,12.6,8.2,30.49,WSW,253,2.0,5.0,82,0.00,,OVC039,0.01,VWS V14.01,2013-11-25 02:34:00,
2013-11-24 21:35:00,12.5,8.1,30.49,WSW,253,4.0,5.0,82,0.00,,OVC039,0.01,VWS V14.01,2013-11-25 02:35:00,
2013-11-24 21:36:00,12.5,8.1,30.49,WSW,253,2.0,5.0,82,0.00,,OVC039,0.01,VWS V14.01,2013-11-25 02:36:00,
2013-11-24 21:37:00,12.7,8.3,30.49,West,265,2.0,10.0,82,0.00,,OVC039,0.01,VWS V14.01,2013-11-25 02:37:00,
2013-11-24 21:38:00,12.5,8.1,30.49,WSW,257,3.0,5.0,82,0.00,,OVC039,0.01,VWS V14.01,2013-11-25 02:38:00,
2013-11-24 21:39:00,12.6,8.2,30.49,WSW,257,1.0,5.0,82,0.00,,OVC039,0.01,VWS V14.01,2013-11-25 02:39:00,
2013-11-24 21:40:00,12.6,8.2,30.49,WSW,256,1.0,1.0,82,0.00,,OVC039,0.01,VWS V14.01,2013-11-25 02:40:00,
2013-11-24 21:41:00,12.5,8.1,30.49,WSW,256,1.0,2.0,82,0.00,,OVC039,0.01,VWS V14.01,2013-11-25 02:41:00,
2013-11-24 21:42:00,12.6,8.2,30.49,WSW,254,2.0,5.0,82,0.00,,OVC039,0.01,VWS V14.01,2013-11-25 02:42:00,
2013-11-24 21:43:00,12.5,8.1,30.49,WSW,257,1.0,3.0,82,0.00,,OVC039,0.01,VWS V14.01,2013-11-25 02:43:00,
2013-11-24 21:44:00,12.5,8.1,30.49,SW,221,3.0,5.0,82,0.00,,OVC039,0.01,VWS V14.01,2013-11-25 02:44:00,
2013-11-24 21:45:00,12.5,8.1,30.49,SSW,200,3.0,5.0,82,0.00,,OVC039,0.01,VWS V14.01,2013-11-25 02:45:00,
2013-11-24 21:46:00,12.5,8.1,30.49,West,260,1.0,5.0,82,0.00,,OVC039,0.01,VWS V14.01,2013-11-25 02:46:00,
2013-11-24 21:47:00,12.5,8.1,30.49,West,261,3.0,5.0,82,0.00,,OVC039,0.01,VWS V14.01,2013-11-25 02:47:00,
2013-11-24 21:48:00,12.4,8.0,30.49,West,263,5.0,5.0,82,0.00,,OVC039,0.01,VWS V14.01,2013-11-25 02:48:00,
2013-11-24 21:49:00,12.4,8.0,30.49,SW,229,1.0,5.0,82,0.00,,OVC039,0.01,VWS V14.01,2013-11-25 02:49:00,
2013-11-24 21:50:00,12.5,8.1,30.49,WSW,252,2.0,4.0,82,0.00,,OVC039,0.01,VWS V14.01,2013-11-25 02:50:00,
2013-11-24 21:51:00,12.4,8.0,30.49,WSW,244,1.0,4.0,82,0.00,,OVC039,0.01,VWS V14.01,2013-11-25 02:51:00,
2013-11-24 21:52:00,12.5,8.1,30.49,WSW,257,3.0,3.0,82,0.00,,OVC039,0.01,VWS V14.01,2013-11-25 02:52:00,
2013-11-24 21:53:00,12.3,7.9,30.49,SW,229,0.0,4.0,82,0.00,,OVC039,0.01,VWS V14.01,2013-11-25 02:53:00,
2013-11-24 21:54:00,12.2,7.8,30.49,SW,229,0.0,4.0,82,0.00,,OVC039,0.01,VWS V14.01,2013-11-25 02:54:00,
2013-11-24 21:55:00,12.2,7.8,30.49,SW,229,2.0,4.0,82,0.00,,OVC039,0.01,VWS V14.01,2013-11-25 02:55:00,
2013-11-24 21:56:00,12.2,7.8,30.49,SW,229,2.0,4.0,82,0.00,,OVC039,0.01,VWS V14.01,2013-11-25 02:56:00,
2013-11-24 21:57:00,12.5,8.1,30.49,WSW,240,3.0,5.0,82,0.00,,OVC039,0.01,VWS V14.01,2013-11-25 02:57:00,
2013-11-24 21:58:00,12.2,7.8,30.49,SW,229,0.0,4.0,82,0.00,,OVC039,0.01,VWS V14.01,2013-11-25 02:58:00,
2013-11-24 21:59:00,12.2,7.8,30.49,SW,229,0.0,4.0,82,0.00,,OVC039,0.01,VWS V14.01,2013-11-25 02:59:00,
2013-11-24 22:00:00,12.2,7.8,30.49,SW,228,2.0,3.0,82,0.00,,OVC039,0.01,VWS V14.01,2013-11-25 03:00:00,
2013-11-24 22:01:00,12.2,7.8,30.49,WSW,239,1.0,3.0,82,0.00,,OVC039,0.01,VWS V14.01,2013-11-25 03:01:00,
2013-11-24 22:02:00,12.3,7.9,30.49,SW,229,1.0,4.0,82,0.00,,OVC039,0.01,VWS V14.01,2013-11-25 03:02:00,
2013-11-24 22:03:00,12.2,7.8,30.49,WSW,256,1.0,3.0,82,0.00,,OVC039,0.01,VWS V14.01,2013-11-25 03:03:00,
2013-11-24 22:04:00,12.2,7.8,30.49,SW,236,0.0,3.0,82,0.00,,OVC039,0.01,VWS V14.01,2013-11-25 03:04:00,
2013-11-24 22:05:00,12.1,7.7,30.49,SW,223,0.0,3.0,82,0.00,,OVC039,0.01,VWS V14.01,2013-11-25 03:05:00,
2013-11-24 22:06:00,12.2,7.8,30.49,SW,223,0.0,3.0,82,0.00,,OVC039,0.01,VWS V14.01,2013-11-25 03:06:00,
2013-11-24 22:07:00,12.2,7.8,30.49,SW,229,2.0,4.0,82,0.00,,OVC039,0.01,VWS V14.01,2013-11-25 03:07:00,
2013-11-24 22:08:00,12.1,7.7,30.49,South,176,0.0,3.0,82,0.00,,OVC039,0.01,VWS V14.01,2013-11-25 03:08:00,
2013-11-24 22:09:00,12.1,7.7,30.49,SSW,196,2.0,3.0,82,0.00,,OVC039,0.01,VWS V14.01,2013-11-25 03:09:00,
2013-11-24 22:10:00,12.1,7.7,30.49,SW,220,1.0,2.0,82,0.00,,OVC039,0.01,VWS V14.01,2013-11-25 03:10:00,
2013-11-24 22:11:00,12.0,7.6,30.49,SW,228,3.0,3.0,82,0.00,,OVC039,0.01,VWS V14.01,2013-11-25 03:11:00,
2013-11-24 22:12:00,12.2,7.8,30.49,WSW,238,2.0,3.0,82,0.00,,OVC039,0.01,VWS V14.01,2013-11-25 03:12:00,
2013-11-24 22:13:00,11.9,7.5,30.49,SW,224,0.0,3.0,82,0.00,,OVC039,0.01,VWS V14.01,2013-11-25 03:13:00,
2013-11-24 22:14:00,11.9,7.5,30.49,SW,223,0.0,3.0,82,0.00,,OVC039,0.01,VWS V14.01,2013-11-25 03:14:00,
2013-11-24 22:15:00,11.9,7.5,30.49,SW,223,0.0,3.0,82,0.00,,OVC039,0.01,VWS V14.01,2013-11-25 03:15:00,
2013-11-24 22:16:00,11.9,7.5,30.49,SW,223,1.0,3.0,82,0.00,,OVC039,0.01,VWS V14.01,2013-11-25 03:16:00,
2013-11-24 22:17:00,12.1,7.7,30.49,SW,222,0.0,3.0,82,0.00,,OVC039,0.01,VWS V14.01,2013-11-25 03:17:00,
2013-11-24 22:18:00,11.8,7.4,30.49,SSW,194,1.0,3.0,82,0.00,,OVC039,0.01,VWS V14.01,2013-11-25 03:18:00,
2013-11-24 22:19:00,11.8,7.4,30.49,SSW,198,3.0,3.0,82,0.00,,OVC039,0.01,VWS V14.01,2013-11-25 03:19:00,
2013-11-24 22:20:00,11.8,7.4,30.49,SSW,198,1.0,1.0,82,0.00,,OVC039,0.01,VWS V14.01,2013-11-25 03:20:00,
2013-11-24 22:21:00,11.9,7.5,30.49,SSW,198,0.0,1.0,82,0.00,,OVC039,0.01,VWS V14.01,2013-11-25 03:21:00,
2013-11-24 22:22:00,11.9,7.5,30.49,SW,224,0.0,3.0,82,0.00,,OVC039,0.01,VWS V14.01,2013-11-25 03:22:00,
2013-11-24 22:23:00,11.9,7.5,30.49,SW,224,0.0,3.0,82,0.00,,OVC036,0.01,VWS V14.01,2013-11-25 03:23:00,
2013-11-24 22:24:00,11.9,7.5,30.49,SW,224,0.0,3.0,82,0.00,,OVC036,0.01,VWS V14.01,2013-11-25 03:24:00,
2013-11-24 22:25:00,11.9,7.5,30.49,SW,229,1.0,3.0,82,0.00,,OVC036,0.01,VWS V14.01,2013-11-25 03:25:00,
2013-11-24 22:26:00,11.9,7.5,30.49,SW,229,1.0,3.0,82,0.00,,OVC036,0.01,VWS V14.01,2013-11-25 03:26:00,
2013-11-24 22:27:00,11.9,7.5,30.49,SW,218,0.0,3.0,82,0.00,,OVC039,0.01,VWS V14.01,2013-11-25 03:27:00,
2013-11-24 22:28:00,11.9,7.5,30.49,WSW,245,0.0,3.0,82,0.00,,OVC036,0.01,VWS V14.01,2013-11-25 03:28:00,
2013-11-24 22:29:00,11.9,7.5,30.49,WSW,248,0.0,3.0,82,0.00,,OVC036,0.01,VWS V14.01,2013-11-25 03:29:00,
2013-11-24 22:30:00,12.0,7.6,30.49,WSW,248,0.0,1.0,82,0.00,,OVC036,0.01,VWS V14.01,2013-11-25 03:30:00,
2013-11-24 22:31:00,11.9,7.5,30.49,WSW,248,2.0,2.0,82,0.00,,OVC036,0.01,VWS V14.01,2013-11-25 03:31:00,
2013-11-24 22:32:00,11.9,7.5,30.49,SW,223,1.0,3.0,82,0.00,,OVC036,0.01,VWS V14.01,2013-11-25 03:32:00,
2013-11-24 22:33:00,12.0,7.6,30.49,WSW,242,2.0,3.0,82,0.00,,OVC036,0.01,VWS V14.01,2013-11-25 03:33:00,
2013-11-24 22:34:00,12.0,7.6,30.49,WSW,240,1.0,3.0,82,0.00,,OVC036,0.01,VWS V14.01,2013-11-25 03:34:00,
2013-11-24 22:35:00,12.0,7.6,30.49,WSW,240,2.0,3.0,82,0.00,,OVC036,0.01,VWS V14.01,2013-11-25 03:35:00,
2013-11-24 22:36:00,12.0,7.6,30.49,WSW,253,2.0,3.0,82,0.00,,OVC036,0.01,VWS V14.01,2013-11-25 03:36:00,
2013-11-24 22:37:00,11.9,7.5,30.49,WSW,246,0.0,3.0,82,0.00,,OVC036,0.01,VWS V14.01,2013-11-25 03:37:00,
2013-11-24 22:38:00,12.0,7.6,30.49,West,269,1.0,3.0,82,0.00,,OVC036,0.01,VWS V14.01,2013-11-25 03:38:00,
2013-11-24 22:39:00,11.9,7.5,30.49,West,270,1.0,3.0,82,0.00,,OVC036,0.01,VWS V14.01,2013-11-25 03:39:00,
2013-11-24 22:40:00,11.9,7.5,30.49,SW,218,0.0,3.0,82,0.00,,OVC036,0.01,VWS V14.01,2013-11-25 03:40:00,
2013-11-24 22:41:00,11.9,7.5,30.49,SW,218,1.0,3.0,82,0.00,,OVC036,0.01,VWS V14.01,2013-11-25 03:41:00,
2013-11-24 22:42:00,12.0,7.6,30.49,SW,219,3.0,3.0,82,0.00,,OVC036,0.01,VWS V14.01,2013-11-25 03:42:00,
2013-11-24 22:43:00,11.9,7.5,30.49,SW,218,1.0,3.0,82,0.00,,OVC036,0.01,VWS V14.01,2013-11-25 03:43:00,
2013-11-24 22:44:00,11.8,7.4,30.48,SW,218,1.0,3.0,82,0.00,,OVC036,0.01,VWS V14.01,2013-11-25 03:44:00,
2013-11-24 22:45:00,11.8,7.4,30.48,SW,218,1.0,3.0,82,0.00,,OVC036,0.01,VWS V14.01,2013-11-25 03:45:00,
2013-11-24 22:46:00,11.7,7.3,30.48,SW,218,0.0,3.0,82,0.00,,OVC036,0.01,VWS V14.01,2013-11-25 03:46:00,
2013-11-24 22:47:00,12.0,7.6,30.49,West,269,1.0,3.0,82,0.00,,OVC036,0.01,VWS V14.01,2013-11-25 03:47:00,
2013-11-24 22:48:00,11.6,7.2,30.48,SW,218,0.0,3.0,82,0.00,,OVC036,0.01,VWS V14.01,2013-11-25 03:48:00,
2013-11-24 22:49:00,11.6,7.2,30.48,SW,218,0.0,3.0,82,0.00,,OVC036,0.01,VWS V14.01,2013-11-25 03:49:00,
2013-11-24 22:50:00,11.5,7.1,30.48,SW,218,2.0,3.0,82,0.00,,OVC036,0.01,VWS V14.01,2013-11-25 03:50:00,
2013-11-24 22:51:00,11.5,7.1,30.48,SW,218,1.0,3.0,82,0.00,,OVC036,0.01,VWS V14.01,2013-11-25 03:51:00,
2013-11-24 22:52:00,11.9,7.5,30.49,SW,218,1.0,3.0,82,0.00,,OVC036,0.01,VWS V14.01,2013-11-25 03:52:00,
2013-11-24 22:53:00,11.7,7.3,30.48,SW,218,2.0,3.0,82,0.00,,OVC036,0.01,VWS V14.01,2013-11-25 03:53:00,
2013-11-24 22:54:00,11.7,7.3,30.48,SW,218,0.0,3.0,82,0.00,,OVC036,0.01,VWS V14.01,2013-11-25 03:54:00,
2013-11-24 22:55:00,11.7,7.3,30.48,SW,218,0.0,3.0,82,0.00,,OVC036,0.01,VWS V14.01,2013-11-25 03:55:00,
2013-11-24 22:56:00,11.7,7.3,30.48,SW,218,0.0,3.0,82,0.00,,OVC036,0.01,VWS V14.01,2013-11-25 03:56:00,
2013-11-24 22:57:00,11.6,7.2,30.48,SW,218,0.0,3.0,82,0.00,,OVC036,0.01,VWS V14.01,2013-11-25 03:57:00,
2013-11-24 22:58:00,11.7,7.3,30.48,SW,218,1.0,3.0,82,0.00,,OVC036,0.01,VWS V14.01,2013-11-25 03:58:00,
2013-11-24 22:59:00,11.7,7.3,30.48,SW,218,0.0,3.0,82,0.00,,OVC036,0.01,VWS V14.01,2013-11-25 03:59:00,
2013-11-24 23:00:00,11.7,7.3,30.48,SW,218,0.0,0.0,82,0.00,,OVC036,0.01,VWS V14.01,2013-11-25 04:00:00,
2013-11-24 23:01:00,11.6,7.2,30.48,SW,218,0.0,0.0,82,0.00,,OVC036,0.01,VWS V14.01,2013-11-25 04:01:00,
2013-11-24 23:02:00,11.7,7.3,30.48,SW,218,1.0,3.0,82,0.00,,OVC036,0.01,VWS V14.01,2013-11-25 04:02:00,
2013-11-24 23:04:00,11.6,7.2,30.48,SW,218,0.0,2.0,82,0.00,,OVC036,0.01,VWS V14.01,2013-11-25 04:04:00,
2013-11-24 23:05:00,11.5,7.1,30.48,SW,218,0.0,2.0,82,0.00,,OVC036,0.01,VWS V14.01,2013-11-25 04:05:00,
2013-11-24 23:06:00,11.5,7.1,30.48,SW,218,0.0,2.0,82,0.00,,OVC036,0.01,VWS V14.01,2013-11-25 04:06:00,
2013-11-24 23:07:00,11.7,7.3,30.48,SW,218,0.0,3.0,82,0.00,,OVC036,0.01,VWS V14.01,2013-11-25 04:07:00,
2013-11-24 23:08:00,11.5,7.1,30.48,SW,218,0.0,2.0,82,0.00,,OVC036,0.01,VWS V14.01,2013-11-25 04:08:00,
2013-11-24 23:09:00,11.4,7.0,30.48,SW,218,0.0,2.0,82,0.00,,OVC036,0.01,VWS V14.01,2013-11-25 04:09:00,
2013-11-24 23:10:00,11.4,7.0,30.48,SW,218,0.0,0.0,82,0.00,,OVC036,0.01,VWS V14.01,2013-11-25 04:10:00,
2013-11-24 23:11:00,11.4,7.0,30.48,SW,218,0.0,0.0,82,0.00,,OVC036,0.01,VWS V14.01,2013-11-25 04:11:00,
2013-11-24 23:12:00,11.6,7.2,30.48,SW,218,1.0,2.0,82,0.00,,OVC036,0.01,VWS V14.01,2013-11-25 04:12:00,
2013-11-24 23:13:00,11.3,6.9,30.48,SW,218,0.0,0.0,82,0.00,,OVC036,0.01,VWS V14.01,2013-11-25 04:13:00,
2013-11-24 23:14:00,11.3,6.9,30.48,SW,218,0.0,0.0,82,0.00,,OVC036,0.01,VWS V14.01,2013-11-25 04:14:00,
2013-11-24 23:15:00,11.2,6.8,30.48,SW,218,0.0,0.0,82,0.00,,OVC036,0.01,VWS V14.01,2013-11-25 04:15:00,
2013-11-24 23:16:00,11.2,6.8,30.48,SW,218,0.0,0.0,82,0.00,,OVC036,0.01,VWS V14.01,2013-11-25 04:16:00,
2013-11-24 23:17:00,11.5,7.1,30.48,SW,218,0.0,2.0,82,0.00,,OVC036,0.01,VWS V14.01,2013-11-25 04:17:00,
2013-11-24 23:18:00,11.0,6.6,30.48,SW,218,0.0,0.0,82,0.00,,OVC036,0.01,VWS V14.01,2013-11-25 04:18:00,
2013-11-24 23:19:00,10.9,6.5,30.48,SW,218,0.0,1.0,82,0.00,,OVC036,0.01,VWS V14.01,2013-11-25 04:19:00,
2013-11-24 23:20:00,10.9,6.5,30.48,SW,218,0.0,0.0,82,0.00,,OVC036,0.01,VWS V14.01,2013-11-25 04:20:00,
2013-11-24 23:21:00,10.8,6.4,30.48,SW,218,0.0,0.0,82,0.00,,OVC036,0.01,VWS V14.01,2013-11-25 04:21:00,
2013-11-24 23:22:00,11.3,6.9,30.48,SW,218,0.0,0.0,82,0.00,,OVC036,0.01,VWS V14.01,2013-11-25 04:22:00,
2013-11-24 23:23:00,10.6,6.2,30.48,SW,218,0.0,0.0,82,0.00,,SCT021,0.01,VWS V14.01,2013-11-25 04:23:00,
2013-11-24 23:24:00,10.5,6.1,30.48,SW,218,0.0,0.0,82,0.00,,SCT021,0.01,VWS V14.01,2013-11-25 04:24:00,
2013-11-24 23:25:00,10.4,6.0,30.48,SW,218,0.0,0.0,82,0.00,,SCT021,0.01,VWS V14.01,2013-11-25 04:25:00,
2013-11-24 23:26:00,10.3,5.9,30.48,SW,218,0.0,0.0,82,0.00,,SCT021,0.01,VWS V14.01,2013-11-25 04:26:00,
2013-11-24 23:27:00,11.0,6.6,30.48,SW,218,0.0,0.0,82,0.00,,OVC036,0.01,VWS V14.01,2013-11-25 04:27:00,
2013-11-24 23:28:00,10.1,6.0,30.48,SW,218,0.0,0.0,83,0.00,,SCT021,0.01,VWS V14.01,2013-11-25 04:28:00,
2013-11-24 23:29:00,10.1,5.7,30.48,SW,218,0.0,0.0,82,0.00,,SCT021,0.01,VWS V14.01,2013-11-25 04:29:00,
2013-11-24 23:30:00,9.9,5.8,30.48,SW,218,0.0,0.0,83,0.00,,SCT021,0.01,VWS V14.01,2013-11-25 04:30:00,
2013-11-24 23:31:00,9.9,5.8,30.48,SW,218,0.0,0.0,83,0.00,,SCT021,0.01,VWS V14.01,2013-11-25 04:31:00,
2013-11-24 23:32:00,10.6,6.2,30.48,SW,218,0.0,0.0,82,0.00,,SCT021,0.01,VWS V14.01,2013-11-25 04:32:00,
2013-11-24 23:33:00,9.8,5.7,30.48,SW,218,0.0,0.0,83,0.00,,SCT021,0.01,VWS V14.01,2013-11-25 04:33:00,
2013-11-24 23:34:00,9.8,5.7,30.48,SW,218,0.0,0.0,83,0.00,,SCT021,0.01,VWS V14.01,2013-11-25 04:34:00,
2013-11-24 23:35:00,9.8,5.7,30.48,SW,218,0.0,0.0,83,0.00,,SCT021,0.01,VWS V14.01,2013-11-25 04:35:00,
2013-11-24 23:36:00,9.7,5.6,30.48,SW,218,0.0,0.0,83,0.00,,SCT021,0.01,VWS V14.01,2013-11-25 04:36:00,
2013-11-24 23:37:00,10.1,6.0,30.48,SW,218,0.0,0.0,83,0.00,,SCT021,0.01,VWS V14.01,2013-11-25 04:37:00,
2013-11-24 23:38:00,9.7,5.6,30.48,SW,218,0.0,0.0,83,0.00,,SCT021,0.01,VWS V14.01,2013-11-25 04:38:00,
2013-11-24 23:39:00,9.6,5.5,30.48,SW,218,0.0,0.0,83,0.00,,SCT021,0.01,VWS V14.01,2013-11-25 04:39:00,
2013-11-24 23:40:00,9.6,5.8,30.48,SW,218,0.0,0.0,84,0.00,,SCT021,0.01,VWS V14.01,2013-11-25 04:40:00,
2013-11-24 23:41:00,9.5,5.7,30.48,SW,218,0.0,0.0,84,0.00,,SCT021,0.01,VWS V14.01,2013-11-25 04:41:00,
2013-11-24 23:42:00,9.8,5.7,30.48,SW,218,0.0,0.0,83,0.00,,SCT021,0.01,VWS V14.01,2013-11-25 04:42:00,
2013-11-24 23:43:00,9.5,5.7,30.48,SW,218,0.0,1.0,84,0.00,,SCT021,0.01,VWS V14.01,2013-11-25 04:43:00,
2013-11-24 23:44:00,9.5,5.7,30.48,SW,218,0.0,1.0,84,0.00,,SCT021,0.01,VWS V14.01,2013-11-25 04:44:00,
2013-11-24 23:45:00,9.6,5.8,30.48,SW,218,0.0,1.0,84,0.00,,SCT021,0.01,VWS V14.01,2013-11-25 04:45:00,
2013-11-24 23:46:00,9.6,5.8,30.48,SW,218,0.0,1.0,84,0.00,,SCT021,0.01,VWS V14.01,2013-11-25 04:46:00,
2013-11-24 23:47:00,9.7,5.6,30.48,SW,218,0.0,0.0,83,0.00,,SCT021,0.01,VWS V14.01,2013-11-25 04:47:00,
2013-11-24 23:48:00,9.7,5.8,30.48,SW,218,0.0,1.0,84,0.00,,SCT021,0.01,VWS V14.01,2013-11-25 04:48:00,
2013-11-24 23:49:00,9.7,5.8,30.48,SW,218,0.0,1.0,84,0.00,,SCT021,0.01,VWS V14.01,2013-11-25 04:49:00,
2013-11-24 23:50:00,9.6,5.8,30.48,SW,218,0.0,0.0,84,0.00,,SCT021,0.01,VWS V14.01,2013-11-25 04:50:00,
2013-11-24 23:51:00,9.6,5.8,30.48,SW,218,0.0,0.0,84,0.00,,SCT021,0.01,VWS V14.01,2013-11-25 04:51:00,
2013-11-24 23:52:00,9.5,5.7,30.48,SW,218,0.0,1.0,84,0.00,,SCT021,0.01,VWS V14.01,2013-11-25 04:52:00,
2013-11-24 23:53:00,9.5,5.7,30.48,SW,218,0.0,0.0,84,0.00,,SCT021,0.01,VWS V14.01,2013-11-25 04:53:00,
2013-11-24 23:54:00,9.4,5.6,30.48,SW,218,0.0,0.0,84,0.00,,SCT021,0.01,VWS V14.01,2013-11-25 04:54:00,
2013-11-24 23:55:00,9.4,5.6,30.48,SW,218,0.0,0.0,84,0.00,,SCT021,0.01,VWS V14.01,2013-11-25 04:55:00,
2013-11-24 23:56:00,9.4,5.6,30.48,SW,218,0.0,0.0,84,0.00,,SCT021,0.01,VWS V14.01,2013-11-25 04:56:00,
2013-11-24 23:57:00,9.7,5.8,30.48,SW,218,0.0,1.0,84,0.00,,SCT021,0.01,VWS V14.01,2013-11-25 04:57:00,
2013-11-24 23:58:00,9.4,5.8,30.48,SW,218,0.0,0.0,85,0.00,,SCT021,0.01,VWS V14.01,2013-11-25 04:58:00,
2013-11-24 23:59:00,9.4,5.8,30.48,SW,218,0.0,1.0,85,0.00,,SCT021,0.01,VWS V14.01,2013-11-25 04:59:00,